[[{"header":{"parameterUnit":"m.s-1","parameterCategory":1,"la1":30.6,"la2":28.766,"lo1":-90.7593,"lo2":-88.6598,"dy":0.0162,"dx":0.0183,"nx":116,"ny":114,"refTime":"2023-05-30T12:00:00:Z","depth":0,"parameterNumber":2,"parameterNumberName":"U-component_of_WINDS"},"data":[0.0,0.0,0.0,0.0,0.0,0.0,0.0,0.0,0.0,0.0,0.0,0.0,0.0,0.0,0.0,0.0,0.0,0.0,0.0,0.0,0.0,0.0,0.0,0.0,0.0,0.0,0.0,0.0,0.0,0.0,0.0,0.0,0.0,0.0,0.0,0.0,0.0,0.0,0.0,0.0,0.0,0.0,0.0,0.0,0.0,0.0,0.0,0.0,0.0,0.0,0.0,0.0,0.0,0.0,0.0,0.0,0.0,0.0,0.0,0.0,0.0,0.0,0.0,0.0,0.0,0.0,0.0,0.0,0.0,0.0,0.0,0.0,0.0,0.0,0.0,0.0,0.0,0.0,0.0,0.0,0.0,0.0,0.0,0.0,0.0,0.0,0.0,0.0,0.0,0.0,0.0,0.0,0.0,0.0,0.0,0.0,0.0,0.0,0.0,0.0,0.0,0.0,0.0,0.0,0.0,0.0,0.0,0.0,0.0,0.0,0.0,0.0,0.0,0.0,0.0,0.0,0.0,0.0,0.0,0.0,0.0,0.0,0.0,0.0,0.0,0.0,0.0,0.0,0.0,0.0,0.0,0.0,0.0,0.0,0.0,0.0,0.0,0.0,0.0,0.0,0.0,0.0,0.0,0.0,0.0,0.0,0.0,0.0,0.0,0.0,0.0,0.0,0.0,0.0,0.0,0.0,0.0,0.0,0.0,0.0,0.0,0.0,0.0,0.0,0.0,0.0,0.0,0.0,0.0,0.0,0.0,0.0,0.0,0.0,0.0,0.0,0.0,0.0,0.0,0.0,0.0,0.0,0.0,0.0,0.0,0.0,0.0,0.0,0.0,0.0,0.0,0.0,0.0,0.0,0.0,0.0,0.0,0.0,0.0,0.0,0.0,0.0,0.0,0.0,0.0,0.0,0.0,0.0,0.0,0.0,0.0,0.0,0.0,0.0,0.0,0.0,0.0,0.0,0.0,0.0,0.0,0.0,0.0,0.0,0.0,0.0,0.0,0.0,0.0,0.0,0.0,0.0,0.0,0.0,0.0,0.0,0.0,0.0,0.0,0.0,0.0,0.0,0.0,0.0,0.0,0.0,0.0,0.0,0.0,0.0,0.0,0.0,0.0,0.0,0.0,0.0,0.0,0.0,0.0,0.0,0.0,0.0,0.0,0.0,0.0,0.0,0.0,0.0,0.0,0.0,0.0,0.0,0.0,0.0,0.0,0.0,0.0,0.0,0.0,0.0,0.0,0.0,0.0,0.0,0.0,0.0,0.0,0.0,0.0,0.0,0.0,0.0,0.0,0.0,0.0,0.0,0.0,0.0,0.0,0.0,0.0,0.0,0.0,0.0,0.0,0.0,0.0,0.0,0.0,0.0,0.0,0.0,0.0,0.0,0.0,0.0,0.0,0.0,0.0,0.0,0.0,0.0,0.0,0.0,0.0,0.0,0.0,0.0,0.0,0.0,0.0,0.0,0.0,0.0,0.0,0.0,0.0,0.0,0.0,0.0,0.0,0.0,0.0,0.0,0.0,0.0,0.0,0.0,0.0,0.0,0.0,0.0,0.0,0.0,0.0,0.0,0.0,0.0,0.0,0.0,0.0,0.0,0.0,0.0,0.0,0.0,0.0,0.0,0.0,0.0,0.0,0.0,0.0,0.0,0.0,0.0,0.0,0.0,0.0,0.0,0.0,0.0,0.0,0.0,0.0,0.0,0.0,0.0,0.0,0.0,0.0,0.0,0.0,0.0,0.0,0.0,0.0,0.0,0.0,0.0,0.0,0.0,0.0,0.0,0.0,0.0,0.0,0.0,0.0,0.0,0.0,0.0,0.0,0.0,0.0,0.0,0.0,0.0,0.0,0.0,0.0,0.0,0.0,0.0,0.0,0.0,0.0,0.0,0.0,0.0,0.0,0.0,0.0,0.0,0.0,0.0,0.0,0.0,0.0,0.0,0.0,0.0,0.0,0.0,0.0,0.0,0.0,0.0,0.0,0.0,0.0,0.0,0.0,0.0,0.0,0.0,0.0,0.0,0.0,0.0,0.0,0.0,0.0,0.0,0.0,0.0,0.0,0.0,0.0,0.0,0.0,0.0,0.0,0.0,0.0,0.0,0.0,0.0,0.0,0.0,0.0,0.0,0.0,0.0,0.0,0.0,0.0,0.0,0.0,0.0,0.0,0.0,0.0,0.0,0.0,0.0,0.0,0.0,0.0,0.0,0.0,0.0,0.0,0.0,0.0,0.0,0.0,0.0,0.0,0.0,0.0,0.0,0.0,0.0,0.0,0.0,0.0,0.0,0.0,0.0,0.0,0.0,0.0,0.0,0.0,0.0,0.0,0.0,0.0,0.0,0.0,0.0,0.0,0.0,0.0,0.0,0.0,0.0,0.0,0.0,0.0,0.0,0.0,0.0,0.0,0.0,0.0,0.0,0.0,0.0,0.0,0.0,0.0,0.0,0.0,0.0,0.0,0.0,0.0,0.0,0.0,0.0,0.0,0.0,0.0,0.0,0.0,0.0,0.0,0.0,0.0,0.0,0.0,0.0,0.0,0.0,0.0,0.0,0.0,0.0,0.0,0.0,0.0,0.0,0.0,0.0,0.0,0.0,0.0,0.0,0.0,0.0,0.0,0.0,0.0,0.0,0.0,0.0,0.0,0.0,0.0,0.0,0.0,0.0,0.0,0.0,0.0,0.0,0.0,0.0,0.0,0.0,0.0,0.0,0.0,0.0,0.0,0.0,0.0,0.0,0.0,0.0,0.0,0.0,0.0,0.0,0.0,0.0,0.0,0.0,0.0,0.0,0.0,0.0,0.0,0.0,0.0,0.0,0.0,0.0,0.0,0.0,0.0,0.0,0.0,0.0,0.0,0.0,0.0,0.0,0.0,0.0,0.0,0.0,0.0,0.0,0.0,0.0,0.0,0.0,0.0,0.0,0.0,0.0,0.0,0.0,0.0,0.0,0.0,0.0,0.0,0.0,0.0,0.0,0.0,0.0,0.0,0.0,0.0,0.0,0.0,0.0,0.0,0.0,0.0,0.0,0.0,0.0,0.0,0.0,0.0,0.0,0.0,0.0,0.0,0.0,0.0,0.0,0.0,0.0,0.0,0.0,0.0,0.0,0.0,0.0,0.0,0.0,0.0,0.0,0.0,0.0,0.0,0.0,0.0,0.0,0.0,0.0,0.0,0.0,0.0,0.0,0.0,0.0,0.0,0.0,0.0,0.0,0.0,0.0,0.0,0.0,0.0,0.0,0.0,0.0,0.0,0.0,0.0,0.0,0.0,0.0,0.0,0.0,0.0,0.0,0.0,0.0,0.0,0.0,0.0,0.0,0.0,0.0,0.0,0.0,0.0,0.0,0.0,0.0,0.0,0.0,0.0,0.0,0.0,0.0,0.0,0.0,0.0,0.0,0.0,0.0,0.0,0.0,0.0,0.0,0.0,0.0,0.0,0.0,0.0,0.0,0.0,0.0,0.0,0.0,0.0,0.0,0.0,0.0,0.0,0.0,0.0,0.0,0.0,0.0,0.0,0.0,0.0,0.0,0.0,0.0,0.0,0.0,0.0,0.0,0.0,0.0,0.0,0.0,0.0,0.0,0.0,0.0,0.0,0.0,0.0,0.0,0.0,0.0,0.0,0.0,0.0,0.0,0.0,0.0,0.0,0.0,0.0,0.0,0.0,0.0,0.0,0.0,0.0,0.0,0.0,0.0,0.0,0.0,0.0,0.0,0.0,0.0,0.0,0.0,0.0,0.0,0.0,0.0,0.0,0.0,0.0,0.0,0.0,0.0,0.0,0.0,0.0,0.0,0.0,0.0,0.0,0.0,0.0,0.0,0.0,0.0,0.0,0.0,0.0,0.0,0.0,0.0,0.0,0.0,0.0,0.0,0.0,0.0,0.0,0.0,0.0,0.0,0.0,0.0,0.0,0.0,0.0,0.0,0.0,0.0,0.0,0.0,0.0,0.0,0.0,0.0,0.0,0.0,0.0,0.0,0.0,0.0,0.0,0.0,0.0,0.0,0.0,0.0,0.0,0.0,0.0,0.0,0.0,0.0,0.0,0.0,0.0,0.0,0.0,0.0,0.0,0.0,0.0,0.0,0.0,0.0,0.0,0.0,0.0,0.0,0.0,0.0,0.0,0.0,0.0,0.0,0.0,0.0,0.0,0.0,0.0,0.0,0.0,0.0,0.0,0.0,0.0,0.0,0.0,0.0,0.0,0.0,0.0,0.0,0.0,0.0,0.0,0.0,0.0,0.0,0.0,0.0,0.0,0.0,0.0,0.0,0.0,0.0,0.0,0.0,0.0,0.0,0.0,0.0,0.0,0.0,0.0,0.0,0.0,0.0,0.0,0.0,0.0,0.0,0.0,0.0,0.0,0.0,0.0,0.0,0.0,0.0,0.0,0.0,0.0,0.0,0.0,0.0,0.0,0.0,0.0,0.0,0.0,0.0,0.0,0.0,0.0,0.0,0.0,0.0,0.0,0.0,0.0,0.0,0.0,0.0,0.0,0.0,0.0,0.0,0.0,0.0,0.0,0.0,0.0,0.0,0.0,0.0,0.0,0.0,0.0,0.0,0.0,0.0,0.0,0.0,0.0,0.0,0.0,0.0,0.0,0.0,0.0,0.0,0.0,0.0,0.0,0.0,0.0,0.0,0.0,0.0,0.0,0.0,0.0,0.0,0.0,0.0,0.0,0.0,0.0,0.0,0.0,0.0,0.0,0.0,0.0,0.0,0.0,0.0,0.0,0.0,0.0,0.0,0.0,0.0,0.0,0.0,0.0,0.0,0.0,0.0,0.0,0.0,0.0,0.0,0.0,0.0,0.0,0.0,0.0,0.0,0.0,0.0,0.0,0.0,0.0,0.0,0.0,0.0,0.0,0.0,0.0,0.0,0.0,0.0,0.0,0.0,0.0,0.0,0.0,0.0,0.0,0.0,0.0,0.0,0.0,0.0,0.0,0.0,0.0,0.0,0.0,0.0,0.0,0.0,0.0,0.0,0.0,0.0,0.0,0.0,0.0,0.0,0.0,0.0,0.0,0.0,0.0,0.0,0.0,0.0,0.0,0.0,0.0,0.0,0.0,0.0,0.0,0.0,0.0,0.0,0.0,0.0,0.0,0.0,0.0,0.0,0.0,0.0,0.0,0.0,0.0,0.0,0.0,0.0,0.0,0.0,0.0,0.0,0.0,0.0,0.0,0.0,0.0,0.0,0.0,0.0,0.0,0.0,0.0,0.0,0.0,0.0,0.0,0.0,0.0,0.0,0.0,0.0,0.0,0.0,0.0,0.0,0.0,0.0,0.0,0.0,0.0,0.0,0.0,0.0,0.0,0.0,0.0,0.0,0.0,0.0,0.0,0.0,0.0,0.0,0.0,0.0,0.0,0.0,0.0,0.0,0.0,0.0,0.0,0.0,0.0,0.0,0.0,0.0,0.0,0.0,0.0,0.0,0.0,0.0,0.0,0.0,0.0,0.0,0.0,0.0,0.0,0.0,0.0,0.0,0.0,0.0,0.0,0.0,0.0,0.0,0.0,0.0,0.0,0.0,0.0,0.0,0.0,0.0,0.0,0.0,0.0,0.0,0.0,0.0,0.0,0.0,0.0,0.0,0.0,0.0,0.0,0.0,0.0,0.0,0.0,0.0,0.0,0.0,0.0,0.0,0.0,0.0,0.0,0.0,0.0,0.0,0.0,0.0,0.0,0.0,0.0,0.0,0.0,0.0,0.0,0.0,0.0,0.0,0.0,0.0,0.0,0.0,0.0,0.0,0.0,0.0,0.0,0.0,0.0,0.0,0.0,0.0,0.0,0.0,0.0,0.0,0.0,0.0,0.0,0.0,0.0,0.0,0.0,0.0,0.0,0.0,0.0,0.0,0.0,0.0,0.0,0.0,0.0,0.0,0.0,0.0,0.0,0.0,0.0,0.0,0.0,0.0,0.0,0.0,0.0,0.0,0.0,0.0,0.0,0.0,0.0,0.0,0.0,0.0,0.0,0.0,0.0,0.0,0.0,0.0,0.0,0.0,0.0,0.0,0.0,0.0,0.0,0.0,0.0,0.0,0.0,0.0,0.0,0.0,0.0,0.0,0.0,0.0,0.0,0.0,-1.3433,-1.3057,0.0,0.0,0.0,0.0,0.0,0.0,0.0,0.0,0.0,0.0,0.0,0.0,0.0,0.0,0.0,0.0,0.0,0.0,0.0,0.0,0.0,0.0,0.0,0.0,0.0,0.0,0.0,0.0,0.0,0.0,0.0,0.0,0.0,0.0,0.0,0.0,0.0,-0.3813,-0.3862,-0.3944,-0.4197,-0.3508,-0.2352,-0.0955,0.0,0.0,0.0,0.0,0.0,0.0,0.0,0.0,0.0,0.0,0.0,0.0,0.0,0.0,0.0,0.0,0.0,0.0,0.0,0.0,0.0,0.0,0.0,0.0,0.0,0.0,0.0,0.0,0.0,0.0,0.0,0.0,0.0,0.0,0.0,0.0,0.0,0.0,0.0,0.0,0.0,0.0,0.0,0.0,0.0,0.0,0.0,0.0,0.0,0.0,0.0,0.0,0.0,0.0,0.0,0.0,0.0,0.0,0.0,0.0,0.0,0.0,0.0,0.0,0.0,0.0,0.0,0.0,0.0,0.0,-1.3748,-1.3616,0.0,0.0,0.0,0.0,0.0,0.0,0.0,0.0,0.0,0.0,0.0,0.0,0.0,0.0,0.0,0.0,0.0,0.0,0.0,0.0,0.0,0.0,0.0,0.1411,0.0806,0.0067,-0.0134,-0.0538,0.0,0.0,0.0,0.0,0.0,0.0,-0.4749,-0.4882,-0.496,-0.4986,-0.5221,-0.5364,-0.5554,-0.5699,-0.4756,-0.2958,-0.3084,0.0,0.0,0.0,0.0,0.0,0.0,0.0,0.0,0.0,0.0,0.0,0.0,0.0,0.0,0.0,0.0,0.0,0.0,0.0,0.0,0.0,0.0,0.0,0.0,0.0,0.0,0.0,0.0,0.0,0.0,0.0,0.0,0.0,0.0,0.0,0.0,0.0,0.0,0.0,0.0,0.0,0.0,0.0,0.0,0.0,0.0,0.0,0.0,0.0,0.0,0.0,0.0,0.0,0.0,0.0,0.0,0.0,0.0,0.0,0.0,0.0,0.0,0.0,-1.365,-1.3754,-1.3836,-1.3836,-1.4128,-1.4604,-1.4062,-1.4106,-1.4465,-1.3389,0.0,0.0,0.0,0.0,0.0,0.0,0.0,0.0,0.0,0.0,0.0,0.0,0.0,0.0,0.0,0.0,0.0,0.0,0.0,0.0,0.0,0.1143,0.0806,0.0067,-0.0605,-0.1276,-0.2013,0.0,0.0,0.0,0.0,0.0,-0.4815,-0.5282,-0.555,-0.5754,-0.6043,-0.612,-0.6215,-0.6873,-0.7074,-0.6741,-0.5584,-0.503,-0.5021,0.0,0.0,0.0,0.0,0.0,0.0,0.0,0.0,0.0,0.0,0.0,0.0,0.0,0.0,0.0,0.0,0.0,0.0,0.0,0.0,0.0,0.0,0.0,0.0,0.0,0.0,0.0,0.0,0.0,0.0,0.0,0.0,0.0,0.0,0.0,0.0,0.0,0.0,0.0,0.0,0.0,-0.8449,-1.0181,0.0,0.0,0.0,0.0,0.0,0.0,0.0,0.0,0.0,0.0,0.0,0.0,0.0,-1.2516,-1.2438,-1.2766,-1.3292,-1.3849,-1.4111,-1.4585,-1.5174,-1.5174,-1.5218,-1.5299,-1.5211,0.0,-1.4867,-1.4692,0.0,0.0,0.0,0.0,0.0,0.0,0.0,0.0,0.0,0.0,0.0,0.0,0.0,0.0,0.0,0.0,0.0,0.0,0.0,0.0,0.0,0.1091,0.0826,0.0069,-0.0279,-0.0908,-0.2063,-0.2405,0.0,0.0,0.0,-0.4686,-0.5216,-0.5568,-0.5869,-0.6118,-0.6552,-0.6895,-0.6984,-0.7806,-0.8182,-0.8178,-0.8009,-0.7843,-0.7633,-0.7061,0.0,0.0,0.0,0.0,0.0,0.0,0.0,0.0,0.0,0.0,0.0,0.0,0.0,0.0,0.0,0.0,0.0,0.0,0.0,0.0,0.0,0.0,0.0,0.0,0.0,0.0,0.0,0.0,0.0,0.0,0.0,0.0,0.0,0.0,0.0,0.0,0.0,0.0,0.0,-0.8205,-0.9552,-1.0359,-1.0353,-1.0239,0.0,0.0,0.0,0.0,0.0,0.0,0.0,0.0,0.0,-1.2125,-1.2457,-1.2619,-1.2438,-1.2893,-1.3291,-1.3625,-1.4162,-1.4398,-1.4328,-1.509,-1.5173,-1.4824,-1.4824,-1.4747,-1.4592,-1.424,-1.3696,-1.3147,0.0,0.0,0.0,0.0,-1.1626,-1.1409,0.0,0.0,0.0,0.0,0.0,0.0,0.0,0.0,0.0,0.0,0.0,0.0,0.1087,0.1114,0.0849,0.0071,0.0072,-0.0504,-0.2031,-0.2097,-0.2694,-0.3966,-0.4486,-0.508,-0.5617,-0.5949,-0.619,-0.6318,-0.6966,-0.7358,-0.7484,-0.8318,-0.8775,-0.9074,-0.9825,-0.9922,-0.951,-0.8822,-0.8549,-0.8437,0.0,0.0,0.0,0.0,0.0,0.0,0.0,0.0,0.0,0.0,0.0,0.0,0.0,0.0,0.0,0.0,0.0,0.0,0.0,0.0,0.0,0.0,0.0,0.0,0.0,0.0,0.0,0.0,0.0,0.0,0.0,0.0,0.0,0.0,0.0,0.0,0.0,-0.9264,-1.0205,-1.039,-1.0433,-1.0374,0.0,0.0,0.0,0.0,0.0,0.0,-1.1364,-1.193,-1.2131,-1.1735,-1.2248,-1.2343,-1.2112,-1.2796,-1.3137,-1.3137,-1.3808,-1.3899,-1.3398,-1.4412,-1.4664,-1.4146,-1.4146,-1.4062,-1.3853,-1.3499,-1.3154,-1.2739,-1.2311,-1.2058,-1.1955,-1.1953,-1.1771,-1.1618,0.0,0.0,0.0,0.0,0.0,0.0,0.0,0.0,0.0,0.0,0.0,0.1119,0.1119,0.1146,0.0873,0.0145,0.0073,-0.0504,-0.2031,-0.2097,-0.2694,-0.3966,-0.4486,-0.508,-0.5617,-0.6479,-0.6736,-0.6318,-0.7079,-0.7476,-0.7484,-0.8318,-0.9074,-0.9895,-1.0657,-1.064,-0.9846,-0.9626,-0.9529,-0.9475,-0.9017,0.0,0.0,0.0,0.0,0.0,0.0,0.0,0.0,0.0,0.0,0.0,0.0,0.0,0.0,0.0,0.0,0.0,0.0,0.0,0.0,0.0,0.0,0.0,0.0,0.0,0.0,0.0,0.0,0.0,0.0,0.0,0.0,0.0,0.0,0.0,0.0,0.0,0.0,-1.0481,-1.0816,0.0,0.0,0.0,0.0,-1.0616,-1.1186,-1.1375,-1.1033,-1.1626,-1.1741,-1.1327,-1.1332,-1.1338,-1.1348,-1.2112,-1.2448,-1.2448,-1.3137,-1.3398,-1.3398,-1.3483,-1.3476,-1.3476,-1.3476,-1.3052,-1.2528,-1.319,-1.3035,-1.2473,-1.2685,-1.2569,-1.2297,-1.2388,-1.2587,-1.2816,0.0,0.0,0.0,0.0,0.0,0.0,0.0,0.0,0.3326,0.3385,0.207,0.1151,0.1151,0.1177,0.1121,0.0822,0.0834,0.0227,-0.1325,-0.1447,-0.2055,-0.3524,-0.4066,-0.4428,-0.4722,-0.5909,-0.6314,-0.5857,-0.6988,-0.7484,-0.7484,-0.8318,-0.8851,-0.915,-0.9976,-1.0196,-0.9965,-1.041,-1.0797,-1.0982,-1.0219,-0.9742,0.0,0.0,0.0,0.0,0.0,0.0,0.0,0.0,0.0,0.0,0.0,0.0,0.0,0.0,0.0,0.0,0.0,0.0,0.0,0.0,0.0,0.0,0.0,0.0,0.0,0.0,0.0,0.0,0.0,0.0,0.0,0.0,0.0,0.0,0.0,0.0,0.0,-0.9591,-0.9917,0.0,-1.0578,-1.0772,-1.0859,-1.0859,-1.1171,-1.1297,-1.1214,-1.139,-1.1428,-1.1262,-1.1262,-1.1262,-1.1262,-1.1521,-1.1688,-1.1688,-1.2454,-1.254,-1.2118,-1.2973,-1.3137,-1.279,-1.279,-1.2619,-1.2363,-1.2118,-1.1923,-1.1679,-1.1763,-1.1904,-1.1928,-1.1951,-1.2176,-1.2612,0.0,0.0,0.0,0.0,0.0,0.0,0.0,0.0,0.3772,0.3912,0.2566,0.1624,0.1624,0.136,0.1227,0.1227,0.1245,0.0697,-0.0598,-0.088,-0.1574,-0.2904,-0.3696,-0.4119,-0.4335,-0.5451,-0.5793,-0.5315,-0.6556,-0.7176,-0.7176,-0.794,-0.8475,-0.8699,-0.9221,-0.9669,-0.997,-1.0501,-1.1077,-1.1571,-1.0827,-1.0367,-1.0176,0.0,0.0,0.0,0.0,0.0,0.0,0.0,0.0,0.0,0.0,0.0,0.0,0.0,0.0,0.0,0.0,0.0,0.0,0.0,0.0,0.0,0.0,0.0,0.0,0.0,0.0,0.0,0.0,0.0,0.0,0.0,0.0,0.0,0.0,-0.7499,-0.8367,-0.8682,-0.9308,-0.9822,-1.0192,-1.0799,-1.1106,-1.1106,-1.1257,-1.1262,-1.1262,-1.1262,-1.1262,-1.1262,-1.1262,-1.1262,-1.1262,-1.1262,-1.1262,-1.1354,-1.1774,-1.1774,-1.1348,-1.2289,-1.2454,-1.2026,-1.2026,-1.2026,-1.2026,-1.1521,-1.1262,-1.1354,-1.144,-1.1613,-1.1785,-1.1866,-1.2203,-1.2534,0.0,0.0,0.0,0.0,0.0,0.0,0.5858,0.5225,0.4718,0.4723,0.3422,0.2574,0.2574,0.1857,0.1335,0.1335,0.1335,0.0924,0.0147,-0.0583,-0.1349,-0.2155,-0.3384,-0.4166,-0.4295,-0.4983,-0.5121,-0.4621,-0.5941,-0.656,-0.6563,-0.7176,-0.7863,-0.8623,-0.8623,-0.9069,-0.9739,-0.9814,-1.0276,-1.1013,-1.0761,-1.0653,-1.0473,0.0,0.0,0.0,0.0,0.0,0.0,0.0,0.0,0.0,0.0,0.0,0.0,0.0,0.0,0.0,0.0,0.0,0.0,0.0,0.0,0.0,0.0,0.0,0.0,0.0,0.0,0.0,0.0,0.0,0.0,0.0,0.0,0.0,-0.6463,-0.7487,-0.8042,-0.7793,-0.9016,-0.9775,-0.9569,-1.06,-1.1262,-1.1262,-1.1262,-1.1262,-1.1262,-1.1262,-1.1262,-1.1262,-1.1262,-1.1262,-1.1262,-1.1262,-1.1262,-1.1262,-1.1262,-1.1262,-1.1262,-1.1262,-1.1262,-1.1262,-1.1262,-1.1262,-1.1262,-1.1262,-1.1262,-1.1348,-1.1613,-1.1785,-1.2037,-1.2283,-1.2534,-1.2705,0.0,0.0,0.0,0.0,0.0,0.0,0.6814,0.5657,0.4803,0.489,0.4085,0.3409,0.3409,0.2653,0.2198,0.2198,0.1649,0.0937,0.0077,-0.0149,-0.0574,-0.1317,-0.1735,-0.1934,-0.2036,-0.3297,-0.388,-0.3752,-0.5154,-0.5857,-0.5857,-0.6009,-0.624,-0.6468,-0.6468,-0.6542,-0.6846,-0.7375,-0.8062,-0.8746,-0.96,-0.9849,-0.9757,0.0,0.0,0.0,0.0,0.0,0.0,0.0,0.0,0.0,0.0,0.0,0.0,0.0,0.0,0.0,0.0,0.0,0.0,0.0,0.0,0.0,0.0,0.0,0.0,0.0,0.0,0.0,0.0,0.0,0.0,0.0,-0.545,-0.5537,-0.5758,-0.6121,-0.6627,-0.7194,-0.761,-0.8086,-0.8731,-0.9735,-1.0299,-1.0299,-1.0911,-1.1262,-1.1262,-1.1262,-1.1262,-1.1262,-1.1262,-1.1262,-1.1262,-1.1262,-1.1262,-1.1262,-1.1262,-1.1262,-1.1262,-1.1262,-1.1262,-1.1262,-1.1262,-1.1262,-1.1262,-1.1262,-1.1262,-1.1354,-1.1354,-1.1435,-1.1521,-1.178,-1.2112,-1.2534,0.0,0.0,0.0,0.0,0.0,0.0,0.7948,0.7084,0.6439,0.6531,0.5535,0.4836,0.4836,0.3752,0.3056,0.3056,0.2275,0.1562,0.1081,0.0447,-0.0218,-0.1013,-0.1116,-0.1138,-0.115,-0.204,-0.246,-0.246,-0.3601,-0.4157,-0.4117,-0.4432,-0.4565,-0.4523,-0.4523,-0.4758,-0.5151,-0.561,-0.6264,-0.7028,-0.7725,-0.8304,-0.8733,-0.8072,-0.7283,-0.6547,-0.6623,-0.6139,-0.5535,-0.5607,0.0,0.0,0.0,0.0,0.0,0.0,0.0,0.0,0.0,0.0,0.0,0.0,0.0,0.0,0.0,0.0,0.0,0.0,0.0,0.0,0.0,0.0,0.0,0.0,-0.5462,-0.5539,-0.5449,-0.5598,-0.5911,-0.6438,-0.6877,-0.7316,-0.7841,-0.8807,-0.9331,-0.9331,-0.9859,-1.0294,-1.0651,-1.0738,-1.0738,-1.0738,-1.0738,-1.0738,-1.0738,-1.0738,-1.0911,-1.1262,-1.1262,-1.1262,-1.1262,-1.1262,-1.1262,-1.1262,-1.1262,-1.1262,-1.1262,-1.1262,-1.1262,-1.1262,0.0,0.0,0.0,0.0,-1.2026,-1.2015,0.0,0.0,0.0,0.0,0.0,0.0,0.902,0.8851,0.8703,0.8703,0.7383,0.6454,0.6454,0.5143,0.4215,0.4215,0.3355,0.2704,0.2639,0.1337,0.0223,-0.053,-0.0533,-0.0618,-0.0868,-0.0887,-0.0978,-0.106,-0.166,-0.1988,-0.2029,-0.2595,-0.2886,-0.2907,-0.2907,-0.3301,-0.4014,-0.4014,-0.4542,-0.5361,-0.5281,-0.6241,-0.7459,-0.6278,-0.577,-0.5705,-0.5756,-0.5805,-0.5722,-0.5722,0.0,0.0,0.0,0.0,0.0,0.0,0.0,0.0,0.0,0.0,0.0,0.0,0.0,0.0,0.0,0.0,0.0,0.0,0.0,0.0,0.0,0.0,0.0,0.0,-0.5476,-0.5644,-0.5463,-0.5552,-0.5733,-0.5733,-0.6438,-0.6962,-0.6962,-0.7753,-0.8368,-0.8368,-0.8456,-0.8894,-0.968,-0.9767,0.0,0.0,0.0,-0.9767,-0.9767,-0.9767,-1.012,-1.0997,-1.0997,-1.0997,-1.0997,-1.0997,-1.0997,-1.0997,-1.0997,-1.0997,-1.0997,-1.0997,-1.1084,-1.1176,-1.1262,-1.1521,-1.1866,-1.2277,-1.1923,-1.1235,0.0,0.0,0.0,0.0,0.0,0.0,0.975,0.916,0.8703,0.8703,0.8394,0.8237,0.8237,0.7294,0.6674,0.6674,0.5272,0.4052,0.3375,0.324,0.3154,0.295,0.306,0.2801,0.1987,0.133,0.0583,-0.0167,-0.1005,-0.134,-0.1418,-0.1501,-0.158,-0.1573,-0.1573,-0.1656,-0.1823,-0.1823,-0.2239,-0.2742,-0.2249,-0.3733,-0.628,-0.5979,-0.5576,-0.5178,-0.5212,-0.4913,-0.4488,-0.4488,-0.4488,-0.4304,-0.4225,-0.3599,0.0,0.0,0.0,0.0,0.0,0.0,0.0,0.0,0.0,0.0,0.0,0.0,0.0,0.0,0.0,0.0,0.0,0.0,0.0,-0.5459,-0.5566,-0.5644,-0.5644,-0.5644,-0.5733,-0.5733,-0.5822,-0.5997,-0.5997,-0.6789,-0.7404,-0.7404,-0.8105,-0.8544,-0.8719,-0.8807,-0.8807,-0.8807,-0.8807,-0.8807,-0.8807,-0.8807,-0.8894,-0.9069,-0.9069,0.0,-0.9069,-0.9069,-0.9069,-0.9069,-0.9069,-0.9069,-0.9069,-0.9069,-0.9506,-1.0212,-1.0997,-1.1084,-1.0901,-1.0982,-1.0626,-1.0183,0.0,0.0,0.0,0.0,0.0,0.0,1.1514,1.0938,1.049,0.9981,0.9533,0.9311,0.9311,0.8533,0.8067,0.8067,0.6981,0.5947,0.5118,0.5351,0.5465,0.5479,0.5519,0.5173,0.4261,0.38,0.3059,0.2129,0.1722,0.1549,0.1532,0.1532,0.1524,0.1509,0.1509,0.1006,0.0168,0.0168,-0.0591,-0.1706,-0.1366,-0.2232,-0.363,-0.3592,-0.341,-0.3164,-0.3232,-0.3083,-0.2822,-0.2822,-0.2822,-0.2816,-0.2699,-0.2325,-0.204,0.0,0.0,0.0,0.0,0.0,0.0,0.0,0.0,0.0,0.0,0.0,0.0,0.0,0.0,-0.3785,-0.4,0.0,-0.4088,-0.4045,-0.4535,-0.4926,-0.4654,-0.5193,-0.5552,-0.5644,-0.5733,-0.5733,-0.5733,-0.6086,-0.6438,-0.6438,-0.6877,-0.7316,-0.7753,-0.7841,-0.7841,-0.7841,-0.7841,-0.7841,-0.7841,-0.7841,-0.8017,-0.8544,-0.8544,-0.8544,-0.8544,-0.8544,-0.8544,-0.8544,-0.8544,-0.8544,-0.8544,-0.8544,-0.8807,-0.9244,-0.9685,-1.0202,-1.0549,-1.0197,-0.9758,-0.9231,0.0,0.0,0.0,0.0,0.0,0.0,0.0,1.2931,1.2492,1.1552,1.0881,1.0363,1.0293,0.9609,0.9064,0.8944,0.8531,0.7919,0.7081,0.7384,0.7518,0.7518,0.7548,0.7152,0.6152,0.6178,0.5717,0.4776,0.4861,0.4858,0.4776,0.4776,0.4734,0.4746,0.458,0.3646,0.2289,0.2121,0.1201,-0.0262,-0.0437,-0.0441,-0.0357,-0.0615,-0.0961,-0.1313,-0.1424,-0.1431,-0.1431,-0.1431,-0.1431,-0.1431,-0.1431,-0.1239,-0.1043,-0.127,-0.1092,0.0,0.0,0.0,0.0,0.0,0.0,0.0,0.0,-0.1812,-0.2149,-0.2198,-0.2208,-0.2305,-0.2697,-0.2706,-0.2633,-0.25,-0.3312,-0.3758,-0.3398,-0.4113,-0.483,-0.501,-0.5371,-0.5552,-0.5552,-0.5552,-0.5552,-0.5644,-0.5644,-0.5997,-0.6789,-0.6789,-0.6789,-0.6789,-0.6789,-0.6789,-0.6789,-0.6789,-0.7228,-0.7929,-0.7929,-0.7929,-0.7929,-0.7929,-0.7929,-0.7929,-0.7929,-0.7929,-0.7929,-0.7929,-0.8105,-0.8193,-0.8017,-0.8803,-0.9937,-0.941,-0.8803,-0.8281,0.0,0.0,0.0,0.0,0.0,0.0,0.0,0.0,1.3585,1.2813,1.2432,1.2131,1.1781,1.1186,1.0496,0.9694,0.985,0.9622,0.8727,0.9099,0.9419,0.9419,0.9496,0.9147,0.8182,0.8198,0.7676,0.6789,0.6806,0.6806,0.6789,0.6789,0.6779,0.6766,0.5911,0.539,0.5212,0.4341,0.3909,0.3561,0.2765,0.2946,0.3482,0.1787,0.0089,-0.1427,-0.1431,-0.1431,-0.1431,-0.1431,-0.1431,-0.1431,-0.1431,-0.0805,-0.0266,-0.1106,-0.0672,-0.0083,-0.0159,0.04,0.0984,0.0919,0.0251,-0.0507,0.0,-0.1482,-0.2338,-0.2474,-0.2485,-0.2576,-0.2854,-0.2675,-0.2496,-0.2502,-0.2591,-0.2591,-0.2322,-0.2411,-0.25,-0.25,-0.4022,-0.5099,-0.5099,-0.5099,-0.5191,-0.5371,-0.546,-0.5552,-0.5822,-0.5822,-0.5822,-0.5822,-0.5822,-0.5822,-0.5822,-0.5822,-0.5911,-0.5997,-0.5997,-0.5997,-0.5997,-0.5997,-0.5997,-0.5997,-0.5997,-0.5997,-0.5997,-0.5997,-0.6526,-0.7139,-0.6349,-0.6786,-0.7837,-0.7749,-0.7404,-0.6969,0.0,0.0,0.0,0.0,0.0,0.0,0.0,0.0,0.0,1.339,1.3375,1.3222,1.2592,1.2305,1.1957,1.1614,1.2043,1.2154,1.1797,1.2319,1.2596,1.2596,1.2699,1.2225,1.1343,1.1257,1.0646,0.9343,0.9352,0.91,0.8761,0.8761,0.8761,0.8761,0.8503,0.8063,0.753,0.7267,0.648,0.5513,0.5073,0.4725,0.438,0.3578,0.2681,0.1782,0.0618,0.0264,0.0,0.0264,0.0264,0.0264,0.0268,0.0533,0.07,0.034,0.0505,0.084,0.0834,0.0998,0.1169,0.128,0.0858,0.0345,0.0613,0.0175,-0.0349,-0.0357,-0.0537,-0.0716,-0.0806,-0.0806,-0.0806,-0.0626,-0.1073,-0.1341,-0.1164,-0.161,-0.1878,-0.1699,-0.2413,-0.304,-0.3306,-0.3844,-0.4024,-0.3486,-0.4652,-0.5191,-0.465,-0.5282,-0.5733,-0.5733,-0.5733,-0.5733,-0.5733,-0.5733,-0.5733,-0.5733,-0.5733,-0.5733,-0.5733,-0.5733,-0.5733,-0.5733,-0.5733,-0.5733,-0.5733,-0.5733,-0.5908,-0.626,-0.5822,-0.5997,-0.6435,-0.6612,-0.6704,-0.6792,0.0,0.0,0.0,0.0,0.0,0.0,0.0,0.0,0.0,0.0,1.4378,1.4091,1.3317,1.3039,1.2973,1.3039,1.3459,1.3726,1.3967,1.4476,1.4809,1.4894,1.4901,1.4545,1.3678,1.3678,1.3159,1.2122,1.214,1.1969,1.1616,1.1616,1.1616,1.1616,1.153,1.0919,1.0048,0.9962,0.9,0.7526,0.7001,0.6398,0.5708,0.4912,0.463,0.4421,0.2442,0.1823,0.1735,0.1467,0.1378,0.1382,0.1404,0.1396,0.1373,0.1343,0.1329,0.1329,0.1358,0.1272,0.1101,0.1383,0.1135,0.0965,0.1315,0.1228,0.1058,0.1073,0.0987,0.0807,0.0718,0.0628,0.0628,0.0807,0.0269,-0.009,0.009,-0.0448,-0.0808,-0.0632,-0.0632,-0.0724,-0.1091,-0.2251,-0.2683,-0.2055,-0.3576,-0.4204,-0.3571,-0.4385,-0.4926,-0.4926,-0.4926,-0.4926,-0.4926,-0.4926,-0.4926,-0.4926,-0.4926,-0.4926,-0.4926,-0.4926,-0.4926,-0.4926,-0.4926,-0.4926,-0.4926,-0.4926,-0.4926,-0.4926,-0.4926,-0.4926,-0.4926,-0.5191,-0.5813,-0.6615,0.0,0.0,0.0,0.0,0.0,0.0,0.0,0.0,0.0,0.0,0.0,0.0,0.0,1.3317,1.3039,1.3462,1.3404,1.3641,1.4414,1.4743,1.5065,1.5379,1.5394,1.5144,1.465,1.465,1.4894,1.522,1.522,1.5455,1.5831,1.5831,1.5831,1.5749,1.4885,1.3968,1.3062,1.2184,1.1262,1.0346,0.8499,0.8162,0.8448,0.562,0.4939,0.5198,0.3381,0.2777,0.2594,0.1612,0.1265,0.1265,0.1266,0.1266,0.1343,0.1313,0.1283,0.1266,0.1297,0.1326,0.127,0.1383,0.1412,0.1344,0.1433,0.1254,0.1076,0.1076,0.1076,0.0987,0.0718,0.0897,0.1076,0.1076,0.1076,0.1076,0.1345,0.1345,0.1355,0.1384,0.1387,0.1398,0.1425,-0.0367,-0.1522,-0.179,-0.2059,-0.2326,-0.2502,-0.2864,-0.2956,-0.2956,-0.2956,-0.2956,-0.2956,-0.2956,-0.2956,-0.2956,-0.2956,-0.2956,-0.2956,-0.2956,-0.2956,-0.2956,-0.2956,-0.2956,-0.2956,-0.2956,-0.2956,-0.2956,-0.2956,-0.2956,-0.2956,-0.2956,-0.4295,-0.6083,0.0,0.0,0.0,0.0,0.0,0.0,0.0,0.0,0.0,0.0,0.0,0.0,0.0,0.0,0.0,0.0,1.6134,1.6409,1.6759,1.736,1.7769,1.79,1.8232,1.8292,1.8123,1.8123,1.8026,1.7679,1.7679,1.7582,1.7243,1.6782,1.6635,1.6545,1.607,1.5666,1.5343,1.4511,1.3665,1.2735,1.1541,1.0778,1.0077,0.8213,0.7539,0.73,0.0,0.3981,0.3397,0.3044,0.2954,0.2962,0.2925,0.299,0.2941,0.2951,0.3028,0.3062,0.3052,0.2702,0.2331,0.2381,0.1873,0.1436,0.1436,0.1345,0.1256,0.1256,0.1166,0.1076,0.1166,0.1166,0.1171,0.1371,0.1373,0.138,0.1493,0.1495,0.1499,0.151,0.151,0.1515,0.1525,0.0377,-0.0187,0.0373,-0.1026,-0.1679,-0.1304,-0.2142,-0.2703,-0.2889,-0.2889,-0.2871,-0.2922,-0.2922,-0.2905,-0.2867,-0.2867,-0.2867,-0.2867,-0.2867,-0.2867,-0.2867,-0.2867,-0.2867,-0.2867,-0.2867,-0.2867,-0.2867,-0.2867,-0.2867,-0.2867,-0.2867,-0.3314,-0.3939,0.0,0.0,0.0,0.0,0.0,0.0,0.0,0.0,0.0,0.0,0.0,0.0,0.0,0.0,0.0,0.0,0.0,1.7727,1.8161,1.8667,1.9039,1.9192,1.9459,1.9526,1.9363,1.9363,1.9268,1.9,1.9149,1.9058,1.8806,1.8567,1.8399,1.8399,1.7954,1.7568,1.7245,1.6609,1.5711,1.4689,1.3464,1.2392,1.1271,0.9878,0.9045,0.0,0.6771,0.5707,0.4952,0.4079,0.376,0.377,0.3826,0.3806,0.3834,0.3889,0.3924,0.3997,0.4038,0.3685,0.3311,0.3383,0.2953,0.2417,0.2417,0.2417,0.2329,0.1972,0.1792,0.1704,0.1436,0.1353,0.1273,0.1463,0.1474,0.1487,0.1507,0.151,0.1518,0.154,0.1542,0.1547,0.1558,0.0974,0.0871,0.1432,0.019,-0.0476,-0.019,-0.0951,-0.1616,-0.1902,-0.1902,-0.189,-0.1866,-0.1866,-0.1848,-0.1903,-0.1903,-0.1895,-0.1883,-0.1883,-0.1883,-0.1883,-0.1883,-0.1883,-0.1883,-0.1883,-0.1883,-0.1883,-0.1883,-0.1883,-0.1883,-0.1883,-0.1883,-0.1973,0.0,0.0,0.0,0.0,0.0,0.0,0.0,0.0,0.0,0.0,0.0,0.0,0.0,0.0,0.0,0.0,0.0,0.0,1.8605,1.8724,1.885,1.9189,1.9228,1.901,1.8543,1.8543,1.8772,1.9238,1.9648,2.0088,2.0481,2.0979,2.1171,2.1171,2.0478,1.969,1.8885,1.8257,1.7263,1.6,1.4289,1.3139,1.2245,1.0493,0.9487,0.8918,0.804,0.7696,0.7169,0.4763,0.3912,0.3917,0.3921,0.3923,0.394,0.4112,0.4142,0.4186,0.4278,0.4327,0.4268,0.4355,0.4378,0.4289,0.4289,0.4289,0.4022,0.3133,0.2956,0.2688,0.1704,0.1551,0.1564,0.1535,0.1466,0.1486,0.1487,0.1487,0.1509,0.1567,0.1574,0.1585,0.1614,0.1617,0.1593,0.1535,0.1339,0.1052,0.0861,0.0574,0.0287,0.0,0.0,0.0,0.0,0.0,0.0,0.0,0.0,0.0,0.0,0.0,0.0,0.0,0.0,0.0,0.0,0.0,0.0,0.0,0.0,0.0,0.0,0.0,0.0,-0.0269,0.0,0.0,0.0,0.0,0.0,0.0,0.0,0.0,0.0,0.0,0.0,0.0,0.0,0.0,0.0,0.0,0.0,0.0,1.9698,2.0094,2.0339,2.0466,2.0807,2.0917,2.0765,2.0765,2.0846,2.0928,2.1055,2.1179,2.1261,2.0999,2.0834,2.0762,2.0106,1.9506,1.8845,1.8064,1.726,1.6503,1.4836,1.4002,1.3583,1.1425,1.0545,1.0234,0.8908,0.844,0.8093,0.6247,0.5695,0.5793,0.5894,0.5927,0.5933,0.597,0.605,0.6147,0.6215,0.5779,0.5326,0.5354,0.4823,0.4289,0.4289,0.4289,0.42,0.4022,0.3933,0.3844,0.3576,0.3005,0.2597,0.2623,0.2005,0.1556,0.1579,0.1582,0.1588,0.1604,0.1605,0.1609,0.1616,0.1617,0.1611,0.1595,0.1494,0.1295,0.0797,0.0697,0.0498,0.0,0.0,0.0,0.0,0.0,0.0,0.0,0.0,0.0,0.0,0.0,0.0,0.0,0.0,0.0,0.0,0.0,0.0,0.0,0.0,0.0,0.0,0.0,0.0,-0.009,0.0,0.0,0.0,0.0,0.0,0.0,0.0,0.0,0.0,0.0,0.0,0.0,0.0,0.0,0.0,0.0,0.0,0.0,0.0,2.0402,2.0544,2.0544,2.0806,2.1083,2.1397,2.1408,2.1408,2.1408,2.161,2.1517,2.1275,2.1193,2.1069,2.108,2.042,1.9837,1.9258,1.8516,1.7759,0.0,0.0,1.457,1.4111,1.2062,1.1182,1.093,0.9656,0.9066,0.8773,0.7919,0.714,0.6586,0.6675,0.6702,0.6715,0.678,0.6861,0.6943,0.7004,0.664,0.634,0.634,0.5894,0.5534,0.5534,0.5534,0.5447,0.5003,0.4914,0.4825,0.4376,0.3941,0.3652,0.366,0.327,0.3048,0.2981,0.2985,0.2996,0.302,0.3022,0.3022,0.3022,0.3022,0.3022,0.3022,0.2119,0.1415,0.101,0.0909,0.0606,0.0202,0.0101,0.0,0.0,0.0,0.0,0.0,0.0,0.0,0.0,0.0,0.0,0.0,0.0,0.0,0.0,0.0,0.0,0.0,0.0,0.0,0.0,0.0,0.0,0.0,0.0,0.0,0.0,0.0,0.0,0.0,0.0,0.0,0.0,0.0,0.0,0.0,0.0,0.0,0.0,0.0,0.0,0.0,0.0,0.0,2.0085,2.0085,2.0085,2.0388,2.106,2.1008,2.1008,2.1123,2.1419,2.1318,2.0773,2.1199,2.1396,2.1396,2.0818,2.0224,1.9574,1.9092,1.8313,1.727,1.5886,1.4879,1.4091,0.0,1.17,1.126,1.0368,0.9678,0.9271,0.9394,0.8345,0.6899,0.692,0.6843,0.6783,0.6919,0.6956,0.6983,0.7105,0.7139,0.7139,0.7139,0.7139,0.7139,0.7139,0.7139,0.6874,0.6074,0.5897,0.5628,0.4823,0.4704,0.471,0.4732,0.4771,0.4791,0.4803,0.4803,0.4835,0.4814,0.4824,0.4824,0.4824,0.4824,0.4824,0.4824,0.3124,0.1817,0.1414,0.1312,0.111,0.0808,0.0606,0.0404,0.0404,0.0404,0.0401,0.0394,0.0394,0.039,0.0383,0.0383,0.0382,0.0381,0.0468,0.0464,0.0463,0.0364,0.0361,0.0361,0.036,0.0359,0.0359,0.0359,0.0359,0.0359,0.0,0.0,0.0,0.0,0.0,0.0,0.0,0.0,0.0,0.0,2.0085,2.0085,0.0,0.0,0.0,0.0,0.0,0.0,0.0,0.0,0.0,2.0085,2.0085,2.0388,2.106,2.0571,2.0506,2.1123,2.066,2.0325,2.0205,2.0292,2.0325,2.0336,2.0259,1.9638,1.873,1.8604,1.7948,1.6939,1.6078,1.5166,1.4163,1.3077,0.0,0.0,1.1037,1.0515,0.9974,1.0199,0.9252,0.8082,0.8147,0.7672,0.7068,0.7095,0.7102,0.7109,0.7132,0.7139,0.7139,0.7139,0.7139,0.7139,0.7139,0.7139,0.7051,0.6874,0.6874,0.6786,0.6605,0.6014,0.5583,0.5746,0.5104,0.472,0.4792,0.48,0.4806,0.4822,0.4824,0.4824,0.4824,0.4824,0.4824,0.4824,0.4423,0.3723,0.262,0.332,0.3519,0.3019,0.282,0.262,0.262,0.262,0.2615,0.2607,0.2607,0.268,0.2631,0.2631,0.2608,0.2663,0.2653,0.2649,0.2645,0.25,0.2479,0.2474,0.2435,0.2419,0.2419,0.2419,0.2419,0.2419,0.0,0.0,0.0,0.0,0.0,0.0,0.0,2.0205,2.0085,2.0085,2.0085,2.0085,2.0085,2.0085,2.0085,0.0,0.0,0.0,0.0,0.0,0.0,0.0,2.0085,2.0388,2.106,2.0752,2.0764,2.1123,0.0,2.0453,2.0085,2.0085,2.0085,2.0085,2.0085,1.966,1.89,1.8643,1.8037,1.7235,1.6184,1.5401,1.4681,0.0,0.0,0.0,1.126,1.1065,1.1022,1.1221,1.06,0.98,0.9378,0.8623,0.7841,0.7841,0.7492,0.7139,0.7139,0.7139,0.7139,0.7139,0.7139,0.7139,0.7139,0.7139,0.7139,0.7139,0.7139,0.7139,0.7139,0.6812,0.6655,0.6716,0.6421,0.6274,0.6325,0.6391,0.6429,0.6429,0.6429,0.6429,0.6429,0.6429,0.6429,0.6429,0.6429,0.5727,0.3922,0.4219,0.4119,0.362,0.3521,0.3321,0.3224,0.3224,0.3224,0.3224,0.3224,0.3209,0.318,0.318,0.3165,0.3233,0.32,0.3186,0.3181,0.3119,0.3073,0.304,0.2922,0.2892,0.2867,0.2867,0.2867,0.2867,0.0,0.0,0.0,0.0,0.0,0.0,0.0,2.0388,2.0205,2.0074,2.0085,2.0085,2.0085,2.0085,2.0085,0.0,0.0,0.0,0.0,0.0,0.0,0.0,0.0,0.0,2.106,0.0,0.0,2.1123,2.0944,0.0,0.0,0.0,0.0,0.0,2.0085,1.9736,1.91,1.871,1.8104,0.0,0.0,1.5692,1.4982,0.0,0.0,0.0,0.0,1.1425,1.1848,1.1902,1.1734,1.1428,1.0692,0.9753,0.8803,0.854,0.8017,0.7316,0.7139,0.7139,0.7139,0.7139,0.7139,0.7132,0.7102,0.7119,0.7132,0.7102,0.7119,0.7139,0.7139,0.7241,0.7333,0.7366,0.7567,0.774,0.7801,0.7916,0.8004,0.8035,0.8038,0.8038,0.8038,0.8038,0.8038,0.8038,0.8038,0.7235,0.5527,0.5022,0.4622,0.4423,0.4323,0.4225,0.3927,0.3927,0.3927,0.3927,0.3927,0.3927,0.3927,0.3927,0.3927,0.3924,0.3864,0.3839,0.3932,0.3857,0.3791,0.3733,0.3608,0.3564,0.3514,0.3499,0.3494,0.3494,0.0,0.0,0.0,0.0,0.0,0.0,0.0,2.0571,2.0453,2.0151,2.0085,2.0085,2.0085,2.0085,2.0085,0.0,0.0,0.0,0.0,0.0,0.0,0.0,0.0,0.0,0.0,0.0,0.0,2.1123,2.0518,0.0,0.0,0.0,0.0,0.0,0.0,1.9528,1.8576,1.8509,0.0,0.0,0.0,0.0,0.0,0.0,0.0,0.0,0.0,1.131,1.16,1.1842,1.2032,1.2224,1.2372,1.1225,0.9575,0.8715,0.8456,0.8193,0.7316,0.7139,0.7139,0.7139,0.7139,0.7105,0.6976,0.7048,0.7102,0.6973,0.7051,0.7139,0.7139,0.7153,0.7207,0.735,0.7394,0.7506,0.7773,0.7824,0.7882,0.8024,0.8038,0.8038,0.8038,0.8038,0.8038,0.8038,0.8038,0.7939,0.7736,0.6531,0.6232,0.7241,0.6742,0.6539,0.6442,0.6237,0.6134,0.6134,0.6134,0.6134,0.6134,0.6134,0.6134,0.6134,0.6124,0.6119,0.6111,0.6002,0.605,0.6018,0.5709,0.5619,0.5598,0.5499,0.5463,0.5463,0.0,0.0,0.0,0.0,0.0,0.0,2.121,2.0892,2.0571,2.0388,2.0205,2.0085,2.0085,2.0085,2.0085,2.0085,0.0,0.0,0.0,0.0,0.0,0.0,0.0,0.0,0.0,0.0,2.0205,2.0518,2.0205,0.0,0.0,0.0,0.0,0.0,0.0,1.966,1.8967,1.8633,0.0,0.0,0.0,0.0,0.0,0.0,0.0,0.0,0.0,0.0,1.1594,1.2017,1.2228,1.2361,1.262,1.218,1.1397,1.0453,0.9753,0.9231,0.8882,0.8794,0.8794,0.8794,0.8281,0.7846,0.7781,0.7311,0.6997,0.6943,0.7041,0.7139,0.7139,0.7139,0.716,0.7221,0.7312,0.7411,0.7529,0.7699,0.7834,0.7896,0.7984,0.8038,0.8038,0.8038,0.8038,0.8038,0.8038,0.8038,0.8038,0.7537,0.7338,0.7547,0.7347,0.7144,0.6845,0.6742,0.6539,0.6437,0.6437,0.6437,0.6437,0.6437,0.6437,0.6437,0.6437,0.6437,0.6434,0.6388,0.6331,0.626,0.6162,0.6078,0.5999,0.588,0.5836,0.5825,0.0,0.0,0.0,0.0,0.0,2.1411,2.1537,2.1083,2.07,2.0635,2.0324,2.0085,2.0085,2.0085,2.0085,2.0085,2.0085,0.0,0.0,0.0,0.0,0.0,0.0,0.0,0.0,0.0,2.0085,2.0085,2.0085,2.0085,0.0,0.0,2.0085,2.0074,0.0,0.0,0.0,0.0,0.0,0.0,0.0,0.0,0.0,0.0,0.0,0.0,0.0,0.0,0.0,0.0,0.0,1.2457,1.2644,1.2705,1.2528,1.1585,1.0799,1.0269,1.0009,0.9923,0.9923,0.9923,0.913,0.8337,0.8284,0.7636,0.698,0.6939,0.7041,0.7139,0.7139,0.7139,0.7139,0.7139,0.7231,0.7319,0.7363,0.755,0.7712,0.7801,0.7906,0.7991,0.8035,0.8038,0.8038,0.8038,0.8038,0.8038,0.8038,0.8038,0.7942,0.7746,0.7543,0.7344,0.6942,0.6742,0.6539,0.6437,0.6437,0.6437,0.6437,0.6437,0.6437,0.6437,0.6437,0.6437,0.6437,0.6437,0.6391,0.6314,0.6282,0.6217,0.6124,0.6002,0.5934,0.589,0.0,0.0,0.0,0.0,0.0,0.0,2.1296,2.1221,2.1031,2.0635,2.0324,2.0085,2.0085,2.0085,2.0085,2.0085,2.0085,0.0,0.0,0.0,0.0,0.0,0.0,0.0,0.0,0.0,2.0085,2.0085,2.0085,2.0085,2.0085,2.0085,2.0085,2.0074,0.0,0.0,0.0,0.0,0.0,0.0,0.0,0.0,0.0,0.0,0.0,0.0,0.0,0.0,0.0,0.0,0.0,0.0,0.0,1.2705,1.2528,1.1585,1.1322,1.1063,1.0188,0.9923,0.9923,0.9923,0.9231,0.8491,0.8312,0.7718,0.7099,0.6956,0.7041,0.7139,0.7139,0.7139,0.7139,0.7139,0.7143,0.7197,0.735,0.7373,0.7485,0.7777,0.7814,0.7872,0.8024,0.8038,0.8038,0.8038,0.8038,0.8038,0.8038,0.8038,0.8038,0.8038,0.7437,0.7238,0.7238,0.6637,0.6437,0.6437,0.6437,0.6437,0.6437,0.6437,0.6437,0.6437,0.6437,0.6437,0.6437,0.6437,0.6437,0.6423,0.6312,0.6268,0.6252,0.613,0.6007,0.5904,0.0,0.0,0.0,0.0,0.0,0.0,0.0,2.1537,2.14,2.1031,2.0711,2.0324,2.014,2.0085,2.0085,2.0085,2.0085,0.0,0.0,0.0,0.0,0.0,0.0,0.0,0.0,0.0,2.0085,2.0085,2.0085,2.0085,2.0085,2.0085,1.9868,1.9518,1.9375,1.8767,0.0,0.0,0.0,0.0,0.0,0.0,1.4378,0.0,0.0,0.0,0.0,0.0,0.0,0.0,0.0,0.0,0.0,0.0,0.0,1.2357,1.2272,1.2186,1.1918,1.1832,1.1832,1.1832,1.0595,0.928,0.9301,0.8068,0.6983,0.6939,0.7041,0.7139,0.7139,0.7139,0.7139,0.7139,0.7139,0.7156,0.7207,0.7394,0.7563,0.7655,0.7845,0.7987,0.8035,0.8038,0.8038,0.8038,0.8038,0.8038,0.8038,0.8038,0.8038,0.8038,0.7839,0.7537,0.7238,0.7036,0.6736,0.6437,0.6437,0.6437,0.6437,0.6437,0.6437,0.6437,0.6437,0.6437,0.6437,0.6437,0.6437,0.6431,0.6396,0.6382,0.6369,0.6252,0.6187,0.613,0.0,0.0,0.0,0.0,0.0,0.0,0.0,2.1588,2.1463,2.1411,2.0955,2.0506,2.0324,2.0205,2.0085,2.0085,2.0085,0.0,0.0,0.0,0.0,0.0,0.0,0.0,2.0085,2.0085,2.0085,2.0085,2.0085,2.0085,2.0085,2.0085,1.9791,1.9299,1.91,1.8499,0.0,0.0,0.0,0.0,0.0,0.0,1.4378,0.0,0.0,0.0,0.0,0.0,0.0,0.0,0.0,0.0,0.0,0.0,0.0,0.0,1.2705,1.2705,1.2705,1.2705,1.2705,1.2705,1.147,1.0169,0.9828,0.8888,0.7865,0.7094,0.7341,0.7492,0.7139,0.7139,0.7139,0.7139,0.7139,0.716,0.7217,0.7394,0.7553,0.7665,0.7892,0.8038,0.8038,0.8038,0.8038,0.8038,0.8038,0.8038,0.8038,0.8038,0.8038,0.8038,0.7942,0.7643,0.7341,0.7141,0.6839,0.6539,0.6437,0.6437,0.6437,0.6437,0.6437,0.6437,0.6437,0.6437,0.0,0.6437,0.6437,0.6437,0.6437,0.6437,0.6429,0.6358,0.6306,0.6246,0.0,0.0,0.0,0.0,0.0,0.0,0.0,2.1474,2.1348,2.1651,2.1083,2.0635,2.0646,2.0324,2.0151,2.0085,0.0,0.0,0.0,0.0,0.0,0.0,0.0,0.0,2.0085,2.0085,2.0085,2.0085,2.0085,2.0074,2.0009,2.0009,1.9736,1.9166,1.8643,1.8172,0.0,0.0,0.0,0.0,0.0,0.0,0.0,0.0,0.0,0.0,0.0,0.0,0.0,0.0,0.0,0.0,0.0,0.0,0.0,0.0,0.0,0.0,0.0,1.2705,1.2705,1.2705,1.2015,1.1063,1.0188,0.9923,0.0,0.7661,0.8017,0.8364,0.7489,0.7312,0.7312,0.7312,0.7312,0.7371,0.744,0.7478,0.7595,0.7873,0.814,0.823,0.8219,0.823,0.8233,0.8233,0.8233,0.8233,0.8233,0.8233,0.8237,0.8137,0.7939,0.7743,0.7646,0.7144,0.6845,0.6845,0.6539,0.6437,0.6437,0.6437,0.6437,0.6437,0.6437,0.6437,0.6437,0.6437,0.6437,0.6437,0.6437,0.6437,0.6437,0.6437,0.6372,0.6279,0.0,0.0,0.0,0.0,0.0,0.0,0.0,0.0,0.0,0.0,2.1526,2.121,2.0635,2.0518,2.0388,0.0,0.0,0.0,0.0,0.0,0.0,0.0,0.0,0.0,2.0085,2.0085,2.0085,2.0085,2.0085,1.9868,1.9518,1.9518,1.8977,1.8037,1.7969,1.7569,0.0,0.0,0.0,0.0,0.0,0.0,0.0,0.0,0.0,0.0,1.1603,1.1612,0.0,0.0,0.0,0.0,0.0,0.0,0.0,0.0,1.2705,1.2705,1.2705,0.0,1.2705,1.2705,1.2015,1.1235,0.0,1.0448,0.9749,0.9314,0.9405,0.9492,0.9314,0.9226,0.9226,0.9226,0.9226,0.9033,0.8509,0.8765,0.8961,0.8856,0.979,1.0334,1.0189,1.0303,1.0489,1.0489,1.0489,1.0489,1.0489,1.0489,1.0096,0.9217,0.9998,0.9509,0.7646,0.7447,0.7244,0.6845,0.6742,0.6639,0.6437,0.6437,0.6437,0.6437,0.6437,0.6437,0.6437,0.6437,0.6437,0.6437,0.6437,0.6437,0.6437,0.6437,0.642,0.6385,0.0,0.0,0.0,0.0,0.0,0.0,0.0,0.0,0.0,0.0,0.0,0.0,0.0,0.0,0.0,0.0,0.0,0.0,0.0,0.0,0.0,0.0,0.0,2.0085,2.0085,2.0085,2.0085,2.0085,2.0085,1.9802,1.9299,1.9299,1.871,1.7706,1.7442,1.7176,0.0,0.0,0.0,0.0,1.6342,0.0,0.0,0.0,0.0,0.0,1.1507,1.1496,0.0,1.1697,1.1999,1.2312,0.0,0.0,0.0,0.0,1.2705,1.2705,1.2705,1.2705,1.2674,1.2554,1.219,1.1809,1.1277,1.1155,1.0966,1.0096,1.0274,1.0448,1.0009,1.0003,1.0041,0.9941,1.0088,1.0164,0.9726,0.9744,0.991,0.9905,1.0578,1.1023,1.1009,1.1104,1.117,1.117,1.117,1.117,1.117,1.117,1.0979,1.0391,1.0881,1.0096,0.7842,0.8627,0.8524,0.7537,0.7932,0.7928,0.7531,0.7531,0.7531,0.7531,0.7531,0.7531,0.7531,0.7531,0.7531,0.7531,0.7531,0.7531,0.7531,0.7531,0.7531,0.7521,0.0,0.0,0.0,0.0,0.0,0.0,0.0,0.0,0.0,0.0,0.0,0.0,0.0,0.0,0.0,0.0,0.0,0.0,0.0,0.0,0.0,0.0,2.0009,2.0009,2.0009,1.9878,1.9878,1.9878,1.9878,1.9594,1.9034,1.9034,1.8499,1.7579,1.7107,1.6908,0.0,0.0,0.0,0.0,1.57,0.0,0.0,0.0,0.0,0.0,0.0,0.0,0.0,1.1516,1.1854,1.2264,1.23,0.0,0.0,0.0,0.0,0.0,1.2656,1.2674,1.2644,1.2379,1.2481,1.233,1.1355,1.1922,1.2266,1.0702,1.0971,1.1246,1.0492,1.0539,1.0598,1.0435,1.0661,1.0842,1.0871,1.0817,1.0801,1.1038,1.1177,1.1446,1.1594,1.1643,1.1658,1.1658,1.1658,1.1658,1.1658,1.1658,1.156,1.1463,1.156,1.0685,0.8528,1.0096,1.0194,0.8726,0.941,0.941,0.892,0.8825,0.8825,0.8825,0.8825,0.8825,0.8825,0.8825,0.8825,0.8825,0.8825,0.8825,0.8825,0.8825,0.8825,0.8825,0.0,0.0,0.0,0.0,0.0,0.0,0.0,0.0,0.0,0.0,0.0,0.0,0.0,0.0,0.0,0.0,0.0,0.0,0.0,0.0,0.0,1.942,1.9441,1.9441,1.9441,1.8977,1.8777,1.8777,1.8777,1.8442,1.7978,1.7978,1.7638,1.7047,1.6908,1.6908,1.6908,0.0,0.0,0.0,1.6053,0.0,0.0,0.0,0.0,0.0,0.0,0.0,0.0,1.1449,1.1733,1.2023,1.2246,0.0,0.0,0.0,0.0,0.0,1.2433,1.2536,1.2644,1.2379,1.2343,1.2278,1.2153,1.2428,1.2619,1.2351,1.2357,1.2519,1.2569,1.2458,1.2388,1.2581,1.213,1.182,1.2015,1.221,1.2273,1.2115,1.3037,1.3683,1.3502,1.3683,1.3806,1.3806,1.3806,1.3806,1.3806,1.3806,1.3414,1.2533,1.3318,1.2829,1.0685,1.0974,1.0877,1.0391,1.0096,0.9805,0.9509,0.9019,0.8825,0.8825,0.8825,0.8825,0.8825,0.8825,0.8825,0.8825,0.8825,0.8825,0.8825,0.8825,0.8825,0.8924,0.0,0.0,0.0,0.0,0.0,0.0,0.0,0.0,0.0,0.0,0.0,0.0,0.0,0.0,0.0,0.0,0.0,0.0,0.0,0.0,1.8903,1.8726,1.8655,1.8654,1.8834,1.8721,1.8586,1.8509,1.8586,1.8317,1.7706,1.7373,1.7176,1.6908,1.6908,1.6908,1.6908,1.6473,1.6333,0.0,0.0,0.0,0.0,0.0,0.0,0.0,0.0,0.0,0.0,0.0,1.1703,1.1968,1.2234,0.0,0.0,0.0,0.0,0.0,1.2385,1.2294,1.2252,1.2131,1.2318,1.2487,1.2343,1.2632,1.2886,1.2735,1.2825,1.297,1.3103,1.3133,1.3278,1.3688,1.3152,1.286,1.3111,1.3128,1.3122,1.314,1.3726,1.4093,1.4117,1.4226,1.4298,1.4298,1.4298,1.4298,1.4298,1.4298,1.41,1.3607,1.4004,1.3806,1.2834,1.2834,1.2344,1.1468,1.1765,1.1575,1.089,1.0596,1.04,1.0109,1.0109,1.0109,1.0109,1.0109,1.0109,1.0109,1.0109,1.0109,1.0109,1.0109,1.0109,1.0109,0.0,0.0,0.0,0.0,0.0,0.0,0.0,0.0,0.0,0.0,0.0,0.0,0.0,0.0,0.0,0.0,0.0,0.0,0.0,1.7574,1.813,1.8039,1.8088,1.8259,1.8385,1.8327,1.8259,1.8104,1.8259,1.8056,1.7501,1.7107,1.6908,1.6908,1.6691,1.6621,1.6621,1.5833,1.5542,0.0,0.0,0.0,0.0,0.0,0.0,0.0,0.0,0.0,0.0,0.0,0.0,0.0,0.0,0.0,0.0,1.2705,1.2662,1.2554,1.2294,1.2077,1.1908,1.1848,1.218,1.2487,1.2343,1.2735,1.3061,1.285,1.3025,1.3218,1.3218,1.3381,1.3646,1.4051,1.3827,1.3701,1.396,1.3827,1.3773,1.3972,1.3996,1.4075,1.428,1.4298,1.4298,1.4298,1.4298,1.4298,1.4298,1.4298,1.4298,1.4298,1.4298,1.4298,1.4298,1.4298,1.3709,1.2538,1.3238,1.3055,1.237,1.2273,1.1883,1.1389,1.1389,1.1292,1.1194,1.1194,1.1194,1.1194,1.1194,1.1194,1.1194,1.1194,1.1194,1.1194,0.0,0.0,0.0,0.0,0.0,0.0,0.0,0.0,0.0,0.0,0.0,0.0,0.0,0.0,0.0,0.0,0.0,0.0,0.0,1.7532,1.7864,1.7445,1.8268,1.8519,1.8076,1.7382,1.7038,1.7047,1.7038,1.7047,1.6968,1.6908,1.6908,1.6908,1.6193,1.5903,1.5833,1.5037,1.4673,1.4609,1.3818,0.0,0.0,0.0,0.0,0.0,0.0,0.0,0.0,0.0,0.0,0.0,0.0,0.0,1.2705,1.2705,1.253,1.2282,1.2023,1.1932,1.1866,1.1618,1.1769,1.2035,1.2264,1.2735,1.3115,1.3097,1.3302,1.3483,1.3483,1.3501,1.3525,1.3562,1.3743,1.3966,1.4232,1.425,1.425,1.4268,1.4268,1.428,1.4292,1.4298,1.4298,1.4298,1.4298,1.4298,1.4298,1.4298,1.4298,1.4298,1.4298,1.4298,1.4298,1.4298,1.4196,1.4106,1.3727,1.3443,1.3346,1.2958,1.2467,1.1975,1.1975,1.1688,1.1194,1.1194,1.1194,1.1194,1.1194,1.1194,1.1194,1.1194,1.1194,1.1194,0.0,0.0,0.0,0.0,0.0,0.0,0.0,0.0,0.0,0.0,0.0,0.0,0.0,0.0,0.0,0.0,0.0,0.0,0.0,1.6503,1.6967,1.6677,1.7484,1.793,1.7666,1.7401,1.7185,1.7107,1.7107,1.7107,1.7107,1.6968,1.6691,1.6333,1.5974,1.5542,1.5037,1.425,1.389,1.3818,1.3098,0.0,0.0,0.0,0.0,0.0,0.0,0.0,0.0,0.0,1.1834,1.1884,1.2388,1.2382,1.2216,1.238,1.2231,1.2011,1.1751,1.1799,1.1902,1.1799,1.1968,1.2192,1.2288,1.2856,1.3272,1.2934,1.3338,1.3707,1.3544,1.3779,1.3948,1.3785,1.3978,1.4183,1.4286,1.4298,1.4298,1.4298,1.4298,1.4298,1.4298,1.4298,1.4298,1.4298,1.4298,1.4298,1.4298,1.4298,1.4298,1.4298,1.4298,1.4298,1.4298,1.4298,1.4298,1.4298,1.4106,1.3823,1.3443,1.3346,1.2759,1.198,1.237,1.198,1.1194,1.1585,1.1487,1.1194,1.1194,1.1194,1.1194,1.1194,1.1194,1.1194,0.0,0.0,0.0,0.0,0.0,0.0,0.0,0.0,0.0,0.0,0.0,0.0,0.0,0.0,0.0,0.0,0.0,0.0,1.5021,1.5823,1.6341,1.64,1.7149,1.7529,1.747,1.7529,1.7451,1.7166,1.6959,1.6811,1.6751,1.6394,1.5965,1.5542,1.5188,1.4752,1.4171,1.3462,1.3098,1.3098,1.2519,1.2305,0.0,0.0,0.0,0.0,0.0,0.0,0.0,0.0,1.1916,1.1952,1.2374,1.2251,1.208,1.216,1.208,1.1964,1.1703,1.1727,1.1817,1.1902,1.2059,1.221,1.2294,1.2934,1.3411,1.3037,1.3465,1.3851,1.367,1.393,1.4117,1.3936,1.4129,1.4298,1.4298,1.4298,1.4298,1.4298,1.4298,1.4298,1.4298,1.4298,1.4298,1.4298,1.4298,1.4298,1.4298,1.4298,1.4298,1.4298,1.4298,1.4298,1.4298,1.4298,1.4298,1.4298,1.4298,1.4106,1.3732,1.3732,1.3244,1.2467,1.2662,1.2273,1.1487,1.1683,1.1492,1.1194,1.1194,1.1194,1.1194,1.1194,1.1194,1.1194,0.0,0.0,0.0,0.0,0.0,0.0,0.0,0.0,0.0,0.0,0.0,0.0,0.0,0.0,0.0,0.0,0.0,0.0,1.5557,1.5858,1.6225,1.6845,1.7359,1.7579,1.747,1.7579,1.7501,1.7166,1.6394,1.5903,1.5762,1.4966,1.4601,1.453,1.3818,1.3535,1.3462,1.2666,1.2305,1.2305,1.2305,1.2305,1.2305,0.0,0.0,0.0,0.0,0.0,0.0,0.0,1.2054,1.2145,1.2376,1.2414,1.2473,1.2234,1.2154,1.2154,1.1914,1.1727,1.1594,1.186,1.1926,1.1999,1.2258,1.2934,1.3513,1.3519,1.3725,1.3906,1.3906,1.3912,1.3912,1.3906,1.4129,1.4298,1.4298,1.4298,1.4298,1.4298,1.4298,1.4298,1.4298,1.4298,1.4298,1.4298,1.4298,1.4298,1.4292,1.4292,1.4292,1.4292,1.4292,1.4292,1.4292,1.4292,1.4292,1.4292,1.4298,1.4298,1.4298,1.4298,1.4016,1.3443,1.3055,1.2467,1.198,1.1389,1.1198,1.1194,1.1194,1.1194,1.1194,1.1194,1.1194,1.1194,0.0,0.0,0.0,0.0,0.0,0.0,0.0,0.0,0.0,0.0,0.0,0.0,0.0,0.0,0.0,0.0,0.0,0.0,1.471,1.4731,1.4861,1.524,1.5696,1.5965,1.6105,1.6097,1.6524,1.7166,1.6524,1.6167,1.6097,1.51,1.4466,1.4186,1.3673,1.3171,1.2666,1.2372,1.2305,1.2305,1.2305,1.2305,1.2305,0.0,0.0,0.0,0.0,0.0,0.0,0.0,0.0,0.0,1.2289,1.2123,1.1961,1.1885,1.1733,1.1581,1.1429,1.1576,1.1823,1.1902,1.2198,1.2493,1.2572,1.3073,1.3622,1.3984,1.3978,1.3906,1.3906,1.4057,1.4123,1.3936,1.4129,1.4298,1.4298,1.4298,1.4298,1.4298,1.4298,1.4298,1.4298,1.4298,1.4298,1.4298,1.4298,1.4214,1.4032,1.402,1.3936,1.3755,1.3749,1.3749,1.3749,1.393,1.402,1.402,1.4208,1.4298,1.4298,1.4298,1.4016,1.3539,1.3727,1.3335,1.2565,1.237,1.237,1.2273,1.1878,1.198,1.2273,1.1878,1.178,1.178,0.0,0.0,0.0,0.0,0.0,0.0,0.0,0.0,0.0,0.0,1.4638,0.0,0.0,0.0,0.0,0.0,0.0,0.0,0.0,1.3949,1.4122,1.461,1.4998,1.5267,1.5534,1.5534,1.5824,1.6394,1.5824,1.5463,1.5392,1.4394,1.3753,1.3462,1.3244,1.2813,1.2305,1.2305,1.2305,1.2305,1.2305,1.2305,1.2305,0.0,0.0,0.0,0.0,0.0,0.0,0.0,0.0,0.0,1.2224,1.2157,1.1955,1.2003,1.1884,1.1702,1.1766,1.183,1.1968,1.218,1.2391,1.2608,1.2819,1.3206,1.3634,1.4057,1.4099,1.4063,1.4063,1.4189,1.4244,1.4087,1.4189,1.4298,1.4298,1.4298,1.4298,1.4298,1.4298,1.4298,1.4298,1.4201,1.4141,1.4141,1.4045,1.3918,1.3761,1.3749,1.3676,1.3519,1.3513,1.3513,1.3513,1.367,1.3749,1.3755,1.3912,1.3984,1.3996,1.4201,1.4106,1.3823,1.3919,1.3534,1.2764,1.2764,1.2764,1.2764,1.2467,1.2565,1.2764,1.2467,1.2273,1.2273,0.0,0.0,0.0,0.0,0.0,0.0,0.0,0.0,0.0,0.0,1.3511,1.3511,0.0,0.0,0.0,0.0,0.0,0.0,0.0,1.3459,1.3743,1.4514,1.4866,1.5125,1.5321,1.5321,1.5259,1.5062,1.4553,1.4274,1.4129,1.3258,1.282,1.2599,1.2599,1.2526,1.2305,1.2305,1.2305,1.2305,1.2305,1.2305,1.2305,1.2305,0.0,0.0,0.0,0.0,0.0,0.0,0.0,0.0,1.2305,1.2305,1.2284,1.2418,1.2286,1.2182,1.2525,1.2351,1.2071,1.2548,1.2506,1.2475,1.297,1.329,1.3556,1.3815,1.4081,1.4262,1.4262,1.428,1.4298,1.4298,1.4298,1.4286,1.4262,1.4262,1.425,1.4226,1.4226,1.4226,1.4226,1.4008,1.387,1.387,1.3646,1.3507,1.3477,1.3477,1.3465,1.3441,1.3441,1.3441,1.3441,1.3465,1.3477,1.3477,1.3501,1.3513,1.3532,1.4032,1.4274,1.4298,1.3823,1.3346,1.2953,1.2953,1.2953,1.2958,1.2856,1.2861,1.2958,1.2861,1.2861,1.2759,0.0,0.0,0.0,0.0,0.0,0.0,0.0,0.0,0.0,0.0,0.0,0.0,0.0,0.0,0.0,0.0,0.0,0.0,0.0,1.2527,1.2491,1.3266,1.3513,1.3702,1.392,1.3912,1.392,1.3855,1.4129,1.4274,1.4274,1.3331,1.29,1.282,1.2673,1.2526,1.2305,1.2305,1.2305,1.2305,1.2305,1.2305,1.2305,1.2305,1.2305,0.0,0.0,0.0,0.0,0.0,0.0,0.0,1.2305,1.2305,1.2238,1.2155,1.2277,1.2415,1.2304,1.2529,1.2757,1.2711,1.2679,1.265,1.2771,1.3006,1.3284,1.3544,1.3809,1.399,1.399,1.4159,1.4298,1.4298,1.4298,1.4226,1.402,1.399,1.3912,1.3707,1.3682,1.3682,1.3682,1.3634,1.3598,1.3598,1.355,1.3423,1.3218,1.3212,1.3103,1.2886,1.288,1.288,1.288,1.3097,1.3212,1.3212,1.3417,1.3513,1.3525,1.3845,1.4099,1.4298,1.4202,1.4106,1.401,1.401,1.401,1.3913,1.3534,1.363,1.3913,1.3534,1.3346,1.3437,0.0,0.0,0.0,0.0,0.0,0.0,0.0,0.0,0.0,0.0,0.0,0.0,0.0,0.0,0.0,0.0,0.0,0.0,0.0,0.0,1.2186,1.3018,1.3119,1.3273,1.3346,1.3419,1.3419,1.3346,1.3702,1.392,1.392,1.3411,1.3046,1.29,1.2826,1.2599,1.2305,1.2305,1.2305,1.2305,1.2305,1.2305,1.2305,1.2305,1.2305,1.2305,1.2305,0.0,0.0,0.0,0.0,0.0,0.0,0.0,1.2331,1.2397,1.2306,1.2335,1.2602,1.2747,1.2851,1.2868,1.2862,1.2875,1.2705,1.2819,1.2964,1.3097,1.3441,1.3719,1.3719,1.3833,1.3924,1.3924,1.3924,1.3876,1.3737,1.3719,1.367,1.3532,1.3513,1.3513,1.3513,1.3399,1.3332,1.3332,1.3206,1.3067,1.2928,1.2922,1.2856,1.2705,1.2705,1.2705,1.2705,1.285,1.2922,1.2922,1.3061,1.3194,1.3338,1.3598,1.3857,1.4111,1.4111,1.4177,1.4298,1.4298,1.4298,1.4298,1.4016,1.401,1.4298,1.4394,1.4394,1.4484,0.0,0.0,0.0,0.0,0.0,0.0,0.0,0.0,0.0,0.0,0.0,0.0,0.0,0.0,0.0,0.0,0.0,0.0,0.0,0.0,0.0,1.2952,1.2973,1.3046,1.3273,1.3419,1.3419,1.3273,1.3419,1.3492,1.3492,1.3492,1.3273,1.2973,1.29,1.2673,1.2378,1.2305,1.2305,1.2305,1.2305,1.2305,1.2305,1.2305,1.2305,1.2305,1.2305,1.2305,1.2305,1.2305,0.0,0.0,0.0,0.0,1.2351,1.2599,1.2457,1.2313,1.3041,1.2985,1.2762,1.3096,1.3137,1.3052,1.279,1.2705,1.2705,1.2705,1.3097,1.3447,1.3447,1.3483,1.3513,1.3513,1.3513,1.3501,1.3453,1.3447,1.3429,1.3381,1.3375,1.3375,1.3375,1.3181,1.3055,1.3055,1.2837,1.2705,1.2705,1.2705,1.2705,1.2705,1.2705,1.2705,1.2705,1.2705,1.2705,1.2705,1.2705,1.2825,1.3061,1.3272,1.3544,1.3839,1.3839,1.3984,1.4226,1.4226,1.4351,1.4484,1.4484,1.458,1.4777,1.5343,1.5629,1.5629,0.0,0.0,0.0,0.0,0.0,0.0,0.0,0.0,0.0,0.0,1.156,1.1498,0.0,0.0,0.0,0.0,0.0,0.0,1.1019,0.0,0.0,1.2137,1.2157,1.2599,1.3419,1.3492,1.3492,1.3492,1.3492,1.3492,1.3492,1.3492,1.3346,1.3127,1.2973,1.2746,1.2526,1.2378,1.2305,1.2305,1.2305,1.2305,1.2305,1.2305,1.2305,1.2305,1.2305,1.2305,1.2305,1.2305,1.2305,0.0,0.0,0.0,1.2311,1.2351,1.2512,1.2712,1.2832,1.3061,1.3251,1.3574,1.3392,1.3052,1.3052,1.2881,1.2705,1.2705,1.2958,1.3175,1.3175,1.3363,1.3513,1.3513,1.3513,1.3435,1.3212,1.3175,1.3085,1.2837,1.2813,1.2813,1.2813,1.2783,1.2759,1.2759,1.2729,1.2705,1.2705,1.2705,1.2705,1.2705,1.2705,1.2705,1.2705,1.2705,1.2705,1.2705,1.2705,1.2723,1.2759,1.2795,1.3085,1.3568,1.3568,1.3719,1.396,1.396,1.4465,1.5242,1.5242,1.5724,1.6298,1.6393,1.6487,1.6581,0.0,0.0,0.0,0.0,0.0,0.0,0.0,0.0,0.0,0.0,0.0,1.0288,0.0,0.0,0.0,1.0281,1.0098,1.0084,1.0422,1.0335,1.0527,1.1307,1.1323,1.1558,1.215,1.2157,1.2157,1.2157,1.2157,1.2157,1.215,1.2599,1.2973,1.3193,1.2973,1.2826,1.2599,1.2378,1.2305,1.2305,1.2305,1.2405,1.2532,1.2365,1.2405,1.2525,1.2365,1.2305,1.2305,1.2305,1.2305,1.2305,1.2305,0.0,0.0,0.0,1.2392,1.2716,1.3516,1.3929,1.4342,1.5051,1.5039,1.4873,1.4468,1.4307,1.4132,1.3886,1.3907,1.3748,1.2972,1.2982,1.3061,1.3061,1.3061,1.3019,1.2904,1.2886,1.2843,1.2717,1.2705,1.2705,1.2705,1.2705,1.2705,1.2705,1.2705,1.2705,1.2705,1.2705,1.2705,1.2705,1.2705,1.2705,1.2705,1.2705,1.2705,1.2705,1.2705,1.2705,1.2705,1.313,1.3269,1.3296,1.3296,1.3621,1.4239,1.4396,1.4993,1.5771,1.594,1.6298,1.6676,1.7044,1.7232,1.7326,0.0,0.0,0.0,0.0,0.0,0.0,0.0,0.0,0.0,0.0,0.0,0.0,0.0,0.0,0.0,0.0,0.9326,0.9332,0.9524,0.9507,0.982,1.0574,1.0558,1.0738,1.1111,1.1111,1.1111,1.1111,1.1111,1.1111,1.1111,1.1706,1.2224,1.2673,1.282,1.2826,1.2673,1.2378,1.2305,1.2311,1.2385,1.2545,1.2808,1.2585,1.2672,1.2826,1.2525,1.2412,1.2405,1.2325,1.2305,1.2305,1.2305,1.2305,0.0,0.0,0.0,1.3145,1.4303,1.4792,1.5155,1.6129,1.6312,1.6172,1.5779,1.5636,1.5462,1.5137,1.5054,1.4713,1.3698,1.3372,1.3209,1.3209,1.3045,1.296,1.296,1.279,1.2705,1.2705,1.2705,1.2705,1.2705,1.2705,1.2705,1.2705,1.2705,1.2705,1.2705,1.2705,1.2705,1.2705,1.2705,1.2705,1.2705,1.2705,1.2705,1.2705,1.2705,1.279,1.296,1.3476,1.3598,1.3536,1.3536,1.395,1.4665,1.4883,1.5518,1.6317,1.6657,1.6893,1.7239,1.7792,1.7971,1.8071,0.0,0.0,0.0,0.0,0.0,0.0,0.0,0.0,0.0,0.0,0.0,0.0,0.9338,0.9396,0.946,0.9338,0.8812,0.8424,0.8243,0.8212,0.8692,0.9879,0.9911,0.0,1.1111,1.1111,1.1111,1.1111,1.1111,1.1111,1.1111,1.1111,1.1186,1.126,1.2378,1.29,1.2893,1.2452,1.2305,1.2325,1.2688,1.2808,1.2856,1.3053,1.3173,1.3146,1.2832,1.2802,1.2755,1.2398,1.2305,1.2305,1.2305,1.2305,1.2445,0.0,0.0,0.0,1.498,1.5099,1.5273,1.5968,1.5967,1.5885,1.6285,1.6183,1.5921,1.5921,1.5921,1.5921,1.5838,1.5123,1.4566,1.4566,1.4068,1.3652,1.3652,1.313,1.2705,1.2705,1.2705,1.2705,1.2705,1.2705,1.2705,1.2705,1.2705,1.2705,1.2705,1.2705,1.2705,1.2705,1.2705,1.2705,1.2705,1.2705,1.2705,1.2705,1.2705,1.3045,1.3652,1.3646,1.4075,1.4594,1.4594,1.476,1.5043,1.5057,1.5941,1.7137,1.7152,1.7804,1.8735,1.8735,1.8735,1.8735,0.0,0.0,0.0,0.0,0.0,0.0,0.0,0.0,0.0,0.0,0.0,0.0,0.0,0.6719,0.665,0.706,0.6933,0.6981,0.7384,0.7517,0.7992,0.8867,0.9085,0.9231,0.9528,0.9528,0.9528,0.9528,0.9528,0.9528,0.9609,1.0062,1.0293,1.0368,1.1706,1.2231,1.215,1.2378,1.2452,1.2325,1.2701,1.2866,1.3033,1.2946,1.3153,1.3427,1.2926,1.2822,1.2808,1.2625,1.2458,1.2305,1.2305,1.2305,1.2445,1.3244,1.4034,1.4824,1.5698,1.5936,1.6144,1.7121,1.7509,1.764,1.7533,1.7595,1.7683,1.7359,1.7269,1.7269,1.7269,1.6124,1.522,1.553,1.5137,1.481,1.481,1.421,1.3704,1.3392,1.296,1.2705,1.2705,1.2705,1.2705,1.2705,1.2705,1.2705,1.2705,1.2705,1.2705,1.2705,1.2705,1.2705,1.2705,1.2705,1.2705,1.2705,1.3137,1.3476,1.3737,1.4566,1.5151,1.5401,1.5816,1.5801,1.55,1.5804,1.6376,1.7344,1.7772,1.8104,1.8518,1.874,1.8827,1.8827,0.0,0.0,0.0,0.0,0.0,0.0,0.0,0.0,0.0,0.5888,0.0,0.0,0.0,0.0,0.5216,0.5822,0.5888,0.6187,0.6761,0.6954,0.7343,0.8193,0.8326,0.8475,0.8703,0.8703,0.8703,0.8703,0.8703,0.8703,0.8703,0.9236,0.9463,0.9539,1.0738,1.1335,1.1409,1.2003,1.2157,1.2116,1.2739,1.3037,1.3131,1.3124,1.3312,1.3447,1.3118,1.2976,1.2906,1.2906,1.2772,1.2592,1.2485,1.2742,1.3164,1.3745,1.4609,1.5522,1.6349,1.6562,1.6803,1.7661,1.8109,1.83,1.8267,1.8536,1.8691,1.8487,1.8434,1.8434,1.8434,1.7367,1.6542,1.6683,1.6288,1.5974,1.5974,1.5365,1.4782,1.4314,1.3717,1.3294,1.3045,1.2875,1.279,1.2705,1.2705,1.2705,1.2705,1.2705,1.2705,1.2705,1.2705,1.2705,1.2705,1.296,1.3045,1.3045,1.373,1.4153,1.4405,1.5318,1.5816,1.6072,1.6484,1.6484,1.6087,1.6316,1.6745,1.7326,1.7779,1.8097,1.8327,1.8565,1.8724,1.8827,0.0,0.0,0.0,0.0,0.0,0.0,0.0,0.0,0.5756,0.5756,0.0,0.0,0.0,0.0,0.0,0.5756,0.5826,0.6034,0.6358,0.638,0.6818,0.7766,0.7783,0.8089,0.8699,0.8703,0.8703,0.8703,0.8703,0.8703,0.8703,0.8703,0.8703,0.8699,0.9539,1.0218,1.0738,1.1186,1.1484,1.1757,1.2733,1.3104,1.3042,1.3661,1.3635,1.3233,1.3444,1.3358,1.3213,1.322,1.3206,1.3133,1.2903,1.3637,1.4601,1.4601,1.5683,1.6908,0.0,0.0,0.0,1.7385,1.7486,1.7697,1.8495,1.8696,1.8815,1.9201,1.9292,1.9301,1.9301,1.9002,1.8531,1.8121,1.7448,1.7041,1.7041,1.6429,1.5936,1.5477,1.5047,1.4461,1.3815,1.3392,1.3045,1.279,1.279,1.279,1.2705,1.2705,1.2705,1.2705,1.2705,1.2705,1.2705,1.3392,1.3737,1.373,1.4405,1.5068,1.5733,1.5733,1.6072,1.673,1.673,1.673,1.673,1.673,1.6945,1.7262,1.7278,1.7691,1.8287,1.8295,1.8526,1.8827,0.0,0.0,0.0,0.0,0.0,0.0,0.3147,0.308,0.3013,0.0,0.0,0.0,0.2811,0.3413,0.3749,0.362,0.4368,0.518,0.5786,0.5901,0.6496,0.777,0.7783,0.8089,0.8699,0.8703,0.8703,0.8703,0.8703,0.8703,0.8703,0.8703,0.8703,0.8703,0.8932,0.9155,0.9382,1.0507,1.0887,1.0935,1.2089,1.258,1.2779,1.3413,1.3803,1.4042,1.3669,1.338,1.324,1.3454,1.3093,1.2538,1.2452,1.3096,1.389,1.4458,1.5321,1.6193,1.6769,0.0,0.0,0.0,0.0,0.0,1.7779,1.8293,1.8742,1.8852,1.91,1.9301,1.9301,1.9222,1.9073,1.8984,1.8514,1.8201,1.8201,1.7674,1.709,1.6624,1.6018,1.5598,1.5357,1.5274,1.4942,1.4203,1.4119,1.3873,1.3222,1.3222,1.3137,1.2966,1.2966,1.3137,1.3392,1.3652,1.3899,1.4405,1.5068,1.5484,1.5733,1.6237,1.6484,1.673,1.673,1.673,1.673,1.673,1.6794,1.6913,1.7175,1.754,1.7946,1.8208,1.8526,1.8827,0.0,0.0,0.0,0.0,0.0,0.1945,0.1878,0.1878,0.1878,0.0,0.0,0.0,0.1746,0.2214,0.2484,0.2484,0.3096,0.3883,0.4709,0.4831,0.5481,0.693,0.7015,0.7399,0.8318,0.8318,0.847,0.8703,0.8703,0.8703,0.8703,0.8703,0.8703,0.8703,0.8703,0.8703,0.8775,0.9609,1.0062,1.0413,1.1848,1.2469,1.2654,1.3635,1.4069,1.4185,1.4062,1.3851,1.3668,1.3885,1.3393,1.2679,1.2679,1.3021,1.36,1.4034,1.4895,1.5903,1.6333,1.6691,1.6908,1.6908,0.0,0.0,1.7678,1.8128,1.8559,1.8889,1.9146,1.9301,1.9301,1.9301,1.9301,1.9301,1.9073,1.8922,1.8922,1.8576,1.8158,1.7781,1.718,1.6748,1.6429,1.6265,1.5928,1.5274,1.5274,1.5025,1.4538,1.4455,1.4455,1.4287,1.4132,1.4146,1.4398,1.4482,1.4734,1.5151,1.5816,1.6147,1.6154,1.6484,1.673,1.673,1.673,1.673,1.673,1.673,1.673,1.6754,1.6969,1.7262,1.7612,1.7954,1.8303,1.8629,0.0,0.0,0.1743,0.1608,0.1609,0.1542,0.1205,0.1273,0.1273,0.0,0.0939,0.0941,0.1075,0.1277,0.1545,0.1811,0.2002,0.2482,0.3413,0.3583,0.4284,0.5699,0.586,0.6475,0.7783,0.7783,0.8089,0.8703,0.8703,0.8703,0.8703,0.8703,0.8703,0.8703,0.8703,0.8703,0.8703,0.8703,0.9094,0.9921,1.1745,1.2446,1.2621,1.4062,1.4379,1.4043,1.4486,1.4476,1.4321,1.4303,1.3811,1.3247,1.318,1.3335,1.3623,1.363,1.4705,1.5885,1.5921,1.6403,1.6908,1.6908,1.6908,0.0,1.7825,1.8027,1.8256,1.8953,1.9136,1.9173,1.9173,1.9173,1.9173,1.9173,1.9201,1.9256,1.9292,1.9301,1.9152,1.8772,1.8425,1.7917,1.7277,1.6935,1.6593,1.625,1.6167,1.6093,1.6093,1.6093,1.6085,1.6085,1.5703,1.556,1.556,1.5726,1.5899,1.5982,1.6566,1.682,1.682,1.682,1.6738,1.673,1.673,1.673,1.673,1.673,1.673,1.673,1.673,1.6961,1.7318,1.7612,1.7962,1.8343,0.0,0.066,0.0,-0.0602,-0.0937,-0.1272,-0.1806,-0.194,-0.2007,-0.2007,-0.1944,-0.1879,-0.1879,-0.0536,0.0335,0.0402,0.1543,0.2315,0.2545,0.3336,0.4124,0.4921,0.5547,0.6475,0.7783,0.7783,0.8089,0.8703,0.8703,0.8703,0.8703,0.8703,0.8703,0.8703,0.8703,0.8703,0.8703,0.8703,0.888,0.9282,1.084,1.1751,1.2324,1.381,1.4568,1.4828,1.4712,1.4489,1.4258,1.3815,1.3762,1.3702,1.3064,1.353,1.4288,1.434,1.5314,1.6355,1.6632,1.676,1.6908,1.6908,1.6908,0.0,1.711,1.7385,1.766,1.7816,1.8119,1.8357,1.8357,1.8357,1.8357,1.8357,1.8623,1.8935,1.9256,1.9301,1.9301,1.9222,1.9063,1.8975,1.8895,1.8807,1.8399,1.7666,1.6935,1.6527,1.6527,1.6527,1.6519,1.6355,1.6281,1.637,1.6706,1.6706,1.7041,1.7538,1.7708,1.7554,1.7229,1.7229,1.7066,1.673,1.673,1.673,1.673,1.673,1.673,1.673,1.673,1.6961,1.7286,1.735,1.7771,1.8311,-0.0512,-0.0909,-0.1449,-0.2002,-0.2209,-0.2479,-0.288,-0.2947,-0.288,-0.2952,-0.2684,-0.2484,-0.2417,-0.1609,-0.1072,-0.1072,-0.0348,0.043,0.1235,0.1731,0.2701,0.4217,0.4611,0.5467,0.6861,0.6861,0.7322,0.8241,0.8241,0.8394,0.8703,0.8703,0.876,0.8859,0.8751,0.876,0.8855,0.8746,0.8765,0.8956,1.0342,1.1455,1.2363,1.3721,1.4608,1.5257,1.5082,1.4899,1.466,1.4416,1.4093,1.386,1.3629,1.3627,1.3823,1.4237,1.5064,1.5934,1.636,1.6751,1.7038,1.7038,1.6968,0.0,0.0,1.7348,1.755,1.777,1.7981,1.8128,1.8128,1.8128,1.8128,1.8128,1.8458,1.8715,1.8715,1.9054,1.9301,1.9301,1.9301,1.9301,1.9301,1.9301,1.9134,1.8647,1.8238,1.7997,1.7997,1.7997,1.7917,1.7827,1.7683,1.761,1.787,1.7619,1.77,1.804,1.804,1.7878,1.7716,1.7716,1.7473,1.7066,1.7066,1.6902,1.673,1.673,1.673,1.673,1.673,1.6849,1.7032,1.7215,1.7493,1.7834,-0.2661,-0.2548,-0.264,-0.3392,-0.3197,-0.3127,-0.3547,-0.3613,-0.3613,-0.382,-0.3383,-0.3063,-0.2858,-0.2612,-0.2423,-0.2423,-0.2342,-0.1741,-0.0442,-0.0076,0.1003,0.2986,0.337,0.4231,0.5665,0.564,0.6321,0.7629,0.7706,0.8012,0.8546,0.8623,0.8798,0.8959,0.8822,0.8836,0.8954,0.8822,0.8784,0.8927,0.9987,1.1103,1.2168,1.3271,1.4261,1.5087,1.5318,1.5257,1.5166,1.5018,1.4572,1.4008,1.4062,1.3831,1.3564,1.4059,1.4828,1.5585,1.5945,1.6533,1.7028,1.7235,1.7107,1.706,0.0,0.0,0.0,1.7816,1.7889,1.7889,1.7889,1.7889,1.7889,1.7889,1.8219,1.8366,1.8045,1.8623,1.9072,1.9072,1.921,1.9265,1.9191,1.9191,1.9219,1.9292,1.9228,1.9219,1.9292,1.9301,1.9301,1.9301,1.9002,1.8851,1.8851,1.8442,1.8273,1.8273,1.8273,1.8193,1.8121,1.8121,1.7878,1.7554,1.7554,1.7229,1.6812,1.6812,1.682,1.673,1.673,1.673,1.677,1.7064,1.7223,1.7358,-0.436,-0.364,-0.3776,-0.5429,-0.4711,-0.4226,-0.5005,-0.5609,-0.6199,-0.6671,-0.6058,-0.5593,-0.5593,-0.4415,-0.3693,-0.3693,-0.3147,-0.2692,-0.2409,-0.0951,0.0,0.0403,0.1818,0.3317,0.4836,0.4818,0.5541,0.7019,0.7553,0.7859,0.7936,0.847,0.8713,0.8746,0.8911,0.8897,0.8751,0.8916,0.9091,0.9256,0.9385,0.9943,1.0746,1.1798,1.2868,1.4036,1.5072,1.5431,1.5296,1.4849,1.4617,1.4387,1.3621,1.4243,1.5177,1.437,1.5125,1.6213,1.6227,1.6254,1.6412,1.7254,1.7314,1.7176,1.7222,0.0,1.719,1.7037,0.0,1.7046,1.7046,0.0,0.0,1.7046,1.7376,1.7614,1.7568,1.7963,1.8256,1.8256,1.8871,1.9164,1.8815,1.8779,1.8926,1.9274,1.8971,1.8935,1.9283,1.9301,1.9301,1.9301,1.9222,1.9231,1.9231,1.9143,1.9143,1.9143,1.9143,1.8993,1.8612,1.8612,1.8371,1.7951,1.7951,1.7716,1.731,1.731,1.7066,1.673,1.673,1.673,1.6738,1.6778,1.7,1.7294,-0.5863,-0.5577,-0.5751,-0.6544,-0.6334,-0.6081,-0.6322,-0.6534,-0.6732,-0.6872,-0.6534,-0.6215,-0.6215,-0.5706,-0.5209,-0.5001,-0.4688,-0.4215,-0.3359,-0.2681,-0.1585,-0.0079,0.0707,0.2041,0.4124,0.4164,0.4844,0.6325,0.6553,0.7092,0.7783,0.8089,0.8458,0.8892,0.8982,0.9039,0.9067,0.9157,0.9181,0.9157,0.9275,0.9436,0.9691,1.1073,1.251,1.3978,1.4441,1.4999,1.5409,1.5105,1.4815,1.4526,1.454,1.4446,1.4473,1.4706,1.5075,1.5551,1.6254,1.6625,1.6892,1.7439,1.77,1.7675,1.7449,1.7392,1.7323,1.7254,0.0,0.0,0.0,0.0,0.0,0.0,1.7318,1.7574,1.7193,1.7715,1.8128,1.8128,1.8421,1.8641,1.8705,1.8916,1.9127,1.9292,1.9146,1.9127,1.9292,1.9301,1.9301,1.9301,1.9301,1.9301,1.9301,1.9301,1.9301,1.9301,1.9301,1.9222,1.9082,1.9082,1.8843,1.8371,1.8121,1.7878,1.7716,1.7229,1.7066,1.7066,1.6812,1.673,1.673,1.673,1.6833,1.6992,-0.798,-0.7427,-0.7083,-0.74,-0.7433,-0.7333,-0.7375,-0.7292,-0.719,-0.726,-0.7021,-0.681,-0.681,-0.679,-0.6516,-0.5949,-0.6043,-0.5541,-0.4339,-0.4002,-0.2956,-0.0804,-0.0474,0.0708,0.3029,0.3306,0.4064,0.5312,0.5705,0.6402,0.7246,0.7476,0.7859,0.8465,0.8681,0.8866,0.8999,0.9217,0.9275,0.9209,0.9351,0.936,0.9404,1.0721,1.2116,1.3372,1.3886,1.4482,1.5068,1.5238,1.4984,1.4662,1.5043,1.4518,1.3975,1.4736,1.4759,1.4782,1.5786,1.6227,1.659,1.7292,1.7599,1.768,1.7596,1.7529,1.7529,1.7539,1.747,0.0,0.0,0.0,1.7401,1.7116,0.0,1.753,1.7084,1.7484,1.7861,1.7789,1.7889,1.8109,1.8513,1.8806,1.9026,1.9127,1.9146,1.9191,1.9292,1.9301,1.9301,1.9301,1.9301,1.9301,1.9301,1.9301,1.9301,1.9301,1.9301,1.9301,1.9301,1.9301,1.9152,1.8851,1.8514,1.8273,1.8121,1.7546,1.731,1.7392,1.6984,1.6812,1.673,1.673,1.673,1.677,-1.1128,-0.8816,-0.7147,-0.827,-0.7785,-0.74,-0.806,-0.8042,-0.8182,-0.8641,-0.8142,-0.776,-0.776,-0.7765,-0.7386,-0.6496,-0.6757,-0.6605,-0.554,-0.4575,-0.3634,-0.2678,-0.1706,-0.04,0.134,0.2164,0.2971,0.383,0.5234,0.5941,0.5938,0.663,0.6942,0.7034,0.7754,0.8154,0.8171,0.8995,0.9441,0.9541,0.955,0.9752,1.0072,1.0716,1.1202,1.1666,1.3457,1.4139,1.4183,1.4732,1.486,1.4874,1.4589,1.4479,1.4392,1.416,1.4065,1.4126,1.456,1.4553,1.4776,1.6515,1.6821,1.683,1.7501,1.7706,1.7647,1.7529,1.747,1.747,1.747,1.747,1.747,1.747,1.748,0.0,0.0,1.7194,1.7144,1.6945,1.7284,1.7678,1.81,1.8155,1.832,1.8705,1.8733,1.8898,1.9283,1.9301,1.9301,1.9301,1.9301,1.9301,1.9301,1.9301,1.9301,1.9301,1.9301,1.9301,1.9301,1.9301,1.9301,1.9301,1.9222,1.9073,1.87,1.862,1.8129,1.7392,1.7392,1.7066,1.673,1.673,1.673,1.673,-1.1454,-1.0416,-0.955,-0.955,-0.9074,-0.8728,-0.8742,-0.863,-0.863,-0.8854,-0.8675,-0.8677,-0.898,-0.8986,-0.8791,-0.8298,-0.7867,-0.7285,-0.657,-0.5515,-0.4292,-0.28,-0.2338,-0.1032,0.1231,0.1592,0.2426,0.383,0.4297,0.5002,0.5941,0.617,0.6479,0.6945,0.7348,0.7809,0.8341,0.87,0.9158,0.9559,0.9559,0.9686,0.9757,1.0157,1.0742,1.1408,1.2009,1.2915,1.383,1.3981,1.4172,1.4326,1.4435,1.4172,1.3843,1.3953,1.3828,1.3778,1.4425,1.5137,1.5918,1.6718,1.7423,1.7922,1.793,1.793,1.7872,1.7872,1.7803,1.7803,1.7657,1.7725,1.7745,1.7539,1.7598,1.7588,0.0,1.7314,1.7107,1.6899,1.7257,1.755,1.7697,1.8192,1.8568,1.8705,1.8953,1.9164,1.9292,1.9301,1.9301,1.9301,1.9301,1.9301,1.9301,1.9301,1.9301,1.9301,1.9301,1.9301,1.9301,1.9301,1.9301,1.9301,1.9002,1.9002,1.9073,1.8442,1.829,1.821,1.7878,1.7708,1.7473,1.6894,1.673,1.677,-1.2089,-1.1779,-1.1341,-1.0697,-1.0283,-0.9913,-0.9709,-0.9466,-0.9309,-0.9159,-0.9125,-0.9212,-0.94,-0.9599,-0.9539,-0.9091,-0.8682,-0.8034,-0.7,-0.6292,-0.4984,-0.2685,-0.2609,-0.1461,0.0749,0.113,0.1983,0.3326,0.3612,0.438,0.5553,0.5553,0.5786,0.6251,0.6577,0.7221,0.8098,0.8472,0.9025,0.9757,0.9757,0.971,0.9578,0.9795,1.0133,1.0662,1.108,1.179,1.2638,1.3299,1.3615,1.3873,1.4321,1.4099,1.3711,1.3923,1.3748,1.3637,1.4049,1.4993,1.5901,1.6368,1.7274,1.7983,1.7998,1.8008,1.8008,1.8008,1.8008,1.794,1.7862,1.793,1.794,1.7735,1.7725,1.7716,0.0,1.7382,1.7245,1.7038,1.7199,1.7339,1.7477,1.7972,1.8403,1.8687,1.8944,1.9155,1.9292,1.9301,1.9301,1.9301,1.9301,1.9301,1.9301,1.9301,1.9301,1.9301,1.9301,1.9301,1.9301,1.9301,1.9301,1.9301,1.9002,1.9073,1.9222,1.8665,1.8523,1.87,1.8371,1.8121,1.7878,1.7221,1.682,1.677,-1.3164,-1.2781,-1.232,-1.1703,-1.1281,-1.0975,-1.0836,-1.0555,-1.0161,-0.9699,-0.9673,-0.9587,-0.9298,-0.9663,-0.9724,-0.9015,-0.9384,-0.8774,-0.6954,-0.6912,-0.5647,-0.2695,-0.2688,-0.1867,-0.0087,0.0749,0.1623,0.2513,0.3322,0.4146,0.5018,0.5018,0.5018,0.5015,0.5634,0.6493,0.7518,0.809,0.8972,1.0024,1.0024,0.9804,0.9531,0.9541,0.9488,0.9399,1.0522,1.0794,1.0917,1.2606,1.316,1.3382,1.418,1.4209,1.396,1.396,1.374,1.3492,1.3492,1.4049,1.4744,1.5525,1.6306,1.7079,1.7794,1.8008,1.8008,1.8008,1.8008,1.8008,1.8008,1.8008,1.8008,1.8008,1.8008,1.793,1.7677,1.756,1.7432,1.7207,1.7028,1.7055,1.7431,1.7504,1.7853,1.8623,1.8705,1.8889,1.9283,1.9283,1.9283,1.9301,1.9301,1.9301,1.9301,1.9301,1.9301,1.9301,1.9301,1.9301,1.9301,1.9301,1.9301,1.9301,1.9301,1.9301,1.9301,1.9301,1.9073,1.87,1.87,1.8451,1.7959,1.7554,1.7147,1.6738,-1.345,-1.3321,-1.3191,-1.3009,-1.202,-1.1149,-1.0836,-1.0836,-1.0765,-1.0591,-1.0811,-1.0838,-1.0697,-1.0789,-1.0662,-1.0199,-0.9663,-0.8857,-0.7938,-0.7115,-0.5806,-0.3959,-0.3074,-0.2206,-0.1042,-0.0166,0.1056,0.2513,0.2691,0.36,0.5018,0.5018,0.5018,0.5018,0.5171,0.6099,0.7518,0.7683,0.848,0.9724,0.9724,0.9507,0.92,0.9351,0.9181,0.8907,0.9514,0.9989,1.0431,1.0819,1.1704,1.2607,1.2832,1.323,1.3623,1.3623,1.3558,1.3492,1.3492,1.4049,1.4744,1.5525,1.6306,1.7079,1.7794,1.8008,1.8008,1.8008,1.8008,1.8008,1.8008,1.8008,1.8008,1.8008,1.8008,1.7823,1.7292,1.7254,1.713,1.693,1.6999,1.7014,1.7046,1.7605,1.8054,1.8256,1.855,1.8889,1.9283,1.9026,1.8999,1.9292,1.9301,1.9301,1.9301,1.9301,1.9301,1.9301,1.9301,1.9301,1.9301,1.9301,1.9301,1.9301,1.9301,1.9301,1.9301,1.9301,1.9222,1.9152,1.9152,1.8922,1.8451,1.7716,1.731,1.7147,-1.3398,-1.339,-1.3511,-1.3511,-1.2833,-1.213,-1.1806,-1.1461,-1.1262,-1.1233,-1.1362,-1.1417,-1.1186,-1.1111,-1.0981,-1.0846,-1.0152,-0.9195,-0.7996,-0.7544,-0.6369,-0.4203,-0.3275,-0.2347,-0.141,-0.0512,0.0833,0.2469,0.2493,0.3321,0.5018,0.5018,0.5018,0.5018,0.5018,0.5747,0.7004,0.7648,0.8321,0.9086,0.934,0.9313,0.0,0.9148,0.8987,0.8732,0.8968,0.9287,0.9566,0.9956,1.0627,1.1335,1.2077,1.2599,1.3046,1.3419,1.3492,1.3492,1.3492,1.4049,1.4673,1.5108,1.5807,1.6515,1.6872,1.7295,1.751,1.751,1.7794,1.8008,1.8008,1.8008,1.8008,1.8008,1.8008,1.7794,1.729,1.7232,1.7098,1.6645,1.6797,1.6915,1.6847,1.7613,1.8128,1.8128,1.833,1.855,1.8779,1.8742,1.8815,1.9036,1.921,1.9301,1.9301,1.9301,1.9301,1.9301,1.9301,1.9301,1.9301,1.9301,1.9301,1.9301,1.9301,1.9301,1.9301,1.9301,1.9301,1.9301,1.9301,1.9301,1.9231,1.8585,1.8023,1.7635,-1.3224,-1.3277,-1.3511,-1.3511,-1.3464,-1.3356,-1.3075,-1.2353,-1.1819,-1.1819,-1.1785,-1.17,-1.1384,-1.1193,-1.1051,-1.1124,-1.07,-0.9611,-0.7744,-0.7935,-0.6899,-0.4155,-0.3369,-0.2588,-0.1608,-0.0703,0.0688,0.2349,0.2453,0.3275,0.4859,0.4921,0.5002,0.5018,0.5018,0.5471,0.6391,0.7849,0.8405,0.8547,0.9041,0.9162,0.8982,0.8982,0.8864,0.8703,0.8703,0.8703,0.8775,0.9539,0.9841,1.0143,1.1706,1.2231,1.2452,1.3273,1.3492,1.3492,1.3492,1.3977,1.4466,1.4601,1.51,1.5596,1.5675,1.6237,1.6724,1.6724,1.7364,1.7872,1.7872,1.794,1.8008,1.8008,1.8008,1.7861,1.7441,1.7383,1.7142,1.6504,1.6645,0.0,1.6769,1.75,1.8045,1.8045,1.8045,1.8091,1.8192,1.8476,1.8678,1.8788,1.9127,1.9301,1.9301,1.9301,1.9301,1.9301,1.9301,1.9301,1.9301,1.9301,1.9301,1.9301,1.9301,1.9301,1.9301,1.9301,1.9301,1.9301,1.9381,1.9775,2.0157,1.9923,1.9204,1.8425,-1.3519,-1.345,-1.3511,-1.3511,-1.3268,-1.3179,-1.3399,-1.3299,-1.3072,-1.2767,-1.3013,-1.2977,-1.2444,-1.2345,-1.1874,-1.0952,-1.0808,-0.98,-0.7754,-0.7693,-0.6891,-0.5168,-0.4291,-0.3401,-0.253,-0.1566,-0.0258,0.1512,0.2092,0.2906,0.3986,0.4602,0.492,0.5018,0.5018,0.5783,0.7111,0.8012,0.8576,0.8918,0.8997,0.8949,0.876,0.876,0.8732,0.8703,0.8703,0.8703,0.8699,0.8856,0.9387,1.0067,1.1037,1.1781,1.2452,1.3273,1.3492,1.3492,1.3492,1.3564,1.3848,1.4466,1.4673,1.4958,1.5525,1.5816,1.5877,1.5877,1.6515,1.7079,1.7079,1.7579,1.8008,1.8008,1.8008,1.7861,1.7441,1.7242,1.7002,1.6523,1.6645,1.6769,1.6637,1.7232,1.7687,1.784,1.7687,1.7899,1.8577,1.8366,1.8522,1.9173,1.9265,1.9301,1.9301,1.9301,1.9301,1.9301,1.9301,1.9301,1.9301,1.9301,1.9301,1.9301,1.9301,1.9301,1.9301,1.9301,1.9301,1.9381,1.9854,2.0089,2.0235,2.0779,2.0769,2.0537,-1.3571,-1.3511,-1.351,-1.3476,-1.3364,-1.3333,-1.3483,-1.3474,-1.3413,-1.3031,-1.3148,-1.3093,-1.2877,-1.243,-1.1929,-1.1335,-1.0663,-0.9727,-0.8294,-0.7841,-0.7133,-0.6006,-0.4713,-0.358,-0.2729,-0.1793,-0.0507,0.1321,0.2016,0.285,0.383,0.4565,0.4961,0.5018,0.5326,0.586,0.6553,0.7655,0.8234,0.8389,0.87,0.8793,0.8703,0.8703,0.8703,0.8703,0.8703,0.8703,0.8703,0.8703,0.8932,0.9458,1.0738,1.1335,1.1929,1.3119,1.3492,1.3492,1.3492,1.3492,1.3564,1.3912,1.4049,1.4122,1.4482,1.4824,1.51,1.51,1.5737,1.6306,1.6306,1.6941,1.7432,1.7432,1.7725,1.7861,1.7441,1.7307,1.7077,1.6513,1.6446,1.6439,1.6365,1.6668,1.7055,1.762,1.7567,1.7761,1.8375,1.8229,1.8394,1.8971,1.9191,1.9301,1.9301,1.9301,1.9301,1.9301,1.9301,1.9301,1.9301,1.9301,1.9301,1.9301,1.9301,1.9301,1.9301,1.9301,1.946,1.9766,2.0089,2.0634,2.1252,2.1558,2.1863,2.2004,-1.35,-1.3509,-1.3442,-1.3316,-1.3275,-1.3256,-1.3175,-1.3129,-1.3107,-1.3148,-1.2969,-1.2891,-1.2891,-1.2164,-1.1632,-1.1484,-1.0663,-0.9609,-0.8542,-0.7909,-0.7126,-0.6185,-0.4849,-0.3663,-0.2666,-0.1927,-0.0748,0.1056,0.1928,0.2768,0.3492,0.4459,0.5005,0.5209,0.5665,0.6,0.6303,0.7339,0.7859,0.8012,0.847,0.8703,0.8703,0.8703,0.8703,0.8703,0.8703,0.8703,0.8699,0.8927,0.8998,0.9301,1.0726,1.1329,1.1774,1.3193,1.3637,1.3637,1.3637,1.3572,1.3564,1.3637,1.3564,1.3499,1.3564,1.3985,1.4402,1.4402,1.4966,1.5525,1.5675,1.6237,1.6655,1.6655,1.7295,1.7678,1.7349,1.7377,1.7212,1.6638,1.6453,1.6389,1.626,1.6458,1.6803,1.744,1.7495,1.7678,1.81,1.8128,1.8302,1.8705,1.9017,1.9173,1.9173,1.9256,1.9301,1.9301,1.9301,1.9301,1.9301,1.9301,1.9301,1.9301,1.9301,1.9301,1.9301,1.946,1.9775,2.0235,2.0479,2.1252,2.2101,2.2252,2.2628,2.2927,-1.3471,-1.3482,-1.3332,-1.2802,-1.2662,-1.253,-1.1986,-1.1886,-1.2218,-1.3302,-1.3004,-1.2631,-1.2631,-1.2063,-1.1484,-1.0962,-1.0812,-0.9825,-0.777,-0.7557,-0.6799,-0.5188,-0.506,-0.4308,-0.2521,-0.2574,-0.1661,0.0081,0.1478,0.2204,0.2501,0.39,0.4997,0.5744,0.5819,0.6486,0.7604,0.7774,0.8089,0.8627,0.8703,0.8703,0.8703,0.8703,0.8703,0.8703,0.8703,0.8703,0.8851,0.9744,1.0045,1.019,1.1081,1.1977,1.2865,1.376,1.4057,1.4057,1.4057,1.3928,1.379,1.3992,1.3783,1.3564,1.3717,1.3717,1.3637,1.3637,1.4194,1.4887,1.5604,1.5745,1.5807,1.5807,1.6515,1.6991,1.6954,1.7375,1.7494,1.7081,1.7023,1.6901,1.6571,1.7013,1.7376,1.7468,1.7495,1.7678,1.81,1.8128,1.8302,1.8705,1.8751,1.877,1.877,1.9127,1.9301,1.9301,1.9301,1.9301,1.9301,1.9301,1.9301,1.9301,1.9301,1.9301,1.9301,1.9923,2.0167,2.0313,2.1482,2.2025,2.2187,2.2703,2.2927,2.3001,-1.3403,-1.3296,-1.3076,-1.2241,-1.2052,-1.1982,-1.1728,-1.1704,-1.1855,-1.2378,-1.2224,-1.2077,-1.2077,-1.1484,-1.1037,-1.0812,-1.0062,-0.915,-0.8313,-0.7314,-0.6395,-0.5783,-0.4813,-0.3808,-0.254,-0.2084,-0.1284,0.0,0.1461,0.2267,0.2343,0.3921,0.4885,0.5211,0.6118,0.6745,0.7167,0.7964,0.847,0.8703,0.8703,0.8703,0.8703,0.8703,0.8703,0.8703,0.8703,0.9008,0.9539,1.0045,1.019,1.0415,1.1822,1.2565,1.3091,1.3833,1.4129,1.4129,1.4129,1.4065,1.3992,1.4057,1.3992,1.3848,1.3928,1.392,1.3848,1.3717,1.3848,1.4057,1.4338,1.4752,1.5029,1.5029,1.5666,1.6376,1.6862,1.7079,1.7298,1.7408,1.7244,1.6959,1.6637,1.7002,1.7241,1.7128,1.7596,1.7944,1.8109,1.8348,1.855,1.8705,1.8944,1.9063,1.9063,1.9219,1.9301,1.9301,1.9696,1.9854,1.9854,1.9854,1.9854,1.9854,2.0235,2.0469,2.0469,2.0702,2.1011,2.1405,2.1873,2.2327,2.2703,2.2927,2.3001,2.3001,-1.3089,-1.2901,-1.2448,-1.1566,-1.1473,-1.1398,-1.123,-1.1186,-1.1186,-1.1186,-1.0956,-1.0956,-1.1409,-1.0657,-1.0212,-1.0212,-0.9074,-0.8237,-0.8008,-0.6857,-0.6089,-0.586,-0.453,-0.3363,-0.2503,-0.1723,-0.0784,0.0392,0.1684,0.2418,0.272,0.4122,0.4947,0.5432,0.6435,0.6976,0.7368,0.8335,0.8703,0.8703,0.8703,0.8703,0.8703,0.8703,0.8703,0.8699,0.9003,0.9458,1.0056,1.0789,1.1007,1.1304,1.2565,1.3157,1.3528,1.4057,1.4274,1.4274,1.4274,1.4209,1.4209,1.4209,1.4201,1.4129,1.4209,1.4129,1.4065,1.3863,1.3645,1.3492,1.3492,1.3912,1.4258,1.4258,1.4895,1.5596,1.6158,1.6585,1.7079,1.7423,1.7389,1.7283,1.6939,1.7248,1.7353,1.7153,1.7844,1.8293,1.8293,1.8568,1.8715,1.8715,1.899,1.9127,1.9127,1.9246,1.9301,1.9301,1.9932,2.0167,2.0245,2.0391,2.0469,2.0547,2.1011,2.1165,2.1242,2.1395,2.1711,2.2101,2.2327,2.2628,2.3001,2.3001,2.3001,2.3001,-1.2641,-1.2127,-1.1507,-1.0908,-1.0807,-1.0588,-0.9992,-0.9916,-0.9916,-0.9916,-0.9236,-0.9231,-1.0663,-0.9528,-0.8699,-0.8699,-0.8003,-0.7157,-0.6318,-0.624,-0.586,-0.5018,-0.4226,-0.3363,-0.2503,-0.1723,-0.047,0.1254,0.1989,0.2722,0.3624,0.4342,0.5444,0.6689,0.6689,0.7455,0.8699,0.8699,0.8703,0.8703,0.8703,0.8703,0.8703,0.8703,0.8703,0.8775,0.9614,0.9981,1.049,1.2271,1.3011,1.3164,1.3164,1.3825,1.4569,1.4569,1.4569,1.4569,1.4569,1.4497,1.4433,1.4569,1.4346,1.4129,1.4353,1.4209,1.4065,1.3863,1.3645,1.3492,1.3492,1.3499,1.3492,1.3492,1.4122,1.4601,1.4601,1.5948,1.6932,1.6941,1.7569,1.792,1.7696,1.7961,1.8005,1.78,1.8331,1.8705,1.8705,1.8715,1.8715,1.8715,1.8715,1.8715,1.8715,1.9109,1.9301,1.9301,1.9932,2.0167,2.0245,2.0857,2.1165,2.1165,2.1165,2.1165,2.1242,2.1863,2.2101,2.2176,2.2777,2.3001,2.3001,2.3001,2.3001,2.3001,-1.188,-1.164,-1.123,-1.0351,-1.0218,-0.9916,-0.9231,-0.9079,-0.8851,-0.8309,-0.808,-0.8075,-0.8528,-0.8152,-0.7851,-0.7851,-0.7084,-0.6468,-0.624,-0.5705,-0.5007,-0.4226,-0.3363,-0.2504,-0.1723,-0.0862,0.0157,0.1332,0.1989,0.3022,0.4455,0.5161,0.5735,0.6173,0.7087,0.7651,0.8089,0.8546,0.8703,0.8703,0.8703,0.8703,0.8703,0.8703,0.9003,0.9539,0.9981,1.0875,1.199,1.2792,1.3535,1.4057,1.4122,1.4346,1.4569,1.4569,1.4569,1.4569,1.4569,1.4569,1.4569,1.4569,1.4497,1.4497,1.4497,1.4425,1.4281,1.4065,1.3855,1.3645,1.3499,1.3492,1.3492,1.3492,1.3702,1.4049,1.4537,1.5029,1.5728,1.6793,1.7079,1.7364,1.7638,1.804,1.8157,1.8014,1.846,1.8545,1.8311,1.8815,1.899,1.8724,1.8971,1.9118,1.9118,1.9237,1.9539,1.9923,2.0547,2.1088,2.1482,2.2155,2.2166,2.1863,2.2241,2.2467,2.2467,2.2617,2.2703,2.2703,2.2927,2.3001,2.3001,2.3001,2.3001,2.3001,-1.0623,-1.0149,-0.9691,-0.903,-0.8949,-0.8846,-0.8313,-0.8237,-0.8084,-0.754,-0.7234,-0.6927,-0.6612,-0.6304,-0.6381,-0.6927,-0.624,-0.5625,-0.5306,-0.4849,-0.4148,-0.3363,-0.2503,-0.1801,-0.1332,-0.0157,0.0941,0.1722,0.2778,0.398,0.5202,0.5654,0.608,0.663,0.7476,0.7936,0.8165,0.8551,0.8703,0.8699,0.9008,0.916,0.916,0.9458,0.9911,1.0443,1.0875,1.1768,1.2806,1.3317,1.3977,1.4497,1.4569,1.4569,1.4569,1.4569,1.4569,1.4569,1.4569,1.4569,1.4569,1.4569,1.4569,1.4569,1.4569,1.4497,1.4353,1.4209,1.4065,1.3855,1.3645,1.3645,1.3572,1.3499,1.3492,1.363,1.4122,1.4394,1.5029,1.6306,1.6724,1.7148,1.7784,1.7956,1.8117,1.8138,1.8401,1.8564,1.8423,1.8902,1.9123,1.8935,1.9173,1.9301,1.9301,1.9539,1.9854,2.0235,2.1088,2.1863,2.2478,2.2852,2.2777,2.2478,2.2852,2.3001,2.3001,2.3001,2.3001,2.3001,2.3001,2.3001,2.3001,2.3001,2.3001,2.3001,-0.884,-0.8082,-0.727,-0.7208,-0.7338,-0.7447,-0.7306,-0.7306,-0.7306,-0.731,-0.6542,-0.5693,-0.4991,-0.4217,-0.4297,-0.5851,-0.5243,-0.4543,-0.3752,-0.3675,-0.3285,-0.2425,-0.1644,-0.1175,-0.1097,0.0548,0.1801,0.2581,0.4229,0.5323,0.5941,0.5938,0.663,0.7783,0.7859,0.8165,0.8703,0.878,0.878,0.8856,0.969,0.9992,1.0067,1.0812,1.1111,1.126,1.2077,1.2586,1.3084,1.3833,1.4346,1.4569,1.4569,1.4569,1.4569,1.4569,1.4569,1.4569,1.4569,1.4569,1.4569,1.4569,1.4569,1.4569,1.4569,1.4497,1.4425,1.4425,1.4281,1.4065,1.3863,1.3797,1.3717,1.3499,1.3492,1.3492,1.3492,1.4122,1.4824,1.5604,1.6376,1.7148,1.794,1.7862,1.7879,1.8222,1.8354,1.8555,1.8984,1.903,1.914,1.9283,1.9301,1.9301,1.9381,1.9932,2.0235,2.0323,2.1558,2.2478,2.3001,2.3001,2.3001,2.3001,2.3001,2.3001,2.3001,2.3001,2.3001,2.3001,2.3001,2.3001,2.3001,2.3001,2.3001,2.3001,-0.7615,-0.7325,-0.6965,-0.6426,-0.6861,-0.6934,-0.5745,-0.5607,-0.5613,-0.5628,-0.4297,-0.3593,-0.4062,-0.3283,-0.2971,-0.3359,-0.3207,-0.2973,-0.2817,-0.2817,-0.2426,-0.1644,-0.0782,0.0,0.0705,0.1722,0.2659,0.3519,0.4543,0.5323,0.5941,0.6402,0.7092,0.7783,0.8318,0.8546,0.878,0.9387,0.9614,0.969,1.0513,1.0812,1.0812,1.1037,1.1484,1.2077,1.2378,1.3105,1.3833,1.4201,1.4425,1.4569,1.4569,1.4569,1.4569,1.4569,1.4569,1.4569,1.4569,1.4569,1.4569,1.4569,1.4569,1.4569,1.4569,1.4569,1.4497,1.4425,1.4353,1.4217,1.387,1.3797,1.3717,1.3499,1.3492,1.3492,1.3492,1.3637,1.4266,1.5534,1.5886,1.6524,1.7872,1.794,1.7979,1.8086,1.8344,1.8625,1.8778,1.909,1.9285,1.9292,1.9301,1.9539,2.0001,2.0167,2.0712,2.1634,2.2392,2.2852,2.3001,2.3001,2.3001,2.3001,2.3001,2.3001,2.3001,2.3001,2.3001,2.3001,2.3001,2.3001,2.3001,2.3001,2.3001,2.3001,-0.5768,-0.5351,-0.4782,-0.4344,-0.4735,-0.483,-0.3982,-0.3874,-0.3826,-0.3837,-0.3052,-0.2504,-0.2659,-0.227,-0.1801,-0.141,-0.2035,-0.2347,-0.1957,-0.1564,-0.1016,-0.0157,0.0704,0.1329,0.1801,0.266,0.3675,0.4766,0.5165,0.5864,0.6784,0.7169,0.7629,0.8241,0.8546,0.8932,0.9311,0.969,1.0143,1.0513,1.1335,1.1632,1.1706,1.2077,1.2452,1.2893,1.2973,1.3411,1.4,1.4209,1.4633,1.5054,1.5133,1.5409,1.5683,1.5683,1.5125,1.4569,1.4569,1.4569,1.4569,1.4569,1.4569,1.4569,1.4569,1.4569,1.4569,1.4497,1.4425,1.4281,1.4,1.3863,1.3717,1.3499,1.3775,1.3977,1.3977,1.4266,1.4974,1.6097,1.6237,1.6733,1.7872,1.8008,1.8008,1.8008,1.8259,1.8552,1.8701,1.8967,1.9217,1.9292,1.9539,1.9844,2.0167,2.0789,2.1548,2.2553,2.2852,2.3001,2.3001,2.3001,2.3001,2.3001,2.3001,2.3001,2.3001,2.3001,2.3001,2.3001,2.3001,2.3001,2.3001,2.3001,2.3001,2.3001,-0.3877,-0.3071,-0.2228,-0.1957,-0.2108,-0.2251,-0.1958,-0.1924,-0.1954,-0.211,-0.1876,-0.1564,-0.0939,-0.0783,-0.0392,0.0314,-0.0939,-0.1486,-0.094,-0.0235,0.0547,0.141,0.227,0.2659,0.2659,0.3597,0.4688,0.5864,0.6015,0.663,0.7783,0.7783,0.8089,0.8703,0.8856,0.9236,0.9916,1.0143,1.0663,1.1335,1.2157,1.2452,1.2526,1.3273,1.3492,1.3492,1.3637,1.3783,1.4,1.4274,1.4974,1.5675,1.5903,1.6385,1.6932,1.6932,1.5956,1.4919,1.4776,1.4705,1.4569,1.4569,1.4569,1.4569,1.4569,1.4569,1.4569,1.4569,1.4497,1.4353,1.4129,1.3928,1.379,1.3572,1.4122,1.4601,1.4601,1.5242,1.6026,1.6793,1.6932,1.7217,1.794,1.8008,1.8008,1.8008,1.8199,1.8481,1.8701,1.8967,1.9217,1.9529,1.9932,2.0323,2.0479,2.1634,2.2478,2.3001,2.3001,2.3001,2.3001,2.3001,2.3001,2.3001,2.3001,2.3001,2.3001,2.3001,2.3001,2.3001,2.3001,2.3001,2.3001,2.3001,2.3001,2.3001,-0.2414,-0.2288,-0.1767,-0.0556,-0.0858,-0.0881,0.0375,0.0614,0.0468,-0.0312,0.0858,0.1484,0.0936,0.1484,0.1956,0.2113,0.1877,0.1486,0.094,0.1018,0.1488,0.227,0.3127,0.3597,0.3597,0.4921,0.5705,0.5864,0.6479,0.7092,0.7783,0.7783,0.8089,0.8699,0.9387,0.9765,0.9992,1.1335,1.2003,1.215,1.2973,1.3346,1.3346,1.3419,1.3492,1.3564,1.4194,1.4545,1.484,1.5471,1.6044,1.6464,1.6464,1.6664,1.6932,1.6932,1.6724,1.6376,1.5762,1.5133,1.4569,1.4569,1.4569,1.4569,1.4569,1.4569,1.4569,1.4569,1.4569,1.4497,1.4129,1.4057,1.392,1.3564,1.4122,1.4601,1.4601,1.5242,1.6026,1.6793,1.6932,1.7217,1.794,1.8008,1.8008,1.8008,1.8329,1.8686,1.8912,1.9333,1.9822,2.0391,2.0245,2.0712,2.1797,2.2478,2.2927,2.3001,2.3001,2.3001,2.3001,2.3001,2.3001,2.3001,2.3001,2.3001,2.3001,2.3001,2.3001,2.3001,2.3001,2.3001,2.3001,2.3001,2.3001,2.3001,-0.1005,-0.0335,0.0336,0.1022,0.0919,0.0947,0.1623,0.1831,0.1796,0.1405,0.2032,0.2345,0.1953,0.2267,0.2659,0.2971,0.2971,0.3203,0.3589,0.2969,0.2817,0.3207,0.399,0.4616,0.4924,0.5935,0.6633,0.6938,0.7246,0.7706,0.8318,0.8318,0.8699,0.9387,0.9765,1.0368,1.126,1.2003,1.2526,1.2973,1.3346,1.3775,1.4122,1.4122,1.433,1.476,1.5037,1.5251,1.5392,1.5956,1.6524,1.707,1.7285,1.7696,1.8104,1.8104,1.755,1.6793,1.6455,1.5824,1.5275,1.5275,1.4919,1.4569,1.4569,1.4569,1.4569,1.4569,1.4497,1.4274,1.4129,1.392,1.3848,1.4049,1.4681,1.5313,1.5807,1.6446,1.7088,1.7432,1.751,1.7647,1.794,1.8008,1.8008,1.8008,1.8193,1.8556,1.9201,1.97,2.035,2.1234,2.1273,2.1634,2.2553,2.2852,2.3001,2.3001,2.3001,2.315,2.3298,2.3075,2.315,2.3298,2.3298,2.3298,2.3372,2.353,2.3519,2.3298,2.3298,2.3224,2.3001,2.3001,2.3001,2.3001,0.0469,0.1474,0.2347,0.248,0.279,0.3029,0.3194,0.3392,0.3494,0.3513,0.3515,0.3515,0.3515,0.3515,0.3748,0.4137,0.4215,0.4678,0.5841,0.5071,0.453,0.453,0.5085,0.5634,0.6093,0.6784,0.7322,0.7783,0.7936,0.8241,0.8703,0.8851,0.9311,0.9916,1.0293,1.1111,1.2305,1.2526,1.2973,1.3492,1.3702,1.4122,1.4601,1.4816,1.5242,1.5745,1.5877,1.5956,1.6097,1.6585,1.7139,1.7687,1.8037,1.8586,1.9075,1.9075,1.8307,1.7345,1.7001,1.6524,1.6035,1.6035,1.548,1.4848,1.4848,1.4705,1.4641,1.4784,1.4561,1.4489,1.4625,1.4201,1.4057,1.4816,1.5384,1.5956,1.6793,1.751,1.8008,1.8008,1.8008,1.8008,1.8008,1.8008,1.8008,1.8008,1.8008,1.8458,1.9441,1.996,2.0885,2.2255,2.2434,2.2703,2.315,2.315,2.315,2.315,2.3075,2.3224,2.3751,2.3298,2.3372,2.3751,2.3751,2.3751,2.3751,2.4043,2.4043,2.3751,2.3751,2.3519,2.315,2.315,2.3075,2.3001,0.1945,0.2412,0.308,0.3749,0.4384,0.5066,0.599,0.6232,0.6392,0.6531,0.6549,0.6549,0.6549,0.6549,0.6626,0.663,0.663,0.6707,0.6784,0.6707,0.6707,0.6707,0.6707,0.6784,0.6861,0.7399,0.7783,0.7783,0.8394,0.8627,0.8703,0.9463,0.9841,0.9997,1.1484,1.2157,1.2378,1.3119,1.3419,1.3564,1.4258,1.4537,1.4673,1.5392,1.5675,1.5816,1.6515,1.6793,1.6941,1.7852,1.8269,1.8472,1.8674,1.8942,1.9075,1.9075,1.8998,1.8654,1.7276,1.6862,1.6793,1.6793,1.6245,1.5692,1.5692,1.5133,1.4784,1.5284,1.5426,1.5559,1.6026,1.5392,1.5037,1.5799,1.5807,1.5956,1.6793,1.751,1.8008,1.8008,1.8008,1.8008,1.8008,1.8008,1.8008,1.8008,1.8008,1.8458,1.9637,2.0162,2.1392,2.343,2.3508,2.3519,2.353,2.353,2.353,2.3519,2.315,2.3372,2.4116,2.3751,2.3751,2.4127,2.4127,2.4127,2.4127,2.42,2.4189,2.4127,2.4127,2.3897,2.353,2.353,2.3298,2.3001,0.3742,0.4278,0.4818,0.515,0.5471,0.5825,0.635,0.6518,0.6686,0.6842,0.6865,0.6865,0.6865,0.6865,0.7019,0.7399,0.7476,0.7629,0.8012,0.8012,0.7706,0.6938,0.7246,0.7476,0.7476,0.8012,0.8623,0.9079,0.9311,0.9685,1.0207,1.0513,1.0887,1.1409,1.2003,1.2599,1.3119,1.3833,1.4186,1.4258,1.4966,1.5596,1.6088,1.6376,1.6733,1.7157,1.7442,1.7579,1.7647,1.8134,1.8337,1.8414,1.8539,1.8684,1.8741,1.8741,1.8875,1.8931,1.825,1.7833,1.755,1.755,1.7001,1.6455,1.6455,1.6245,1.6035,1.6184,1.6114,1.6035,1.6105,1.5745,1.5675,1.6437,1.6507,1.6724,1.7442,1.7794,1.8008,1.8008,1.8008,1.8008,1.8008,1.8008,1.8008,1.8008,1.8008,1.8542,1.9895,2.1384,2.2753,2.4097,2.4316,2.4189,2.397,2.397,2.397,2.397,2.3824,2.4043,2.4574,2.4127,2.42,2.4574,2.4574,2.4574,2.4574,2.4838,2.4766,2.4574,2.4574,2.4345,2.397,2.397,2.3751,2.3372,0.5456,0.5997,0.6412,0.6218,0.6376,0.6599,0.6907,0.6977,0.7142,0.7443,0.7476,0.7476,0.7476,0.7476,0.7706,0.8394,0.847,0.8775,0.9377,0.9453,0.8998,0.7855,0.8237,0.8542,0.8841,0.9226,0.976,1.0293,1.0293,1.0588,1.1111,1.1335,1.1781,1.2298,1.2806,1.3317,1.3912,1.4609,1.4958,1.5029,1.5745,1.6376,1.6941,1.7148,1.7706,1.8269,1.8076,1.8144,1.8337,1.8269,1.8269,1.8337,1.8482,1.8674,1.8875,1.8674,1.8998,1.933,1.9008,1.8664,1.8375,1.8375,1.7755,1.7276,1.7276,1.707,1.6941,1.695,1.6802,1.6664,1.6742,1.6385,1.6376,1.7217,1.707,1.7148,1.7872,1.8008,1.8008,1.8008,1.8008,1.8008,1.8008,1.8008,1.8008,1.8008,1.8008,1.8657,2.0249,2.2258,2.372,2.4506,2.4778,2.4838,2.455,2.4406,2.4418,2.4418,2.4273,2.449,2.4921,2.4562,2.4562,2.4992,2.4992,2.4992,2.4992,2.5182,2.5182,2.4992,2.4992,2.4706,2.4418,2.4418,2.4116,2.3751,0.7033,0.7367,0.7512,0.6868,0.7129,0.7664,0.8084,0.815,0.8231,0.8647,0.8699,0.8699,0.8699,0.8699,0.9003,0.9841,0.9922,1.0218,1.1037,1.1111,1.0738,0.9916,0.9922,1.0293,1.1111,1.1111,1.1111,1.1111,1.1111,1.1111,1.1111,1.1929,1.2298,1.2372,1.3954,1.4601,1.4673,1.5392,1.5745,1.5807,1.6585,1.6932,1.7001,1.7725,1.8395,1.8911,1.8269,1.8462,1.8911,1.8462,1.8337,1.8337,1.8482,1.9131,1.9649,1.9008,1.9386,1.9966,1.9264,1.9075,1.9075,1.9075,1.8519,1.8037,1.8037,1.7413,1.7079,1.7569,1.7579,1.7647,1.8337,1.7638,1.7217,1.8134,1.7501,1.7148,1.7872,1.8008,1.8008,1.8008,1.8008,1.8008,1.8008,1.8008,1.8008,1.8008,1.8008,1.8856,2.0784,2.2721,2.3989,2.4494,2.5023,2.53,2.5312,2.4992,2.479,2.479,2.4418,2.4611,2.5312,2.4992,2.4992,2.5312,2.5312,2.5312,2.5312,2.5312,2.5312,2.5312,2.5312,2.5123,2.479,2.479,2.4574,2.4116,0.8667,0.8865,0.8871,0.8678,0.8812,0.904,0.9599,0.9678,0.9789,1.0295,1.0357,1.0357,1.0357,1.0357,1.0507,1.0738,1.0738,1.0812,1.1111,1.1111,1.126,1.1558,1.1037,1.0887,1.1111,1.1111,1.1409,1.1929,1.1929,1.2505,1.3585,1.381,1.4171,1.4744,1.5171,1.5384,1.5384,1.6228,1.6844,1.7298,1.8075,1.8365,1.8432,1.9177,1.8988,1.8337,1.8586,1.8844,1.8977,1.8854,1.9121,1.9573,1.9584,1.9911,2.0172,1.9846,1.9715,1.9736,1.9539,1.9208,1.8942,1.9065,1.8931,1.8787,1.8787,1.8586,1.8452,1.8462,1.8395,1.8405,1.8337,1.8124,1.792,1.8076,1.7862,1.7725,1.794,1.8008,1.8008,1.8008,1.8008,1.8008,1.8008,1.8008,1.8202,1.8654,1.9639,2.041,2.102,2.2456,2.346,2.3977,2.4494,2.4927,2.5312,2.5182,2.5182,2.5182,2.504,2.5099,2.5312,2.5182,2.5182,2.5312,2.5312,2.5312,2.5312,2.5312,2.5312,2.5312,2.5312,2.5241,2.5182,2.5182,2.4909,2.4574,0.9901,0.9907,0.9843,0.9518,0.9518,0.9693,1.0218,1.0303,1.0496,1.1039,1.1111,1.1111,1.1111,1.1391,1.1539,1.1558,1.1855,1.2144,1.2498,1.2218,1.2365,1.3164,1.2718,1.2358,1.2077,1.2077,1.2445,1.3237,1.3237,1.381,1.5029,1.5029,1.5242,1.5745,1.628,1.6549,1.6618,1.7726,1.8402,1.8793,1.9288,1.9441,1.9507,1.9901,1.9704,1.9243,1.9375,1.9628,1.9824,1.9497,1.9704,2.0096,2.0096,2.042,2.0752,2.0355,2.0302,2.0302,2.0064,1.9726,1.9528,1.966,1.933,1.8942,1.8875,1.8875,1.8875,1.8808,1.8741,1.8617,1.8414,1.8337,1.8202,1.8008,1.8008,1.8008,1.8008,1.8008,1.8008,1.8008,1.8202,1.8395,1.8395,1.8664,1.8988,1.9375,2.0484,2.1123,2.1123,2.2285,2.3232,2.3749,2.4254,2.4771,2.53,2.5312,2.5312,2.5312,2.5312,2.5312,2.5312,2.5312,2.5312,2.5312,2.5312,2.5312,2.5312,2.5312,2.5453,2.5664,2.5664,2.5804,2.6,2.6,2.5873,2.5676,1.08,1.0611,1.0421,0.9773,0.9728,0.9919,1.0492,1.0591,1.0866,1.1403,1.1471,1.1471,1.1471,1.2098,1.2538,1.2586,1.3258,1.3985,1.4673,1.4049,1.3985,1.4673,1.4673,1.4402,1.3702,1.371,1.4057,1.4673,1.4673,1.51,1.5816,1.5877,1.5948,1.6088,1.7503,1.8103,1.817,1.9552,2.0096,2.0161,2.0161,2.0161,2.0226,2.0226,2.0613,2.0933,2.0355,2.0549,2.0996,2.0484,2.0291,2.0291,2.0291,2.0816,2.1325,2.0752,2.106,2.1439,2.0816,2.0635,2.0571,2.0571,1.9791,1.8875,1.8741,1.8617,1.8684,1.8808,1.8684,1.8482,1.8539,1.8472,1.8337,1.8144,1.8134,1.8134,1.8076,1.8076,1.8144,1.8212,1.8654,1.9044,1.911,1.977,2.0161,2.0161,2.0805,2.1198,2.1198,2.2313,2.3183,2.3749,2.4206,2.4735,2.53,2.5382,2.5382,2.5312,2.5312,2.5312,2.5312,2.5382,2.5382,2.5382,2.5441,2.5441,2.5441,2.5441,2.5804,2.6302,2.6302,2.6564,2.6973,2.6973,2.6973,2.696,1.2089,1.167,1.131,1.1178,1.1312,1.179,1.2781,1.3112,1.3615,1.4601,1.4728,1.4728,1.4728,1.4871,1.4942,1.495,1.5108,1.5321,1.5455,1.5321,1.5321,1.5455,1.5463,1.5392,1.5259,1.5251,1.5321,1.5463,1.5463,1.5877,1.6655,1.717,1.7716,1.8287,1.9222,1.9617,1.9617,1.9955,2.042,2.0869,2.0869,2.0869,2.0933,2.1526,2.1146,2.0355,2.0741,2.1008,2.1198,2.16,2.1726,2.1726,2.1726,2.1862,2.1999,2.1862,2.1526,2.1187,2.1198,2.0816,2.0431,2.0431,2.0237,2.0042,2.0118,1.9736,1.9341,1.9407,1.8942,1.8607,1.9054,1.911,1.9044,1.8854,1.9243,1.9441,1.8844,1.8777,1.8988,1.9584,1.9243,1.9243,1.9835,2.0484,2.0869,2.0869,2.1526,2.1987,2.1987,2.2231,2.2799,2.3737,2.3881,2.4374,2.53,2.5734,2.5734,2.5312,2.5312,2.5312,2.5312,2.5804,2.6013,2.6013,2.6414,2.662,2.662,2.662,2.6688,2.6837,2.6837,2.6905,2.6973,2.6973,2.6973,2.696,1.2948,1.2712,1.2536,1.2536,1.2759,1.3228,1.3917,1.4404,1.4905,1.5553,1.5675,1.5675,1.5675,1.6026,1.6376,1.6802,1.6097,1.5886,1.6237,1.5877,1.5877,1.6237,1.6298,1.6576,1.7257,1.7257,1.6913,1.6298,1.6558,1.7111,1.7891,1.8603,1.9145,1.9573,2.0291,2.0549,2.0613,2.0944,2.1273,2.16,2.16,2.16,2.1663,2.2061,2.1726,2.1146,2.1526,2.16,2.1663,2.2061,2.2197,2.2197,2.2197,2.2197,2.2197,2.2197,2.1925,2.1663,2.1726,2.1537,2.1273,2.1273,2.1273,2.1083,2.0495,2.0172,1.9977,1.9987,1.9715,1.9573,1.9759,1.9835,1.977,1.9573,1.9835,1.9977,1.9573,1.9507,1.9704,2.0031,2.0031,2.0291,2.1019,2.14,2.16,2.16,2.1987,2.2197,2.2197,2.2197,2.2678,2.3737,2.3773,2.4401,2.5721,2.6013,2.6151,2.6139,2.6139,2.6139,2.6139,2.6427,2.6564,2.6633,2.6905,2.6973,2.6973,2.6973,2.7175,2.7377,2.7377,2.751,2.7776,2.7776,2.7776,2.7709,1.3623,1.3571,1.3528,1.3596,1.3913,1.4281,1.4584,1.5102,1.5609,1.5843,1.5948,1.6018,1.6097,1.6655,1.7364,1.794,1.6802,1.6376,1.701,1.6576,1.6576,1.7207,1.7404,1.8017,1.9166,1.9177,1.8633,1.7472,1.7988,1.8593,1.9177,1.9901,2.0291,2.0291,2.1008,2.1262,2.1325,2.1925,2.2197,2.2197,2.2197,2.2197,2.2197,2.2197,2.2197,2.2197,2.2197,2.2197,2.2197,2.2197,2.2197,2.2197,2.2197,2.2197,2.2197,2.2197,2.2197,2.2197,2.2197,2.2197,2.2197,2.2197,2.2197,2.1862,2.0752,2.0484,2.0462,2.0484,2.0537,2.0537,2.0549,2.0549,2.0495,2.0291,2.0355,2.042,2.0291,2.0291,2.0291,2.042,2.0944,2.1526,2.2123,2.2197,2.2197,2.2197,2.2197,2.2197,2.2197,2.2197,2.2678,2.3737,2.3893,2.467,2.622,2.6358,2.6701,2.7108,2.7242,2.7175,2.6973,2.7108,2.7108,2.7108,2.7242,2.7242,2.7242,2.7242,2.751,2.7921,2.7921,2.8183,2.8587,2.8587,2.8587,2.8587,1.435,1.3932,1.3605,1.3993,1.4298,1.4806,1.573,1.6201,1.6678,1.7354,1.7423,1.7501,1.7657,1.7794,1.7872,1.8008,1.7794,1.7725,1.7862,1.8307,1.8633,1.87,1.9299,1.977,1.9966,1.9966,1.9835,1.9694,1.9759,1.9824,1.9966,2.0677,2.0933,2.0996,2.1726,2.2061,2.2061,2.2135,2.2197,2.2197,2.2197,2.2197,2.2197,2.2197,2.2197,2.2197,2.2197,2.2197,2.2197,2.2197,2.2197,2.2197,2.2197,2.2197,2.2197,2.2197,2.2197,2.2197,2.2197,2.2197,2.2197,2.2197,2.2197,2.2123,2.1937,2.1463,2.0996,2.0996,2.0549,2.0355,2.0869,2.1008,2.0996,2.0996,2.1526,2.1663,2.1071,2.0933,2.1198,2.1862,2.1999,2.2061,2.2197,2.2197,2.2197,2.2197,2.2197,2.2197,2.2197,2.2197,2.2678,2.3737,2.4275,2.5058,2.622,2.7108,2.7643,2.7709,2.8183,2.7908,2.704,2.751,2.7709,2.7709,2.8183,2.8392,2.8392,2.8392,2.8457,2.8522,2.8522,2.8522,2.8587,2.8587,2.8587,2.8587,1.4942,1.5012,1.5037,1.5213,1.5725,1.6215,1.6466,1.6896,1.7295,1.7588,1.7647,1.7784,1.8008,1.8337,1.8596,1.8596,1.8921,1.9187,1.9187,1.9441,1.9639,1.9639,1.9901,2.0291,2.0677,2.0677,2.088,2.1273,2.088,2.0677,2.0677,2.14,2.1726,2.1726,2.2061,2.2197,2.2197,2.2197,2.2197,2.2185,2.2494,2.2432,2.2259,2.2494,2.2604,2.2604,2.2604,2.2604,2.2555,2.2309,2.2197,2.2197,2.2197,2.2197,2.2197,2.2197,2.2197,2.2197,2.2197,2.2197,2.2197,2.2197,2.2197,2.2197,2.2197,2.1925,2.1726,2.1726,2.1526,2.1451,2.1651,2.1726,2.1726,2.1726,2.1999,2.2061,2.1788,2.1726,2.1862,2.2185,2.2197,2.2197,2.2197,2.2197,2.2197,2.2197,2.2432,2.2494,2.2197,2.2714,2.3393,2.4251,2.4718,2.5637,2.7095,2.7577,2.7987,2.8249,2.8457,2.8327,2.7908,2.8118,2.8249,2.8249,2.8522,2.8587,2.8587,2.8587,2.8587,2.8587,2.8587,2.8587,2.8587,2.8587,2.8587,2.8587]},{"header":{"parameterUnit":"m.s-1","parameterCategory":1,"la1":30.6,"la2":28.766,"lo1":-90.7593,"lo2":-88.6598,"dy":0.0162,"dx":0.0183,"nx":116,"ny":114,"refTime":"2023-05-30T12:00:00:Z","depth":0,"parameterNumber":3,"parameterNumberName":"V-component_of_WINDS"},"data":[0.0,0.0,0.0,0.0,0.0,0.0,0.0,0.0,0.0,0.0,0.0,0.0,0.0,0.0,0.0,0.0,0.0,0.0,0.0,0.0,0.0,0.0,0.0,0.0,0.0,0.0,0.0,0.0,0.0,0.0,0.0,0.0,0.0,0.0,0.0,0.0,0.0,0.0,0.0,0.0,0.0,0.0,0.0,0.0,0.0,0.0,0.0,0.0,0.0,0.0,0.0,0.0,0.0,0.0,0.0,0.0,0.0,0.0,0.0,0.0,0.0,0.0,0.0,0.0,0.0,0.0,0.0,0.0,0.0,0.0,0.0,0.0,0.0,0.0,0.0,0.0,0.0,0.0,0.0,0.0,0.0,0.0,0.0,0.0,0.0,0.0,0.0,0.0,0.0,0.0,0.0,0.0,0.0,0.0,0.0,0.0,0.0,0.0,0.0,0.0,0.0,0.0,0.0,0.0,0.0,0.0,0.0,0.0,0.0,0.0,0.0,0.0,0.0,0.0,0.0,0.0,0.0,0.0,0.0,0.0,0.0,0.0,0.0,0.0,0.0,0.0,0.0,0.0,0.0,0.0,0.0,0.0,0.0,0.0,0.0,0.0,0.0,0.0,0.0,0.0,0.0,0.0,0.0,0.0,0.0,0.0,0.0,0.0,0.0,0.0,0.0,0.0,0.0,0.0,0.0,0.0,0.0,0.0,0.0,0.0,0.0,0.0,0.0,0.0,0.0,0.0,0.0,0.0,0.0,0.0,0.0,0.0,0.0,0.0,0.0,0.0,0.0,0.0,0.0,0.0,0.0,0.0,0.0,0.0,0.0,0.0,0.0,0.0,0.0,0.0,0.0,0.0,0.0,0.0,0.0,0.0,0.0,0.0,0.0,0.0,0.0,0.0,0.0,0.0,0.0,0.0,0.0,0.0,0.0,0.0,0.0,0.0,0.0,0.0,0.0,0.0,0.0,0.0,0.0,0.0,0.0,0.0,0.0,0.0,0.0,0.0,0.0,0.0,0.0,0.0,0.0,0.0,0.0,0.0,0.0,0.0,0.0,0.0,0.0,0.0,0.0,0.0,0.0,0.0,0.0,0.0,0.0,0.0,0.0,0.0,0.0,0.0,0.0,0.0,0.0,0.0,0.0,0.0,0.0,0.0,0.0,0.0,0.0,0.0,0.0,0.0,0.0,0.0,0.0,0.0,0.0,0.0,0.0,0.0,0.0,0.0,0.0,0.0,0.0,0.0,0.0,0.0,0.0,0.0,0.0,0.0,0.0,0.0,0.0,0.0,0.0,0.0,0.0,0.0,0.0,0.0,0.0,0.0,0.0,0.0,0.0,0.0,0.0,0.0,0.0,0.0,0.0,0.0,0.0,0.0,0.0,0.0,0.0,0.0,0.0,0.0,0.0,0.0,0.0,0.0,0.0,0.0,0.0,0.0,0.0,0.0,0.0,0.0,0.0,0.0,0.0,0.0,0.0,0.0,0.0,0.0,0.0,0.0,0.0,0.0,0.0,0.0,0.0,0.0,0.0,0.0,0.0,0.0,0.0,0.0,0.0,0.0,0.0,0.0,0.0,0.0,0.0,0.0,0.0,0.0,0.0,0.0,0.0,0.0,0.0,0.0,0.0,0.0,0.0,0.0,0.0,0.0,0.0,0.0,0.0,0.0,0.0,0.0,0.0,0.0,0.0,0.0,0.0,0.0,0.0,0.0,0.0,0.0,0.0,0.0,0.0,0.0,0.0,0.0,0.0,0.0,0.0,0.0,0.0,0.0,0.0,0.0,0.0,0.0,0.0,0.0,0.0,0.0,0.0,0.0,0.0,0.0,0.0,0.0,0.0,0.0,0.0,0.0,0.0,0.0,0.0,0.0,0.0,0.0,0.0,0.0,0.0,0.0,0.0,0.0,0.0,0.0,0.0,0.0,0.0,0.0,0.0,0.0,0.0,0.0,0.0,0.0,0.0,0.0,0.0,0.0,0.0,0.0,0.0,0.0,0.0,0.0,0.0,0.0,0.0,0.0,0.0,0.0,0.0,0.0,0.0,0.0,0.0,0.0,0.0,0.0,0.0,0.0,0.0,0.0,0.0,0.0,0.0,0.0,0.0,0.0,0.0,0.0,0.0,0.0,0.0,0.0,0.0,0.0,0.0,0.0,0.0,0.0,0.0,0.0,0.0,0.0,0.0,0.0,0.0,0.0,0.0,0.0,0.0,0.0,0.0,0.0,0.0,0.0,0.0,0.0,0.0,0.0,0.0,0.0,0.0,0.0,0.0,0.0,0.0,0.0,0.0,0.0,0.0,0.0,0.0,0.0,0.0,0.0,0.0,0.0,0.0,0.0,0.0,0.0,0.0,0.0,0.0,0.0,0.0,0.0,0.0,0.0,0.0,0.0,0.0,0.0,0.0,0.0,0.0,0.0,0.0,0.0,0.0,0.0,0.0,0.0,0.0,0.0,0.0,0.0,0.0,0.0,0.0,0.0,0.0,0.0,0.0,0.0,0.0,0.0,0.0,0.0,0.0,0.0,0.0,0.0,0.0,0.0,0.0,0.0,0.0,0.0,0.0,0.0,0.0,0.0,0.0,0.0,0.0,0.0,0.0,0.0,0.0,0.0,0.0,0.0,0.0,0.0,0.0,0.0,0.0,0.0,0.0,0.0,0.0,0.0,0.0,0.0,0.0,0.0,0.0,0.0,0.0,0.0,0.0,0.0,0.0,0.0,0.0,0.0,0.0,0.0,0.0,0.0,0.0,0.0,0.0,0.0,0.0,0.0,0.0,0.0,0.0,0.0,0.0,0.0,0.0,0.0,0.0,0.0,0.0,0.0,0.0,0.0,0.0,0.0,0.0,0.0,0.0,0.0,0.0,0.0,0.0,0.0,0.0,0.0,0.0,0.0,0.0,0.0,0.0,0.0,0.0,0.0,0.0,0.0,0.0,0.0,0.0,0.0,0.0,0.0,0.0,0.0,0.0,0.0,0.0,0.0,0.0,0.0,0.0,0.0,0.0,0.0,0.0,0.0,0.0,0.0,0.0,0.0,0.0,0.0,0.0,0.0,0.0,0.0,0.0,0.0,0.0,0.0,0.0,0.0,0.0,0.0,0.0,0.0,0.0,0.0,0.0,0.0,0.0,0.0,0.0,0.0,0.0,0.0,0.0,0.0,0.0,0.0,0.0,0.0,0.0,0.0,0.0,0.0,0.0,0.0,0.0,0.0,0.0,0.0,0.0,0.0,0.0,0.0,0.0,0.0,0.0,0.0,0.0,0.0,0.0,0.0,0.0,0.0,0.0,0.0,0.0,0.0,0.0,0.0,0.0,0.0,0.0,0.0,0.0,0.0,0.0,0.0,0.0,0.0,0.0,0.0,0.0,0.0,0.0,0.0,0.0,0.0,0.0,0.0,0.0,0.0,0.0,0.0,0.0,0.0,0.0,0.0,0.0,0.0,0.0,0.0,0.0,0.0,0.0,0.0,0.0,0.0,0.0,0.0,0.0,0.0,0.0,0.0,0.0,0.0,0.0,0.0,0.0,0.0,0.0,0.0,0.0,0.0,0.0,0.0,0.0,0.0,0.0,0.0,0.0,0.0,0.0,0.0,0.0,0.0,0.0,0.0,0.0,0.0,0.0,0.0,0.0,0.0,0.0,0.0,0.0,0.0,0.0,0.0,0.0,0.0,0.0,0.0,0.0,0.0,0.0,0.0,0.0,0.0,0.0,0.0,0.0,0.0,0.0,0.0,0.0,0.0,0.0,0.0,0.0,0.0,0.0,0.0,0.0,0.0,0.0,0.0,0.0,0.0,0.0,0.0,0.0,0.0,0.0,0.0,0.0,0.0,0.0,0.0,0.0,0.0,0.0,0.0,0.0,0.0,0.0,0.0,0.0,0.0,0.0,0.0,0.0,0.0,0.0,0.0,0.0,0.0,0.0,0.0,0.0,0.0,0.0,0.0,0.0,0.0,0.0,0.0,0.0,0.0,0.0,0.0,0.0,0.0,0.0,0.0,0.0,0.0,0.0,0.0,0.0,0.0,0.0,0.0,0.0,0.0,0.0,0.0,0.0,0.0,0.0,0.0,0.0,0.0,0.0,0.0,0.0,0.0,0.0,0.0,0.0,0.0,0.0,0.0,0.0,0.0,0.0,0.0,0.0,0.0,0.0,0.0,0.0,0.0,0.0,0.0,0.0,0.0,0.0,0.0,0.0,0.0,0.0,0.0,0.0,0.0,0.0,0.0,0.0,0.0,0.0,0.0,0.0,0.0,0.0,0.0,0.0,0.0,0.0,0.0,0.0,0.0,0.0,0.0,0.0,0.0,0.0,0.0,0.0,0.0,0.0,0.0,0.0,0.0,0.0,0.0,0.0,0.0,0.0,0.0,0.0,0.0,0.0,0.0,0.0,0.0,0.0,0.0,0.0,0.0,0.0,0.0,0.0,0.0,0.0,0.0,0.0,0.0,0.0,0.0,0.0,0.0,0.0,0.0,0.0,0.0,0.0,0.0,0.0,0.0,0.0,0.0,0.0,0.0,0.0,0.0,0.0,0.0,0.0,0.0,0.0,0.0,0.0,0.0,0.0,0.0,0.0,0.0,0.0,0.0,0.0,0.0,0.0,0.0,0.0,0.0,0.0,0.0,0.0,0.0,0.0,0.0,0.0,0.0,0.0,0.0,0.0,0.0,0.0,0.0,0.0,0.0,0.0,0.0,0.0,0.0,0.0,0.0,0.0,0.0,0.0,0.0,0.0,0.0,0.0,0.0,0.0,0.0,0.0,0.0,0.0,0.0,0.0,0.0,0.0,0.0,0.0,0.0,0.0,0.0,0.0,0.0,0.0,0.0,0.0,0.0,0.0,0.0,0.0,0.0,0.0,0.0,0.0,0.0,0.0,0.0,0.0,0.0,0.0,0.0,0.0,0.0,0.0,0.0,0.0,0.0,0.0,0.0,0.0,0.0,0.0,0.0,0.0,0.0,0.0,0.0,0.0,0.0,0.0,0.0,0.0,0.0,0.0,0.0,0.0,0.0,0.0,0.0,0.0,0.0,0.0,0.0,0.0,0.0,0.0,0.0,0.0,0.0,0.0,0.0,0.0,0.0,0.0,0.0,0.0,0.0,0.0,0.0,0.0,0.0,0.0,0.0,0.0,0.0,0.0,0.0,0.0,0.0,0.0,0.0,0.0,0.0,0.0,0.0,0.0,0.0,0.0,0.0,0.0,0.0,0.0,0.0,0.0,0.0,0.0,0.0,0.0,0.0,0.0,0.0,0.0,0.0,0.0,0.0,0.0,0.0,0.0,0.0,0.0,0.0,0.0,0.0,0.0,0.0,0.0,0.0,0.0,0.0,0.0,0.0,0.0,0.0,0.0,0.0,0.0,0.0,0.0,0.0,0.0,0.0,0.0,0.0,0.0,0.0,0.0,0.0,0.0,0.0,0.0,0.0,0.0,0.0,0.0,0.0,0.0,0.0,0.0,0.0,0.0,0.0,0.0,0.0,0.0,0.0,0.0,0.0,0.0,0.0,0.0,0.0,0.0,0.0,0.0,0.0,0.0,0.0,0.0,0.0,0.0,0.0,0.0,0.0,0.0,0.0,0.0,0.0,0.0,0.0,0.0,0.0,0.0,0.0,0.0,0.0,0.0,0.0,0.0,0.0,0.0,0.0,0.0,0.0,0.0,0.0,0.0,0.0,0.0,0.0,0.0,0.0,0.0,0.0,0.0,0.0,0.0,0.0,0.0,0.0,0.0,0.0,0.0,0.0,0.0,0.0,0.0,0.0,0.0,0.0,0.0,0.0,0.0,0.0,0.0,0.0,0.0,0.0,0.0,0.0,0.0,0.0,0.0,0.0,0.0,0.0,0.0,0.0,0.0,0.0,0.0,0.0,0.0,0.0,0.0,0.0,0.0,0.0,0.0,0.0,0.0,0.0,0.0,0.0,0.0,0.0,0.0,0.0,0.0,0.0,0.0,0.0,0.0,0.0,0.0,0.0,0.0,0.0,0.0,0.0,0.0,0.0,0.0,0.0,0.0,0.0,0.0,0.0,0.0,0.0,0.0,0.0,0.0,0.0,0.0,0.0,0.0,0.0,0.0,0.0,0.0,0.0,0.0,0.0,3.3669,3.2936,0.0,0.0,0.0,0.0,0.0,0.0,0.0,0.0,0.0,0.0,0.0,0.0,0.0,0.0,0.0,0.0,0.0,0.0,0.0,0.0,0.0,0.0,0.0,0.0,0.0,0.0,0.0,0.0,0.0,0.0,0.0,0.0,0.0,0.0,0.0,0.0,0.0,3.0505,3.0892,3.1551,3.2425,3.2035,3.1651,3.1255,0.0,0.0,0.0,0.0,0.0,0.0,0.0,0.0,0.0,0.0,0.0,0.0,0.0,0.0,0.0,0.0,0.0,0.0,0.0,0.0,0.0,0.0,0.0,0.0,0.0,0.0,0.0,0.0,0.0,0.0,0.0,0.0,0.0,0.0,0.0,0.0,0.0,0.0,0.0,0.0,0.0,0.0,0.0,0.0,0.0,0.0,0.0,0.0,0.0,0.0,0.0,0.0,0.0,0.0,0.0,0.0,0.0,0.0,0.0,0.0,0.0,0.0,0.0,0.0,0.0,0.0,0.0,0.0,0.0,0.0,3.4027,3.3701,0.0,0.0,0.0,0.0,0.0,0.0,0.0,0.0,0.0,0.0,0.0,0.0,0.0,0.0,0.0,0.0,0.0,0.0,0.0,0.0,0.0,0.0,0.0,3.0768,3.079,3.0801,3.08,3.0796,0.0,0.0,0.0,0.0,0.0,0.0,3.0413,3.0392,3.0458,3.0612,3.1623,3.249,3.3191,3.3166,3.2801,3.2189,3.1313,0.0,0.0,0.0,0.0,0.0,0.0,0.0,0.0,0.0,0.0,0.0,0.0,0.0,0.0,0.0,0.0,0.0,0.0,0.0,0.0,0.0,0.0,0.0,0.0,0.0,0.0,0.0,0.0,0.0,0.0,0.0,0.0,0.0,0.0,0.0,0.0,0.0,0.0,0.0,0.0,0.0,0.0,0.0,0.0,0.0,0.0,0.0,0.0,0.0,0.0,0.0,0.0,0.0,0.0,0.0,0.0,0.0,0.0,0.0,0.0,0.0,0.0,0.0,3.4213,3.4256,3.4244,3.4244,3.4969,3.6146,3.4806,3.4914,3.5802,3.314,0.0,0.0,0.0,0.0,0.0,0.0,0.0,0.0,0.0,0.0,0.0,0.0,0.0,0.0,0.0,0.0,0.0,0.0,0.0,0.0,0.0,3.0799,3.079,3.0801,3.0795,3.0774,3.0715,0.0,0.0,0.0,0.0,0.0,3.0402,3.0344,3.0694,3.1431,3.3006,3.3846,3.3947,3.3781,3.3639,3.3508,3.2928,3.2681,3.2624,0.0,0.0,0.0,0.0,0.0,0.0,0.0,0.0,0.0,0.0,0.0,0.0,0.0,0.0,0.0,0.0,0.0,0.0,0.0,0.0,0.0,0.0,0.0,0.0,0.0,0.0,0.0,0.0,0.0,0.0,0.0,0.0,0.0,0.0,0.0,0.0,0.0,0.0,0.0,0.0,0.0,3.7337,3.7024,0.0,0.0,0.0,0.0,0.0,0.0,0.0,0.0,0.0,0.0,0.0,0.0,0.0,3.6094,3.6122,3.6814,3.7022,3.6796,3.7491,3.7749,3.7558,3.7558,3.7667,3.7866,3.7649,0.0,3.6798,3.6363,0.0,0.0,0.0,0.0,0.0,0.0,0.0,0.0,0.0,0.0,0.0,0.0,0.0,0.0,0.0,0.0,0.0,0.0,0.0,0.0,0.0,3.1231,3.1532,3.1523,3.1971,3.2018,3.1475,3.1432,0.0,0.0,0.0,3.0442,3.0356,3.079,3.1668,3.3012,3.3705,3.4274,3.4715,3.4499,3.4412,3.4393,3.4011,3.3308,3.2414,3.2184,0.0,0.0,0.0,0.0,0.0,0.0,0.0,0.0,0.0,0.0,0.0,0.0,0.0,0.0,0.0,0.0,0.0,0.0,0.0,0.0,0.0,0.0,0.0,0.0,0.0,0.0,0.0,0.0,0.0,0.0,0.0,0.0,0.0,0.0,0.0,0.0,0.0,0.0,0.0,3.6631,3.6606,3.6427,3.6104,3.5709,0.0,0.0,0.0,0.0,0.0,0.0,0.0,0.0,0.0,3.7318,3.7229,3.7442,3.7997,3.8257,3.8327,3.821,3.8389,3.851,3.8578,3.8307,3.8274,3.8368,3.8368,3.8168,3.7767,3.6856,3.5914,3.4932,0.0,0.0,0.0,0.0,3.4005,3.4346,0.0,0.0,0.0,0.0,0.0,0.0,0.0,0.0,0.0,0.0,0.0,0.0,3.1133,3.1914,3.243,3.2422,3.3027,3.3004,3.2065,3.2002,3.1584,3.0643,3.0472,3.0359,3.0304,3.1335,3.2601,3.4087,3.424,3.4617,3.5209,3.4982,3.487,3.4773,3.4548,3.3768,3.2627,3.2637,3.2185,3.1487,0.0,0.0,0.0,0.0,0.0,0.0,0.0,0.0,0.0,0.0,0.0,0.0,0.0,0.0,0.0,0.0,0.0,0.0,0.0,0.0,0.0,0.0,0.0,0.0,0.0,0.0,0.0,0.0,0.0,0.0,0.0,0.0,0.0,0.0,0.0,0.0,0.0,3.6479,3.649,3.6235,3.6385,3.6179,0.0,0.0,0.0,0.0,0.0,0.0,3.7169,3.6991,3.7336,3.8383,3.8263,3.8561,3.9309,3.9092,3.8979,3.8979,3.8725,3.8713,3.891,3.8546,3.8451,3.8603,3.8603,3.8634,3.8584,3.7342,3.6636,3.6224,3.5008,3.4289,3.3994,3.4471,3.4678,3.4976,0.0,0.0,0.0,0.0,0.0,0.0,0.0,0.0,0.0,0.0,0.0,3.2031,3.2031,3.2812,3.3328,3.3339,3.3379,3.3004,3.2065,3.2002,3.1584,3.0643,3.0472,3.0359,3.0304,3.1847,3.3111,3.4087,3.4795,3.5171,3.5209,3.4982,3.4773,3.4508,3.4321,3.4265,3.4339,3.3569,3.3231,3.3043,3.1447,0.0,0.0,0.0,0.0,0.0,0.0,0.0,0.0,0.0,0.0,0.0,0.0,0.0,0.0,0.0,0.0,0.0,0.0,0.0,0.0,0.0,0.0,0.0,0.0,0.0,0.0,0.0,0.0,0.0,0.0,0.0,0.0,0.0,0.0,0.0,0.0,0.0,0.0,3.7163,3.7718,0.0,0.0,0.0,0.0,3.7024,3.6876,3.7206,3.8164,3.8028,3.8402,3.9502,3.9521,3.9539,3.9577,3.9309,3.9183,3.9183,3.8979,3.891,3.891,3.8881,3.8862,3.8862,3.8862,3.9007,3.9137,3.8857,3.7858,3.6481,3.6325,3.5248,3.4017,3.5725,3.6297,3.6445,0.0,0.0,0.0,0.0,0.0,0.0,0.0,0.0,3.1642,3.2205,3.2669,3.2949,3.2949,3.371,3.4239,3.4248,3.4756,3.4667,3.3724,3.3152,3.2435,3.1542,3.0886,3.1014,3.2076,3.309,3.4068,3.5002,3.5132,3.5209,3.5209,3.4982,3.4851,3.4753,3.4505,3.442,3.4467,3.405,3.3478,3.2821,3.2411,3.1619,0.0,0.0,0.0,0.0,0.0,0.0,0.0,0.0,0.0,0.0,0.0,0.0,0.0,0.0,0.0,0.0,0.0,0.0,0.0,0.0,0.0,0.0,0.0,0.0,0.0,0.0,0.0,0.0,0.0,0.0,0.0,0.0,0.0,0.0,0.0,0.0,0.0,3.7423,3.8005,0.0,3.7197,3.7568,3.7868,3.7868,3.8327,3.8758,3.9107,3.9077,3.9208,3.9602,3.9602,3.9602,3.9602,3.9527,3.9458,3.9458,3.9202,3.9175,3.9328,3.9054,3.8979,3.9073,3.9073,3.9129,3.921,3.9328,3.8999,3.8502,3.8476,3.8044,3.7545,3.8193,3.8327,3.8248,0.0,0.0,0.0,0.0,0.0,0.0,0.0,0.0,3.2477,3.305,3.3535,3.3809,3.3809,3.4602,3.5135,3.5135,3.5662,3.5481,3.4272,3.3621,3.2775,3.1605,3.1227,3.1824,3.349,3.394,3.4616,3.5562,3.5374,3.5273,3.5273,3.5089,3.4964,3.4889,3.4714,3.4572,3.4486,3.4348,3.3839,3.3135,3.3078,3.2385,3.1318,0.0,0.0,0.0,0.0,0.0,0.0,0.0,0.0,0.0,0.0,0.0,0.0,0.0,0.0,0.0,0.0,0.0,0.0,0.0,0.0,0.0,0.0,0.0,0.0,0.0,0.0,0.0,0.0,0.0,0.0,0.0,0.0,0.0,0.0,3.8137,3.8536,3.7605,3.84,3.8674,3.7709,3.8291,3.8732,3.8732,3.9258,3.9602,3.9602,3.9602,3.9602,3.9602,3.9602,3.9602,3.9602,3.9602,3.9602,3.9596,3.9432,3.9432,3.9577,3.9275,3.9202,3.9335,3.9335,3.9335,3.9335,3.9527,3.9602,3.9596,3.9571,3.952,3.9469,3.9425,3.9301,3.9156,0.0,0.0,0.0,0.0,0.0,0.0,3.2801,3.2987,3.3044,3.3082,3.3988,3.4631,3.4631,3.544,3.5991,3.5991,3.5991,3.5281,3.3593,3.3374,3.2531,3.0823,3.1538,3.2744,3.4361,3.4367,3.4781,3.5698,3.5502,3.5393,3.5412,3.5273,3.5107,3.4908,3.4908,3.4754,3.4532,3.451,3.4416,3.4147,3.3366,3.3032,3.2966,0.0,0.0,0.0,0.0,0.0,0.0,0.0,0.0,0.0,0.0,0.0,0.0,0.0,0.0,0.0,0.0,0.0,0.0,0.0,0.0,0.0,0.0,0.0,0.0,0.0,0.0,0.0,0.0,0.0,0.0,0.0,0.0,0.0,3.8108,3.8517,3.8665,3.7879,3.9051,3.9572,3.8738,3.9218,3.9602,3.9602,3.9602,3.9602,3.9602,3.9602,3.9602,3.9602,3.9602,3.9602,3.9602,3.9602,3.9602,3.9602,3.9602,3.9602,3.9602,3.9602,3.9602,3.9602,3.9602,3.9602,3.9602,3.9602,3.9602,3.9577,3.952,3.9469,3.9373,3.9256,3.9156,3.9101,0.0,0.0,0.0,0.0,0.0,0.0,3.3493,3.3807,3.4176,3.4795,3.5174,3.5403,3.5403,3.5702,3.5929,3.5929,3.5978,3.5788,3.5254,3.4062,3.2886,3.175,3.3099,3.4066,3.453,3.504,3.5433,3.5702,3.5546,3.5477,3.5477,3.5432,3.5391,3.5331,3.5331,3.5297,3.522,3.5073,3.4921,3.4756,3.4327,3.3789,3.3205,0.0,0.0,0.0,0.0,0.0,0.0,0.0,0.0,0.0,0.0,0.0,0.0,0.0,0.0,0.0,0.0,0.0,0.0,0.0,0.0,0.0,0.0,0.0,0.0,0.0,0.0,0.0,0.0,0.0,0.0,0.0,3.8779,3.9398,3.911,3.9766,4.014,3.9784,4.0085,4.0191,3.9795,3.9783,3.9823,3.9823,3.9679,3.9602,3.9602,3.9602,3.9602,3.9602,3.9602,3.9602,3.9602,3.9602,3.9602,3.9602,3.9602,3.9602,3.9602,3.9602,3.9602,3.9602,3.9602,3.9602,3.9602,3.9602,3.9602,3.9596,3.9596,3.9552,3.9527,3.9451,3.9309,3.9156,0.0,0.0,0.0,0.0,0.0,0.0,3.4086,3.4435,3.474,3.524,3.5449,3.5532,3.5532,3.5702,3.5827,3.5827,3.5904,3.5786,3.5374,3.4138,3.332,3.3149,3.4083,3.4766,3.5137,3.5919,3.6323,3.6323,3.6561,3.6483,3.6133,3.6096,3.5883,3.5553,3.5553,3.5542,3.5527,3.5418,3.5526,3.5741,3.5577,3.4925,3.4074,3.4618,3.4633,3.4482,3.5302,3.5726,3.5963,3.6426,0.0,0.0,0.0,0.0,0.0,0.0,0.0,0.0,0.0,0.0,0.0,0.0,0.0,0.0,0.0,0.0,0.0,0.0,0.0,0.0,0.0,0.0,0.0,0.0,3.9487,4.0048,4.0041,4.0474,4.0765,4.0646,4.0554,4.0457,4.0339,4.0139,4.002,4.002,3.9914,3.9804,3.975,3.9727,3.9727,3.9727,3.9727,3.9727,3.9727,3.9727,3.9679,3.9602,3.9602,3.9602,3.9602,3.9602,3.9602,3.9602,3.9602,3.9602,3.9602,3.9602,3.9602,3.9602,0.0,0.0,0.0,0.0,3.9335,3.9298,0.0,0.0,0.0,0.0,0.0,0.0,3.4565,3.4851,3.4908,3.4908,3.5111,3.5254,3.5254,3.5469,3.5611,3.5611,3.5663,3.5346,3.4489,3.4036,3.4081,3.4703,3.4918,3.5385,3.6161,3.6942,3.7331,3.7348,3.8011,3.7936,3.7171,3.7116,3.6664,3.5937,3.5937,3.5923,3.5929,3.5929,3.6338,3.6977,3.6988,3.6323,3.5474,3.6535,3.6954,3.7063,3.7945,3.8273,3.8286,3.8286,0.0,0.0,0.0,0.0,0.0,0.0,0.0,0.0,0.0,0.0,0.0,0.0,0.0,0.0,0.0,0.0,0.0,0.0,0.0,0.0,0.0,0.0,0.0,0.0,4.0234,4.0803,4.0808,4.0796,4.079,4.079,4.0646,4.0519,4.0519,4.0356,4.0233,4.0233,4.0214,4.012,3.9937,3.9916,0.0,0.0,0.0,3.9916,3.9916,3.9916,3.9848,3.9656,3.9656,3.9656,3.9656,3.9656,3.9656,3.9656,3.9656,3.9656,3.9656,3.9656,3.9631,3.9626,3.9602,3.9527,3.9425,3.9237,3.9305,3.9508,0.0,0.0,0.0,0.0,0.0,0.0,3.4569,3.4791,3.4908,3.4908,3.4963,3.4981,3.4981,3.507,3.5153,3.5153,3.4759,3.4234,3.3522,3.5262,3.6054,3.5503,3.6826,3.7689,3.7917,3.8082,3.8199,3.8242,3.8385,3.8375,3.8216,3.8193,3.8092,3.7936,3.7936,3.7933,3.7944,3.7944,3.7961,3.8026,3.8137,3.7902,3.7525,3.7752,3.7873,3.8048,3.893,3.9303,3.9393,3.9393,3.9393,3.9296,3.8578,3.8249,0.0,0.0,0.0,0.0,0.0,0.0,0.0,0.0,0.0,0.0,0.0,0.0,0.0,0.0,0.0,0.0,0.0,0.0,0.0,3.9468,4.0242,4.0803,4.0803,4.0803,4.079,4.079,4.0778,4.0733,4.0733,4.0569,4.0441,4.0441,4.0286,4.0196,4.0158,4.0139,4.0139,4.0139,4.0139,4.0139,4.0139,4.0139,4.012,4.008,4.008,0.0,4.008,4.008,4.008,4.008,4.008,4.008,4.008,4.008,3.9979,3.9845,3.9656,3.9631,3.9642,3.9599,3.9656,3.9731,0.0,0.0,0.0,0.0,0.0,0.0,3.3919,3.4171,3.4311,3.4524,3.467,3.4751,3.4751,3.487,3.494,3.494,3.5094,3.5066,3.4762,3.6346,3.7119,3.6663,3.7486,3.8009,3.8141,3.8583,3.8864,3.9004,3.9435,3.9423,3.8993,3.8993,3.8798,3.8408,3.8408,3.8424,3.8457,3.8457,3.8687,3.9064,3.9117,3.9312,3.9501,3.9093,3.8972,3.911,3.9948,4.0292,4.0351,4.0351,4.0351,4.0273,3.985,3.9424,3.8931,0.0,0.0,0.0,0.0,0.0,0.0,0.0,0.0,0.0,0.0,0.0,0.0,0.0,0.0,3.8427,3.8877,0.0,3.9732,4.0168,4.0587,4.0856,4.0849,4.0823,4.0796,4.0803,4.079,4.079,4.079,4.072,4.0646,4.0646,4.0554,4.0457,4.0356,4.0339,4.0339,4.0339,4.0339,4.0339,4.0339,4.0339,4.0304,4.0196,4.0196,4.0196,4.0196,4.0196,4.0196,4.0196,4.0196,4.0196,4.0196,4.0196,4.0139,4.004,3.9956,3.9807,3.9717,3.9788,3.9878,3.9983,0.0,0.0,0.0,0.0,0.0,0.0,0.0,3.3468,3.3634,3.403,3.425,3.4431,3.4473,3.4649,3.4735,3.4585,3.5533,3.6094,3.601,3.7124,3.7795,3.7795,3.7948,3.8124,3.8298,3.9006,3.9431,3.9615,4.0313,4.0294,3.9615,3.9615,3.9266,3.8655,3.8695,3.8755,3.8819,3.8848,3.9298,3.9999,4.0017,4.0408,4.0897,4.0288,4.0047,4.0115,4.0776,4.0991,4.0991,4.0991,4.0991,4.0991,4.0991,4.0567,3.985,3.8807,3.85,0.0,0.0,0.0,0.0,0.0,0.0,0.0,0.0,3.773,3.7849,3.8707,3.8883,3.9092,3.9811,3.9947,4.0168,4.0881,4.094,4.0902,4.0894,4.0848,4.0809,4.0807,4.08,4.0796,4.0796,4.0796,4.0796,4.0803,4.0803,4.0733,4.0569,4.0569,4.0569,4.0569,4.0569,4.0569,4.0569,4.0569,4.0473,4.0321,4.0321,4.0321,4.0321,4.0321,4.0321,4.0321,4.0321,4.0321,4.0321,4.0321,4.0286,4.0269,4.0304,4.012,3.9854,3.9962,4.012,4.0251,0.0,0.0,0.0,0.0,0.0,0.0,0.0,0.0,3.3207,3.3597,3.3698,3.3787,3.3972,3.4173,3.4064,3.3529,3.4927,3.5598,3.5003,3.7184,3.8493,3.8493,3.9178,3.9622,3.9772,3.9849,3.9953,4.0034,4.013,4.013,4.0034,4.0034,3.9976,3.9899,4.0153,4.0266,4.0269,4.0451,4.0593,4.0704,4.0824,4.0851,4.0828,4.0918,4.0918,4.0873,4.0971,4.0991,4.0991,4.0991,4.0991,4.0991,4.0991,4.0988,4.0624,3.8988,3.851,3.8125,3.6367,3.6658,3.7585,3.827,3.8398,3.8727,0.0,3.9953,3.9638,4.0452,4.0627,4.0661,4.0818,4.0811,4.0803,4.09,4.0894,4.0894,4.0891,4.0886,4.0881,4.0881,4.0837,4.0796,4.0796,4.0796,4.0804,4.08,4.0788,4.0796,4.0778,4.0778,4.0778,4.0778,4.0778,4.0778,4.0778,4.0778,4.0765,4.0733,4.0733,4.0733,4.0733,4.0733,4.0733,4.0733,4.0733,4.0733,4.0733,4.0733,4.0631,4.0489,4.066,4.0549,4.0319,4.0336,4.0441,4.0558,0.0,0.0,0.0,0.0,0.0,0.0,0.0,0.0,0.0,3.335,3.3314,3.3354,3.368,3.3807,3.3766,3.3493,3.4977,3.5806,3.5514,3.7357,3.8479,3.8479,3.8795,3.9069,3.9233,3.9258,3.9387,3.9677,3.9715,3.9813,3.9929,3.9929,3.9929,3.9929,4.0005,4.0076,4.014,4.0188,4.0342,4.0505,4.0583,4.0683,4.082,4.0898,4.0908,4.082,4.0444,4.0292,0.0,4.0292,4.0292,4.039,4.0897,4.0739,4.0111,3.8905,3.8551,3.8506,3.8233,3.8112,3.8263,3.91,3.9307,3.9491,4.0151,4.0058,4.0037,4.0858,4.1012,4.1029,4.1047,4.1047,4.1027,4.1011,4.0982,4.0974,4.1019,4.0984,4.0953,4.0961,4.0925,4.0903,4.0863,4.0855,4.0857,4.0867,4.0829,4.0804,4.081,4.0812,4.079,4.079,4.079,4.079,4.079,4.079,4.079,4.079,4.079,4.079,4.079,4.079,4.079,4.079,4.079,4.079,4.079,4.079,4.0746,4.0673,4.0778,4.0733,4.0626,4.0598,4.0603,4.0588,0.0,0.0,0.0,0.0,0.0,0.0,0.0,0.0,0.0,0.0,3.2872,3.2996,3.3379,3.353,3.3577,3.353,3.4834,3.5757,3.5915,3.7226,3.8081,3.83,3.8318,3.8392,3.8626,3.8626,3.8765,3.904,3.9096,3.9149,3.9214,3.9214,3.9214,3.9214,3.9239,3.9373,3.9564,3.9586,3.9776,4.012,4.0215,4.0395,4.0616,4.074,4.0635,4.0364,3.9925,3.9763,3.9747,3.9543,3.9468,3.9585,4.021,3.9976,3.9312,3.8473,3.8063,3.8063,3.8882,3.8866,3.8793,3.9605,4.0023,4.0223,4.0174,4.0196,4.0396,4.0982,4.1101,4.1105,4.1107,4.1108,4.1108,4.1105,4.1054,4.1035,4.1094,4.1052,4.1125,4.1362,4.1382,4.1458,4.1646,4.1228,4.0928,4.0925,4.0879,4.0858,4.0821,4.0859,4.0856,4.0856,4.0856,4.0856,4.0856,4.0856,4.0856,4.0856,4.0856,4.0856,4.0856,4.0856,4.0856,4.0856,4.0856,4.0856,4.0856,4.0856,4.0856,4.0856,4.0856,4.0856,4.0856,4.0804,4.072,4.0617,0.0,0.0,0.0,0.0,0.0,0.0,0.0,0.0,0.0,0.0,0.0,0.0,0.0,3.3379,3.353,3.3321,3.4248,3.5078,3.5675,3.649,3.7286,3.8065,3.8101,3.8201,3.8415,3.8415,3.83,3.815,3.815,3.8013,3.7753,3.7753,3.7753,3.7787,3.8031,3.8377,3.8756,3.8939,3.9276,3.9649,3.9986,4.0116,4.0176,4.0629,4.0225,3.9483,3.9641,3.9708,3.9583,3.8873,3.8632,3.8632,3.8671,3.8671,3.8473,3.7594,3.6735,3.6267,3.7145,3.7965,3.8788,3.9605,4.0444,4.1052,4.1049,4.1055,4.108,4.1099,4.1099,4.1101,4.1107,4.1103,4.1099,4.1099,4.1099,4.1099,4.1091,4.1091,4.1404,4.2262,4.236,4.2692,4.3531,4.203,4.1007,4.0996,4.1003,4.0969,4.09,4.0955,4.0987,4.0987,4.0987,4.0987,4.0987,4.0987,4.0987,4.0987,4.0987,4.0987,4.0987,4.0987,4.0987,4.0987,4.0987,4.0987,4.0987,4.0987,4.0987,4.0987,4.0987,4.0987,4.0987,4.0987,4.0869,4.07,0.0,0.0,0.0,0.0,0.0,0.0,0.0,0.0,0.0,0.0,0.0,0.0,0.0,0.0,0.0,0.0,3.2897,3.3458,3.3612,3.4818,3.564,3.5902,3.6369,3.6689,3.6751,3.6751,3.6755,3.6858,3.6858,3.6861,3.6978,3.7254,3.7362,3.7381,3.763,3.7821,3.7975,3.83,3.8589,3.8906,3.9277,3.9534,3.9678,3.9487,3.9243,3.8911,0.0,3.7877,3.7875,3.7631,3.754,3.7637,3.8228,3.7988,3.7365,3.6482,3.6437,3.6846,3.7728,3.8636,3.9521,4.0379,4.0855,4.1108,4.1108,4.1091,4.1094,4.1094,4.1097,4.1099,4.1097,4.1097,4.1292,4.1872,4.195,4.2165,4.2747,4.2825,4.2923,4.3235,4.3255,4.3372,4.3665,4.3143,4.2792,4.2791,4.2741,4.2721,4.2695,4.2661,4.2668,4.2656,4.2656,4.2383,4.1792,4.1792,4.1539,4.0994,4.0994,4.0994,4.0994,4.0994,4.0994,4.0994,4.0994,4.0994,4.0994,4.0994,4.0994,4.0994,4.0994,4.0994,4.0994,4.0994,4.096,4.0904,0.0,0.0,0.0,0.0,0.0,0.0,0.0,0.0,0.0,0.0,0.0,0.0,0.0,0.0,0.0,0.0,0.0,3.2312,3.2429,3.3332,3.3997,3.4269,3.4746,3.5045,3.5112,3.5112,3.512,3.5177,3.5452,3.5656,3.5745,3.6244,3.6504,3.6504,3.6812,3.7041,3.7193,3.7524,3.7697,3.7772,3.8287,3.8422,3.8359,3.8196,3.8041,0.0,3.6983,3.6549,3.6383,3.6511,3.6545,3.6642,3.7186,3.6992,3.6479,3.6237,3.6567,3.7247,3.8421,3.9163,3.9843,4.0719,4.0948,4.0983,4.0983,4.0983,4.1008,4.1046,4.1055,4.1078,4.1108,4.1345,4.166,4.1908,4.2201,4.2591,4.3157,4.3235,4.3469,4.4094,4.4153,4.4289,4.4602,4.4638,4.4366,4.3746,4.3652,4.365,4.3632,4.3583,4.3564,4.3572,4.3572,4.3298,4.2733,4.2733,4.2323,4.1499,4.1499,4.1343,4.107,4.107,4.107,4.107,4.107,4.107,4.107,4.107,4.107,4.107,4.107,4.107,4.107,4.107,4.107,4.1066,0.0,0.0,0.0,0.0,0.0,0.0,0.0,0.0,0.0,0.0,0.0,0.0,0.0,0.0,0.0,0.0,0.0,0.0,3.2063,3.2107,3.2486,3.3237,3.3305,3.343,3.3624,3.3624,3.3519,3.3322,3.4032,3.4273,3.4086,3.4743,3.5061,3.5061,3.547,3.5891,3.6277,3.6619,3.6602,3.6362,3.6984,3.6849,3.6332,3.6896,3.6684,3.6102,3.6268,3.5823,3.5235,3.5581,3.5724,3.5763,3.5801,3.5821,3.5976,3.6802,3.7074,3.7462,3.9063,3.951,3.9772,4.0587,4.0801,4.081,4.081,4.081,4.0837,4.0954,4.0987,4.1006,4.1078,4.1807,4.2139,4.1358,4.1967,4.2552,4.2591,4.2591,4.3216,4.4875,4.507,4.5382,4.6222,4.63,4.5617,4.3957,4.3827,4.3835,4.382,4.3824,4.3827,4.3828,4.3828,4.3808,4.3769,4.3711,4.3281,4.2461,4.2461,4.2031,4.1269,4.1269,4.123,4.1191,4.1191,4.1191,4.1191,4.1191,4.1191,4.1191,4.1191,4.1191,4.1191,4.1191,4.1191,4.1171,0.0,0.0,0.0,0.0,0.0,0.0,0.0,0.0,0.0,0.0,0.0,0.0,0.0,0.0,0.0,0.0,0.0,0.0,3.0478,3.0942,3.1319,3.1516,3.204,3.2364,3.2438,3.2438,3.2409,3.238,3.2577,3.2613,3.2583,3.2961,3.3181,3.3226,3.3627,3.3956,3.435,3.4701,3.4999,3.519,3.5818,3.6006,3.5853,3.5963,3.5885,3.5691,3.54,3.5153,3.5054,3.543,3.5958,3.6575,3.7212,3.7424,3.7463,3.7694,3.8196,3.8813,3.9237,3.9857,4.0452,4.0665,4.0751,4.081,4.081,4.081,4.082,4.0837,4.0846,4.0855,4.0879,4.1669,4.246,4.2889,4.3743,4.4563,4.5207,4.5304,4.546,4.5929,4.5968,4.6066,4.628,4.63,4.6124,4.5675,4.564,4.5646,4.5637,4.5639,4.5642,4.5644,4.5644,4.5332,4.4668,4.4023,4.3594,4.3379,4.3379,4.293,4.209,4.209,4.1777,4.1191,4.1191,4.1191,4.1191,4.1191,4.1191,4.1191,4.1191,4.1191,4.1191,4.1191,4.1191,4.1191,0.0,0.0,0.0,0.0,0.0,0.0,0.0,0.0,0.0,0.0,0.0,0.0,0.0,0.0,0.0,0.0,0.0,0.0,0.0,3.0247,3.0457,3.0457,3.0846,3.0965,3.0701,3.0717,3.0717,3.0717,3.1005,3.1307,3.1542,3.202,3.2289,3.2305,3.268,3.3014,3.3355,3.375,3.3934,0.0,0.0,3.4745,3.4491,3.4784,3.4933,3.4931,3.4819,3.5057,3.5515,3.6094,3.6734,3.7353,3.7853,3.8007,3.8084,3.845,3.8911,3.9373,3.9719,4.0217,4.0602,4.0602,4.0649,4.066,4.066,4.066,4.0692,4.0749,4.0759,4.077,4.0781,4.1885,4.2813,4.2911,4.4,4.4994,4.5488,4.5547,4.5703,4.6073,4.6112,4.6112,4.6112,4.6112,4.6112,4.6112,4.6221,4.6306,4.6297,4.63,4.6305,4.6308,4.6308,4.6074,4.5586,4.5098,4.4648,4.4277,4.4277,4.3808,4.2969,4.2969,4.2715,4.2285,4.1894,4.1738,4.1699,4.1348,4.1191,4.1191,4.1191,4.1191,4.1191,4.1191,4.1191,4.1191,0.0,0.0,0.0,0.0,0.0,0.0,0.0,0.0,0.0,0.0,0.0,0.0,0.0,0.0,0.0,0.0,0.0,0.0,0.0,0.0,2.9918,2.9918,2.9918,2.9665,2.912,2.9182,2.9182,2.9074,2.9752,3.0304,3.0797,3.1429,3.172,3.172,3.2056,3.2365,3.2739,3.3068,3.3037,3.2824,3.3494,3.3419,3.2996,0.0,3.3979,3.4148,3.445,3.5197,3.6174,3.699,3.7641,3.8151,3.8266,3.8319,3.8469,3.9238,3.945,3.9604,4.0296,4.0489,4.0489,4.0489,4.0489,4.0489,4.0489,4.0489,4.0534,4.0642,4.0668,4.0687,4.0751,4.2101,4.3004,4.2354,4.3568,4.4646,4.4762,4.4762,4.5054,4.5802,4.5899,4.5899,4.5899,4.5899,4.5899,4.5899,4.6125,4.6253,4.6267,4.6251,4.6256,4.6262,4.6265,4.6268,4.6268,4.6268,4.5897,4.5154,4.5154,4.4686,4.3846,4.3846,4.3787,4.3631,4.2868,4.2556,4.2478,4.1678,4.1326,4.1326,4.1229,4.117,4.117,4.117,4.117,4.117,0.0,0.0,0.0,0.0,0.0,0.0,0.0,0.0,0.0,0.0,2.9918,2.9918,0.0,0.0,0.0,0.0,0.0,0.0,0.0,0.0,0.0,2.9918,2.9918,2.9665,2.912,2.9515,2.956,2.9074,2.9643,2.9992,3.0097,3.0226,3.0275,3.0291,3.0319,3.0678,3.1173,3.1271,3.1562,3.2027,3.2424,3.271,3.2965,3.3411,0.0,0.0,3.4221,3.4936,3.5967,3.6776,3.781,3.8856,3.96,3.9934,4.0085,4.0239,4.0277,4.0315,4.045,4.0489,4.0489,4.0489,4.0489,4.0489,4.0489,4.0489,4.0504,4.0534,4.0534,4.0549,4.0559,4.148,4.2407,4.2918,4.3943,4.4909,4.5589,4.5666,4.5725,4.588,4.5899,4.5899,4.5899,4.5899,4.5899,4.5899,4.594,4.6021,4.6137,4.6033,4.5998,4.6053,4.6105,4.6137,4.6137,4.6137,4.6059,4.5903,4.5903,4.5448,4.461,4.461,4.422,4.3532,4.3376,4.3317,4.3239,4.2387,4.2036,4.1958,4.1295,4.1022,4.1022,4.1022,4.1022,4.1022,0.0,0.0,0.0,0.0,0.0,0.0,0.0,2.9814,2.9918,2.9918,2.9918,2.9918,2.9918,2.9918,2.9918,0.0,0.0,0.0,0.0,0.0,0.0,0.0,2.9918,2.9665,2.912,2.9364,2.938,2.9074,0.0,2.9621,2.9918,2.9918,2.9918,2.9918,2.9918,3.013,3.0543,3.0723,3.1083,3.1579,3.2109,3.247,3.2781,0.0,0.0,0.0,3.4148,3.5094,3.6334,3.6702,3.7901,3.9304,3.9829,4.0139,4.0339,4.0339,4.0425,4.0489,4.0489,4.0489,4.0489,4.0489,4.0489,4.0489,4.0489,4.0489,4.0489,4.0489,4.0489,4.0489,4.0489,4.1258,4.2015,4.2401,4.3612,4.4639,4.5007,4.5471,4.5742,4.5742,4.5742,4.5742,4.5742,4.5742,4.5742,4.5742,4.5742,4.5815,4.5985,4.592,4.5929,4.599,4.6018,4.6052,4.6098,4.6098,4.6098,4.6098,4.6098,4.5884,4.5475,4.5475,4.526,4.4825,4.4377,4.4182,4.4104,4.3247,4.2604,4.2156,4.1792,4.1364,4.0994,4.0994,4.0994,4.0994,0.0,0.0,0.0,0.0,0.0,0.0,0.0,2.9665,2.9814,2.9902,2.9918,2.9918,2.9918,2.9918,2.9918,0.0,0.0,0.0,0.0,0.0,0.0,0.0,0.0,0.0,2.912,0.0,0.0,2.9074,2.9227,0.0,0.0,0.0,0.0,0.0,2.9918,3.0103,3.0418,3.0683,3.1044,0.0,0.0,3.2352,3.2687,0.0,0.0,0.0,0.0,3.5163,3.6463,3.663,3.779,3.9208,3.9557,3.9859,4.012,4.0177,4.0304,4.0457,4.0489,4.0489,4.0489,4.0489,4.0489,4.045,4.0277,4.0373,4.045,4.0277,4.0373,4.0489,4.0489,4.1066,4.1585,4.1777,4.2912,4.3893,4.4239,4.4893,4.5393,4.5566,4.5586,4.5586,4.5586,4.5586,4.5586,4.5586,4.5586,4.568,4.584,4.5859,4.5901,4.594,4.5949,4.5978,4.6044,4.6044,4.6044,4.6044,4.6044,4.6044,4.6044,4.6044,4.6044,4.6005,4.5304,4.5012,4.4945,4.4089,4.333,4.2669,4.2307,4.1782,4.1198,4.1023,4.0964,4.0964,0.0,0.0,0.0,0.0,0.0,0.0,0.0,2.9515,2.9621,2.9874,2.9918,2.9918,2.9918,2.9918,2.9918,0.0,0.0,0.0,0.0,0.0,0.0,0.0,0.0,0.0,0.0,0.0,0.0,2.9074,2.9576,0.0,0.0,0.0,0.0,0.0,0.0,3.0215,3.0764,3.0804,0.0,0.0,0.0,0.0,0.0,0.0,0.0,0.0,0.0,3.481,3.5702,3.6445,3.7307,3.8189,3.8941,3.947,3.9882,4.0139,4.0214,4.0269,4.0457,4.0489,4.0489,4.0489,4.0489,4.0296,3.9565,3.9969,4.0277,3.9546,3.9988,4.0489,4.0489,4.0566,4.0873,4.1681,4.1931,4.2566,4.4085,4.4374,4.4701,4.5509,4.5586,4.5586,4.5586,4.5586,4.5586,4.5586,4.5586,4.5603,4.5618,4.5747,4.5789,4.5719,4.5795,4.5805,4.5838,4.5827,4.5822,4.5822,4.5822,4.5822,4.5822,4.5822,4.5822,4.5822,4.5744,4.5705,4.5647,4.4834,4.4453,4.4221,4.2647,4.1969,4.1814,4.1079,4.0808,4.0808,0.0,0.0,0.0,0.0,0.0,0.0,2.9059,2.9289,2.9515,2.9665,2.9814,2.9918,2.9918,2.9918,2.9918,2.9918,0.0,0.0,0.0,0.0,0.0,0.0,0.0,0.0,0.0,0.0,2.9814,2.9576,2.9814,0.0,0.0,0.0,0.0,0.0,0.0,3.013,3.0502,3.0707,0.0,0.0,0.0,0.0,0.0,0.0,0.0,0.0,0.0,0.0,3.5683,3.6983,3.7634,3.8042,3.8841,3.9227,3.9421,3.9702,3.9859,3.9983,4.0062,4.0082,4.0082,4.0082,3.9812,3.9442,3.9116,3.9445,3.9681,3.9373,3.9931,4.0489,4.0489,4.0489,4.0604,4.095,4.147,4.2027,4.2701,4.3662,4.4432,4.4778,4.5278,4.5586,4.5586,4.5586,4.5586,4.5586,4.5586,4.5586,4.5586,4.5651,4.5684,4.5709,4.5742,4.5754,4.58,4.5795,4.5805,4.58,4.58,4.58,4.58,4.58,4.58,4.58,4.58,4.58,4.578,4.5452,4.5045,4.4543,4.3846,4.3247,4.2686,4.1835,4.1525,4.1448,0.0,0.0,0.0,0.0,0.0,2.8936,2.8842,2.9152,2.9425,2.947,2.971,2.9918,2.9918,2.9918,2.9918,2.9918,2.9918,0.0,0.0,0.0,0.0,0.0,0.0,0.0,0.0,0.0,2.9918,2.9918,2.9918,2.9918,0.0,0.0,2.9918,2.9902,0.0,0.0,0.0,0.0,0.0,0.0,0.0,0.0,0.0,0.0,0.0,0.0,0.0,0.0,0.0,0.0,0.0,3.8339,3.8915,3.9101,3.9137,3.9427,3.9609,3.9709,3.9775,3.9797,3.9797,3.9797,3.9546,3.9221,3.8973,3.9284,3.9585,3.9354,3.9931,4.0489,4.0489,4.0489,4.0489,4.0489,4.1008,4.1508,4.1758,4.2816,4.3739,4.4239,4.4836,4.5316,4.5566,4.5586,4.5586,4.5586,4.5586,4.5586,4.5586,4.5586,4.5622,4.5676,4.569,4.5722,4.5765,4.5795,4.5805,4.58,4.58,4.58,4.58,4.58,4.58,4.58,4.58,4.58,4.58,4.58,4.5471,4.4929,4.4697,4.4233,4.3576,4.2705,4.2222,4.1912,0.0,0.0,0.0,0.0,0.0,0.0,2.9045,2.9075,2.9213,2.947,2.971,2.9918,2.9918,2.9918,2.9918,2.9918,2.9918,0.0,0.0,0.0,0.0,0.0,0.0,0.0,0.0,0.0,2.9918,2.9918,2.9918,2.9918,2.9918,2.9918,2.9918,2.9902,0.0,0.0,0.0,0.0,0.0,0.0,0.0,0.0,0.0,0.0,0.0,0.0,0.0,0.0,0.0,0.0,0.0,0.0,0.0,3.9101,3.9137,3.9427,3.9483,3.9556,3.975,3.9797,3.9797,3.9797,3.9983,3.9947,3.9107,3.9706,4.0258,3.945,3.9931,4.0489,4.0489,4.0489,4.0489,4.0489,4.0508,4.0816,4.1681,4.1816,4.245,4.4105,4.4316,4.4643,4.5509,4.5586,4.5586,4.5586,4.5586,4.5586,4.5586,4.5586,4.5586,4.5586,4.5668,4.57,4.57,4.5771,4.58,4.58,4.58,4.58,4.58,4.58,4.58,4.58,4.58,4.58,4.58,4.58,4.58,4.5703,4.491,4.4601,4.4485,4.3614,4.2744,4.2009,0.0,0.0,0.0,0.0,0.0,0.0,0.0,2.8842,2.892,2.9213,2.9441,2.971,2.9858,2.9918,2.9918,2.9918,2.9918,0.0,0.0,0.0,0.0,0.0,0.0,0.0,0.0,0.0,2.9918,2.9918,2.9918,2.9918,2.9918,2.9918,3.0017,3.0199,3.0267,3.0625,0.0,0.0,0.0,0.0,0.0,0.0,3.2872,0.0,0.0,0.0,0.0,0.0,0.0,0.0,0.0,0.0,0.0,0.0,0.0,3.9192,3.9219,3.9245,3.9287,3.9313,3.9313,3.9313,3.9199,3.9029,3.8743,3.9218,3.9604,3.9354,3.9931,4.0489,4.0489,4.0489,4.0489,4.0489,4.0489,4.0585,4.0873,4.1931,4.2893,4.3412,4.4489,4.5297,4.5566,4.5586,4.5586,4.5586,4.5586,4.5586,4.5586,4.5586,4.5586,4.5586,4.562,4.5651,4.57,4.5712,4.5757,4.58,4.58,4.58,4.58,4.58,4.58,4.58,4.58,4.58,4.58,4.58,4.58,4.5761,4.551,4.5413,4.5316,4.4485,4.402,4.3614,0.0,0.0,0.0,0.0,0.0,0.0,0.0,2.8779,2.8873,2.8936,2.9243,2.956,2.971,2.9814,2.9918,2.9918,2.9918,0.0,0.0,0.0,0.0,0.0,0.0,0.0,2.9918,2.9918,2.9918,2.9918,2.9918,2.9918,2.9918,2.9918,3.0044,3.0293,3.0418,3.0788,0.0,0.0,0.0,0.0,0.0,0.0,3.2872,0.0,0.0,0.0,0.0,0.0,0.0,0.0,0.0,0.0,0.0,0.0,0.0,0.0,3.9101,3.9101,3.9101,3.9101,3.9101,3.9101,3.9033,3.8968,3.9056,3.928,3.9538,3.9723,4.0095,4.0425,4.0489,4.0489,4.0489,4.0489,4.0489,4.0604,4.0931,4.1931,4.2835,4.347,4.4759,4.5586,4.5586,4.5586,4.5586,4.5586,4.5586,4.5586,4.5586,4.5586,4.5586,4.5586,4.5622,4.5673,4.5703,4.5735,4.5761,4.5805,4.58,4.58,4.58,4.58,4.58,4.58,4.58,4.58,0.0,4.58,4.58,4.58,4.58,4.58,4.5742,4.5239,4.4871,4.4446,0.0,0.0,0.0,0.0,0.0,0.0,0.0,2.8889,2.8982,2.8732,2.9152,2.947,2.9486,2.971,2.9874,2.9918,0.0,0.0,0.0,0.0,0.0,0.0,0.0,0.0,2.9918,2.9918,2.9918,2.9918,2.9918,2.9902,2.9946,2.9946,3.0103,3.0377,3.0723,3.1004,0.0,0.0,0.0,0.0,0.0,0.0,0.0,0.0,0.0,0.0,0.0,0.0,0.0,0.0,0.0,0.0,0.0,0.0,0.0,0.0,0.0,0.0,0.0,3.9101,3.9101,3.9101,3.9298,3.9556,3.975,3.9797,0.0,4.0353,4.0304,4.0213,4.0406,4.0438,4.0438,4.0438,4.0438,4.0765,4.1665,4.1876,4.253,4.4088,4.5012,4.5512,4.5454,4.5512,4.5531,4.5531,4.5531,4.5531,4.5531,4.5531,4.555,4.5568,4.5603,4.5657,4.5693,4.5754,4.58,4.58,4.5805,4.58,4.58,4.58,4.58,4.58,4.58,4.58,4.58,4.58,4.58,4.58,4.58,4.58,4.58,4.58,4.5336,4.4678,0.0,0.0,0.0,0.0,0.0,0.0,0.0,0.0,0.0,0.0,2.8826,2.9059,2.947,2.9576,2.9665,0.0,0.0,0.0,0.0,0.0,0.0,0.0,0.0,0.0,2.9918,2.9918,2.9918,2.9918,2.9918,3.0017,3.0199,3.0199,3.0518,3.1083,3.1123,3.1372,0.0,0.0,0.0,0.0,0.0,0.0,0.0,0.0,0.0,0.0,3.5187,3.5739,0.0,0.0,0.0,0.0,0.0,0.0,0.0,0.0,3.9101,3.9101,3.9101,0.0,3.9101,3.9101,3.9298,3.9508,0.0,3.9683,3.984,3.9944,3.9943,3.9922,3.9944,3.9964,3.9964,3.9964,3.9964,4.0329,4.136,4.2604,4.356,4.402,4.4622,4.476,4.4132,4.4627,4.4985,4.4985,4.4985,4.4985,4.4985,4.4985,4.5074,4.5302,4.5096,4.5222,4.5693,4.5726,4.5738,4.58,4.5795,4.5791,4.58,4.58,4.58,4.58,4.58,4.58,4.58,4.58,4.58,4.58,4.58,4.58,4.58,4.58,4.5684,4.5432,0.0,0.0,0.0,0.0,0.0,0.0,0.0,0.0,0.0,0.0,0.0,0.0,0.0,0.0,0.0,0.0,0.0,0.0,0.0,0.0,0.0,0.0,0.0,2.9918,2.9918,2.9918,2.9918,2.9918,2.9918,3.006,3.0293,3.0293,3.0683,3.1295,3.1466,3.1634,0.0,0.0,0.0,0.0,3.2073,0.0,0.0,0.0,0.0,0.0,3.4643,3.5119,0.0,3.5999,3.6928,3.7894,0.0,0.0,0.0,0.0,3.9101,3.9101,3.9101,3.9101,3.9008,3.8637,3.8958,3.9238,3.9008,3.9226,3.9543,3.9754,3.9728,3.9683,3.9775,4.0119,4.0271,3.9873,4.046,4.1146,4.1713,4.2631,4.3354,4.3776,4.406,4.4213,4.4156,4.4535,4.48,4.48,4.48,4.48,4.48,4.48,4.4868,4.5007,4.4891,4.5074,4.564,4.5438,4.5438,4.5651,4.5565,4.5545,4.5613,4.5613,4.5613,4.5613,4.5613,4.5613,4.5613,4.5613,4.5613,4.5613,4.5613,4.5613,4.5613,4.5613,4.5613,4.5555,0.0,0.0,0.0,0.0,0.0,0.0,0.0,0.0,0.0,0.0,0.0,0.0,0.0,0.0,0.0,0.0,0.0,0.0,0.0,0.0,0.0,0.0,2.9946,2.9946,2.9946,3.0033,3.0033,3.0033,3.0033,3.0172,3.046,3.046,3.0788,3.1389,3.1671,3.18,0.0,0.0,0.0,0.0,3.237,0.0,0.0,0.0,0.0,0.0,0.0,0.0,0.0,3.5442,3.6482,3.7745,3.7856,0.0,0.0,0.0,0.0,0.0,3.8952,3.9008,3.8915,3.8098,3.8414,3.8811,3.8334,3.8693,3.92,3.9595,3.9561,3.9545,3.9853,4.0386,4.0613,3.9989,4.1222,4.2304,4.2418,4.2593,4.292,4.3464,4.361,4.3863,4.443,4.4619,4.4676,4.4676,4.4676,4.4676,4.4676,4.4676,4.4701,4.4726,4.4701,4.4938,4.5457,4.5074,4.5052,4.5419,4.5243,4.5243,4.5362,4.54,4.54,4.54,4.54,4.54,4.54,4.54,4.54,4.54,4.54,4.54,4.54,4.54,4.54,4.54,0.0,0.0,0.0,0.0,0.0,0.0,0.0,0.0,0.0,0.0,0.0,0.0,0.0,0.0,0.0,0.0,0.0,0.0,0.0,0.0,0.0,3.0192,3.0225,3.0225,3.0225,3.0518,3.0642,3.0642,3.0642,3.0845,3.114,3.114,3.1334,3.1726,3.18,3.18,3.18,0.0,0.0,0.0,3.2197,0.0,0.0,0.0,0.0,0.0,0.0,0.0,0.0,3.5237,3.611,3.7002,3.7689,0.0,0.0,0.0,0.0,0.0,3.8265,3.8581,3.8915,3.8098,3.7986,3.8069,3.7966,3.8534,3.9129,3.9173,3.9192,3.9407,4.0169,3.9815,3.9591,4.0207,4.1282,4.2265,4.2961,4.3657,4.3882,4.3318,4.3662,4.3729,4.3152,4.3729,4.4121,4.4121,4.4121,4.4121,4.4121,4.4121,4.4221,4.4438,4.425,4.4374,4.4938,4.4849,4.4872,4.5007,4.5074,4.5159,4.5222,4.5342,4.54,4.54,4.54,4.54,4.54,4.54,4.54,4.54,4.54,4.54,4.54,4.54,4.54,4.5381,0.0,0.0,0.0,0.0,0.0,0.0,0.0,0.0,0.0,0.0,0.0,0.0,0.0,0.0,0.0,0.0,0.0,0.0,0.0,0.0,2.9247,2.9823,3.0442,3.074,3.0584,3.0699,3.0781,3.0804,3.0781,3.0942,3.1295,3.1504,3.1634,3.18,3.18,3.18,3.18,3.1984,3.2055,0.0,0.0,0.0,0.0,0.0,0.0,0.0,0.0,0.0,0.0,0.0,3.6017,3.6835,3.7652,0.0,0.0,0.0,0.0,0.0,3.8116,3.7838,3.7708,3.7336,3.7912,3.8432,3.7986,3.8878,3.9658,3.9194,3.9472,3.9918,4.0327,4.042,4.0866,4.2129,4.2033,4.2062,4.2884,4.294,4.2922,4.2978,4.3204,4.3373,4.3448,4.3782,4.4005,4.4005,4.4005,4.4005,4.4005,4.4005,4.4048,4.4162,4.4079,4.4121,4.4393,4.4393,4.4511,4.4745,4.4688,4.4758,4.4929,4.5,4.5045,4.5132,4.5132,4.5132,4.5132,4.5132,4.5132,4.5132,4.5132,4.5132,4.5132,4.5132,4.5132,4.5132,0.0,0.0,0.0,0.0,0.0,0.0,0.0,0.0,0.0,0.0,0.0,0.0,0.0,0.0,0.0,0.0,0.0,0.0,0.0,2.8538,2.9297,2.9582,3.0555,3.0998,3.0902,3.0958,3.0998,3.1044,3.0998,3.1117,3.1411,3.1671,3.18,3.18,3.1893,3.1929,3.1929,3.2283,3.2403,0.0,0.0,0.0,0.0,0.0,0.0,0.0,0.0,0.0,0.0,0.0,0.0,0.0,0.0,0.0,0.0,3.9101,3.8971,3.8637,3.7838,3.7169,3.6649,3.6463,3.7485,3.8432,3.7986,3.9194,4.0197,3.9547,4.0085,4.068,4.068,4.1181,4.1999,4.3243,4.2556,4.2166,4.2965,4.2556,4.2389,4.3002,4.3076,4.3318,4.3949,4.4005,4.4005,4.4005,4.4005,4.4005,4.4005,4.4005,4.4005,4.4005,4.4005,4.4005,4.4005,4.4005,4.4151,4.4457,4.4335,4.443,4.4605,4.4632,4.4738,4.4846,4.4846,4.487,4.4895,4.4895,4.4895,4.4895,4.4895,4.4895,4.4895,4.4895,4.4895,4.4895,0.0,0.0,0.0,0.0,0.0,0.0,0.0,0.0,0.0,0.0,0.0,0.0,0.0,0.0,0.0,0.0,0.0,0.0,0.0,2.7921,2.8727,2.9914,3.0403,3.0821,3.1151,3.1521,3.1709,3.1726,3.1709,3.1726,3.1746,3.18,3.18,3.18,3.2126,3.2249,3.2283,3.2619,3.2763,3.2813,3.3154,0.0,0.0,0.0,0.0,0.0,0.0,0.0,0.0,0.0,0.0,0.0,0.0,0.0,3.9101,3.9101,3.8562,3.7801,3.7002,3.6723,3.6519,3.5757,3.6222,3.7039,3.7745,3.9194,4.0364,4.0308,4.094,4.1497,4.1497,4.1553,4.1627,4.1739,4.2296,4.2983,4.3801,4.3856,4.3856,4.3912,4.3912,4.3949,4.3986,4.4005,4.4005,4.4005,4.4005,4.4005,4.4005,4.4005,4.4005,4.4005,4.4005,4.4005,4.4005,4.4005,4.4017,4.4067,4.4207,4.4314,4.4344,4.4458,4.4578,4.4693,4.4693,4.4789,4.4895,4.4895,4.4895,4.4895,4.4895,4.4895,4.4895,4.4895,4.4895,4.4895,0.0,0.0,0.0,0.0,0.0,0.0,0.0,0.0,0.0,0.0,0.0,0.0,0.0,0.0,0.0,0.0,0.0,0.0,0.0,2.8157,2.8949,2.9476,3.059,3.1213,3.1385,3.1555,3.1651,3.1671,3.1671,3.1671,3.1671,3.1746,3.1893,3.2055,3.2214,3.2403,3.2619,3.297,3.3124,3.3154,3.3465,0.0,0.0,0.0,0.0,0.0,0.0,0.0,0.0,0.0,3.5625,3.604,3.6758,3.7275,3.7596,3.7543,3.7365,3.6965,3.6166,3.6315,3.663,3.6315,3.6835,3.7522,3.7819,3.9565,4.0847,3.9807,4.1051,4.2184,4.1683,4.2407,4.2927,4.2426,4.302,4.3652,4.3968,4.4005,4.4005,4.4005,4.4005,4.4005,4.4005,4.4005,4.4005,4.4005,4.4005,4.4005,4.4005,4.4005,4.4005,4.4005,4.4005,4.4005,4.4005,4.4005,4.4005,4.4005,4.4067,4.4177,4.4314,4.4344,4.4496,4.4712,4.4605,4.4712,4.4895,4.4796,4.4821,4.4895,4.4895,4.4895,4.4895,4.4895,4.4895,4.4895,0.0,0.0,0.0,0.0,0.0,0.0,0.0,0.0,0.0,0.0,0.0,0.0,0.0,0.0,0.0,0.0,0.0,0.0,2.7381,2.8545,2.9329,2.9587,3.0779,3.1462,3.1517,3.1462,3.1483,3.1617,3.1728,3.1785,3.1839,3.2002,3.2197,3.2403,3.257,3.2749,3.2983,3.3321,3.3465,3.3465,3.3707,3.3807,0.0,0.0,0.0,0.0,0.0,0.0,0.0,0.0,3.5103,3.5462,3.5937,3.635,3.6634,3.6607,3.6634,3.6549,3.6017,3.6092,3.637,3.663,3.7113,3.7578,3.7838,3.9807,4.1274,4.0123,4.1441,4.263,4.2073,4.2872,4.3448,4.289,4.3485,4.4005,4.4005,4.4005,4.4005,4.4005,4.4005,4.4005,4.4005,4.4005,4.4005,4.4005,4.4005,4.4005,4.4005,4.4005,4.4005,4.4005,4.4005,4.4005,4.4005,4.4005,4.4005,4.4005,4.4005,4.4067,4.4226,4.4226,4.4354,4.4578,4.4524,4.4632,4.4821,4.477,4.484,4.4895,4.4895,4.4895,4.4895,4.4895,4.4895,4.4895,0.0,0.0,0.0,0.0,0.0,0.0,0.0,0.0,0.0,0.0,0.0,0.0,0.0,0.0,0.0,0.0,0.0,0.0,2.8066,2.8905,2.9728,3.039,3.0997,3.1389,3.1517,3.1389,3.1411,3.1617,3.2002,3.2249,3.2318,3.2651,3.2795,3.2827,3.3154,3.3291,3.3321,3.3652,3.3807,3.3807,3.3807,3.3807,3.3807,0.0,0.0,0.0,0.0,0.0,0.0,0.0,3.4518,3.5272,3.5192,3.5799,3.6481,3.6562,3.6589,3.6589,3.6668,3.6092,3.5683,3.65,3.6705,3.6928,3.7726,3.9807,4.159,4.1609,4.224,4.2797,4.2797,4.2816,4.2816,4.2797,4.3485,4.4005,4.4005,4.4005,4.4005,4.4005,4.4005,4.4005,4.4005,4.4005,4.4005,4.4005,4.4005,4.4005,4.3986,4.3986,4.3986,4.3986,4.3986,4.3986,4.3986,4.3986,4.3986,4.3986,4.4005,4.4005,4.4005,4.4005,4.4116,4.4314,4.443,4.4578,4.4712,4.4846,4.4914,4.4895,4.4895,4.4895,4.4895,4.4895,4.4895,4.4895,0.0,0.0,0.0,0.0,0.0,0.0,0.0,0.0,0.0,0.0,0.0,0.0,0.0,0.0,0.0,0.0,0.0,0.0,2.841,2.9385,3.0302,3.1073,3.1828,3.2197,3.2127,3.2109,3.1913,3.1617,3.1913,3.2074,3.2109,3.2568,3.2876,3.3019,3.3214,3.3437,3.3652,3.3762,3.3807,3.3807,3.3807,3.3807,3.3807,0.0,0.0,0.0,0.0,0.0,0.0,0.0,0.0,0.0,3.4228,3.4473,3.4737,3.4763,3.4814,3.4865,3.4915,3.5627,3.6389,3.663,3.7541,3.8451,3.8692,4.0234,4.1924,4.3039,4.302,4.2797,4.2797,4.3262,4.3466,4.289,4.3485,4.4005,4.4005,4.4005,4.4005,4.4005,4.4005,4.4005,4.4005,4.4005,4.4005,4.4005,4.4005,4.3745,4.3188,4.315,4.289,4.2333,4.2314,4.2314,4.2314,4.2872,4.315,4.315,4.3726,4.4005,4.4005,4.4005,4.4116,4.4285,4.4207,4.4306,4.4551,4.4605,4.4605,4.4632,4.4719,4.4712,4.4632,4.4719,4.4745,4.4745,0.0,0.0,0.0,0.0,0.0,0.0,0.0,0.0,0.0,0.0,2.71,0.0,0.0,0.0,0.0,0.0,0.0,0.0,0.0,2.9743,3.0632,3.1331,3.2163,3.2555,3.2385,3.2385,3.2266,3.2002,3.2266,3.2419,3.2453,3.2908,3.3202,3.3321,3.3408,3.3597,3.3807,3.3807,3.3807,3.3807,3.3807,3.3807,3.3807,0.0,0.0,0.0,0.0,0.0,0.0,0.0,0.0,0.0,3.3815,3.386,3.3994,3.4371,3.4515,3.4722,3.5421,3.614,3.6835,3.7485,3.8135,3.8804,3.9454,4.0643,4.1962,4.3262,4.3392,4.328,4.328,4.367,4.3838,4.3355,4.367,4.4005,4.4005,4.4005,4.4005,4.4005,4.4005,4.4005,4.4005,4.3708,4.3522,4.3522,4.3225,4.2835,4.2352,4.2314,4.2092,4.1609,4.159,4.159,4.159,4.2073,4.2314,4.2333,4.2816,4.3039,4.3076,4.3708,4.4067,4.4177,4.4147,4.4266,4.4515,4.4515,4.4515,4.4515,4.4578,4.4551,4.4515,4.4578,4.4632,4.4632,0.0,0.0,0.0,0.0,0.0,0.0,0.0,0.0,0.0,0.0,2.7701,2.7701,0.0,0.0,0.0,0.0,0.0,0.0,0.0,3.0053,3.0868,3.1483,3.2246,3.2621,3.2486,3.2486,3.2537,3.2672,3.288,3.3024,3.3086,3.3444,3.3615,3.3698,3.3698,3.3726,3.3807,3.3807,3.3807,3.3807,3.3807,3.3807,3.3807,3.3807,0.0,0.0,0.0,0.0,0.0,0.0,0.0,0.0,3.3807,3.3807,3.3981,3.4825,3.5182,3.5631,3.7165,3.7182,3.7151,3.8618,3.8488,3.8395,3.9918,4.0903,4.172,4.2519,4.3336,4.3893,4.3893,4.3949,4.4005,4.4005,4.4005,4.3968,4.3893,4.3893,4.3856,4.3782,4.3782,4.3782,4.3782,4.3113,4.2686,4.2686,4.1999,4.1571,4.1479,4.1479,4.1441,4.1367,4.1367,4.1367,4.1367,4.1441,4.1479,4.1479,4.1553,4.159,4.1646,4.3188,4.3931,4.4005,4.4177,4.4344,4.444,4.444,4.444,4.4458,4.4468,4.4487,4.4458,4.4487,4.4487,4.4496,0.0,0.0,0.0,0.0,0.0,0.0,0.0,0.0,0.0,0.0,0.0,0.0,0.0,0.0,0.0,0.0,0.0,0.0,0.0,3.0812,3.171,3.3042,3.3237,3.3286,3.3196,3.3178,3.3196,3.3244,3.3086,3.3024,3.3024,3.3415,3.3605,3.3615,3.3671,3.3726,3.3807,3.3807,3.3807,3.3807,3.3807,3.3807,3.3807,3.3807,3.3807,0.0,0.0,0.0,0.0,0.0,0.0,0.0,3.3807,3.3807,3.3852,3.4089,3.4668,3.5302,3.5734,3.6648,3.7581,3.7988,3.8452,3.8934,3.9305,4.003,4.0884,4.1683,4.25,4.3058,4.3058,4.3578,4.4005,4.4005,4.4005,4.3782,4.315,4.3058,4.2816,4.2184,4.211,4.211,4.211,4.1962,4.185,4.185,4.1702,4.1311,4.068,4.0661,4.0327,3.9658,3.964,3.964,3.964,4.0308,4.0661,4.0661,4.1293,4.159,4.1627,4.2612,4.3392,4.4005,4.4036,4.4067,4.4097,4.4097,4.4097,4.4128,4.4266,4.4237,4.4128,4.4266,4.4344,4.4296,0.0,0.0,0.0,0.0,0.0,0.0,0.0,0.0,0.0,0.0,0.0,0.0,0.0,0.0,0.0,0.0,0.0,0.0,0.0,0.0,3.1954,3.3476,3.352,3.3481,3.3452,3.3422,3.3422,3.3452,3.3286,3.3196,3.3196,3.3404,3.3549,3.3605,3.3633,3.3698,3.3807,3.3807,3.3807,3.3807,3.3807,3.3807,3.3807,3.3807,3.3807,3.3807,3.3807,0.0,0.0,0.0,0.0,0.0,0.0,0.0,3.388,3.4293,3.4512,3.4833,3.6086,3.6759,3.7322,3.8183,3.872,3.9045,3.9101,3.9454,3.99,4.0308,4.1367,4.2222,4.2222,4.2575,4.2853,4.2853,4.2853,4.2705,4.2277,4.2222,4.2073,4.1646,4.159,4.159,4.159,4.1237,4.1033,4.1033,4.0643,4.0215,3.9788,3.977,3.9565,3.9101,3.9101,3.9101,3.9101,3.9547,3.977,3.977,4.0197,4.0606,4.1051,4.185,4.2649,4.3429,4.3429,4.3633,4.4005,4.4005,4.4005,4.4005,4.4116,4.4097,4.4005,4.3974,4.3974,4.3923,0.0,0.0,0.0,0.0,0.0,0.0,0.0,0.0,0.0,0.0,0.0,0.0,0.0,0.0,0.0,0.0,0.0,0.0,0.0,0.0,0.0,3.3522,3.3577,3.3549,3.3481,3.3422,3.3422,3.3481,3.3422,3.3393,3.3393,3.3393,3.3481,3.3577,3.3605,3.3671,3.378,3.3807,3.3807,3.3807,3.3807,3.3807,3.3807,3.3807,3.3807,3.3807,3.3807,3.3807,3.3807,3.3807,0.0,0.0,0.0,0.0,3.3935,3.4614,3.4458,3.4531,3.6573,3.6924,3.7064,3.858,3.8979,3.9007,3.9073,3.9101,3.9101,3.9101,4.0308,4.1386,4.1386,4.1497,4.159,4.159,4.159,4.1553,4.1404,4.1386,4.133,4.1181,4.1163,4.1163,4.1163,4.0568,4.0178,4.0178,3.951,3.9101,3.9101,3.9101,3.9101,3.9101,3.9101,3.9101,3.9101,3.9101,3.9101,3.9101,3.9101,3.9472,4.0197,4.0847,4.1683,4.2593,4.2593,4.3039,4.3782,4.3782,4.3844,4.3923,4.3923,4.3892,4.3846,4.3631,4.3529,4.3529,0.0,0.0,0.0,0.0,0.0,0.0,0.0,0.0,0.0,0.0,2.8612,2.8637,0.0,0.0,0.0,0.0,0.0,0.0,2.9868,0.0,0.0,3.3805,3.386,3.3698,3.3422,3.3393,3.3393,3.3393,3.3393,3.3393,3.3393,3.3393,3.3452,3.3538,3.3577,3.3643,3.3726,3.378,3.3807,3.3807,3.3807,3.3807,3.3807,3.3807,3.3807,3.3807,3.3807,3.3807,3.3807,3.3807,3.3807,0.0,0.0,0.0,3.3825,3.3935,3.4376,3.4926,3.5257,3.6379,3.7679,3.8601,3.8892,3.9007,3.9007,3.9064,3.9101,3.9101,3.9881,4.055,4.055,4.1126,4.159,4.159,4.159,4.1349,4.0661,4.055,4.0271,3.951,3.9435,3.9435,3.9435,3.9342,3.9268,3.9268,3.9175,3.9101,3.9101,3.9101,3.9101,3.9101,3.9101,3.9101,3.9101,3.9101,3.9101,3.9101,3.9101,3.9157,3.9268,3.938,4.0271,4.1757,4.1757,4.2222,4.2965,4.2965,4.323,4.3646,4.3646,4.3495,4.3304,4.3268,4.3232,4.3196,0.0,0.0,0.0,0.0,0.0,0.0,0.0,0.0,0.0,0.0,0.0,2.9052,0.0,0.0,0.0,2.9034,2.9119,2.9496,3.0268,3.1574,3.2641,3.3309,3.384,3.4049,3.3842,3.386,3.386,3.386,3.386,3.386,3.3842,3.3698,3.3577,3.3491,3.3577,3.3633,3.3698,3.378,3.3807,3.3807,3.3807,3.4082,3.4431,3.3972,3.4082,3.4412,3.3972,3.3807,3.3807,3.3807,3.3807,3.3807,3.3807,0.0,0.0,0.0,3.4045,3.4467,3.521,3.6286,3.7361,3.7965,3.818,3.8245,3.8442,3.8523,3.8566,3.8676,3.9001,3.9368,3.963,3.9955,4.0197,4.0197,4.0197,4.0067,3.9714,3.9658,3.9528,3.9138,3.9101,3.9101,3.9101,3.9101,3.9101,3.9101,3.9101,3.9101,3.9101,3.9101,3.9101,3.9101,3.9101,3.9101,3.9101,3.9101,3.9101,3.9101,3.9101,3.9101,3.9101,3.896,3.9655,4.0921,4.0921,4.1308,4.1946,4.2408,4.2636,4.275,4.3208,4.3304,4.316,4.2995,4.292,4.2882,0.0,0.0,0.0,0.0,0.0,0.0,0.0,0.0,0.0,0.0,0.0,0.0,0.0,0.0,0.0,0.0,2.9355,2.9824,3.091,3.1589,3.2371,3.3283,3.4004,3.4316,3.4197,3.4197,3.4197,3.4197,3.4197,3.4197,3.4197,3.3998,3.3815,3.3671,3.3615,3.3633,3.3671,3.378,3.3807,3.3825,3.4027,3.4468,3.4954,3.4578,3.4816,3.5238,3.4412,3.41,3.4082,3.3862,3.3807,3.3807,3.3807,3.3807,0.0,0.0,0.0,3.3803,3.4961,3.571,3.6363,3.7094,3.7292,3.7416,3.7859,3.7982,3.8032,3.8183,3.8216,3.8328,3.8681,3.8836,3.8913,3.8913,3.8989,3.9017,3.9017,3.9073,3.9101,3.9101,3.9101,3.9101,3.9101,3.9101,3.9101,3.9101,3.9101,3.9101,3.9101,3.9101,3.9101,3.9101,3.9101,3.9101,3.9101,3.9101,3.9101,3.9101,3.9101,3.9073,3.9017,3.8862,3.9213,3.9875,3.9875,4.0228,4.0845,4.1452,4.1782,4.1958,4.2559,4.2886,4.2938,4.2691,4.2595,4.2573,0.0,0.0,0.0,0.0,0.0,0.0,0.0,0.0,0.0,0.0,0.0,0.0,2.9392,2.9353,2.9332,2.9392,2.9513,3.0377,3.2164,3.2333,3.3015,3.4451,3.4564,0.0,3.4197,3.4197,3.4197,3.4197,3.4197,3.4197,3.4197,3.4197,3.4173,3.4148,3.378,3.3605,3.3587,3.3753,3.3807,3.3862,3.4623,3.4954,3.5082,3.5862,3.6193,3.6119,3.5257,3.4935,3.4807,3.4064,3.3807,3.3807,3.3807,3.3807,3.3734,0.0,0.0,0.0,3.3845,3.4112,3.4505,3.6077,3.6504,3.6753,3.7453,3.7667,3.7736,3.7736,3.7736,3.7736,3.7771,3.8147,3.8446,3.8446,3.8652,3.8822,3.8822,3.896,3.9101,3.9101,3.9101,3.9101,3.9101,3.9101,3.9101,3.9101,3.9101,3.9101,3.9101,3.9101,3.9101,3.9101,3.9101,3.9101,3.9101,3.9101,3.9101,3.9101,3.9101,3.8989,3.8822,3.8803,3.867,3.8519,3.8519,3.8958,3.9707,3.9743,4.0469,4.163,4.1666,4.1944,4.2328,4.2328,4.2328,4.2328,0.0,0.0,0.0,0.0,0.0,0.0,0.0,0.0,0.0,0.0,0.0,0.0,0.0,2.9999,2.9994,2.9981,3.003,3.054,3.167,3.2241,3.2971,3.3979,3.4508,3.4752,3.4651,3.4651,3.4651,3.4651,3.4651,3.4651,3.4649,3.452,3.4473,3.445,3.3998,3.3834,3.3842,3.378,3.3753,3.3862,3.466,3.5349,3.5807,3.5569,3.6138,3.689,3.5514,3.499,3.4954,3.4688,3.4229,3.3807,3.3807,3.3807,3.3734,3.3408,3.3063,3.2909,3.3474,3.36,3.3847,3.4719,3.5311,3.577,3.6148,3.6682,3.7073,3.7226,3.7246,3.7246,3.7246,3.7756,3.815,3.7962,3.8183,3.8332,3.8332,3.8517,3.87,3.8892,3.9017,3.9101,3.9101,3.9101,3.9101,3.9101,3.9101,3.9101,3.9101,3.9101,3.9101,3.9101,3.9101,3.9101,3.9101,3.9101,3.9101,3.9101,3.8979,3.8862,3.8792,3.8446,3.8219,3.8119,3.7949,3.8146,3.8606,3.9115,3.9535,3.9888,4.0874,4.1389,4.1591,4.2091,4.2287,4.2287,0.0,0.0,0.0,0.0,0.0,0.0,0.0,0.0,0.0,3.0292,0.0,0.0,0.0,0.0,3.0356,3.0305,3.0292,3.0751,3.1809,3.2367,3.3122,3.4128,3.4679,3.4964,3.4908,3.4908,3.4908,3.4908,3.4908,3.4908,3.4908,3.4771,3.471,3.4689,3.4316,3.4124,3.4099,3.3895,3.386,3.3979,3.5,3.5577,3.5834,3.5816,3.6329,3.6945,3.5797,3.5412,3.5459,3.5459,3.5092,3.4596,3.4302,3.3853,3.3419,3.3184,3.2813,3.2542,3.2791,3.2859,3.2978,3.3567,3.4059,3.4599,3.5278,3.5798,3.629,3.6678,3.6771,3.6771,3.6771,3.7243,3.7596,3.747,3.7685,3.7862,3.7862,3.8029,3.8259,3.8541,3.8737,3.8884,3.8989,3.9045,3.9073,3.9101,3.9101,3.9101,3.9101,3.9101,3.9101,3.9101,3.9101,3.9101,3.9101,3.9017,3.8989,3.8989,3.8773,3.8621,3.8528,3.8153,3.7949,3.7863,3.7685,3.7685,3.7899,3.8438,3.8743,3.8915,3.9932,4.0646,4.1163,4.1698,4.2055,4.2287,0.0,0.0,0.0,0.0,0.0,0.0,0.0,0.0,3.0318,3.0318,0.0,0.0,0.0,0.0,0.0,3.0318,3.0324,3.104,3.2708,3.2823,3.3513,3.5028,3.5105,3.5035,3.4889,3.4908,3.4908,3.4908,3.4908,3.4908,3.4908,3.4908,3.4908,3.4889,3.4689,3.4495,3.4316,3.4173,3.4074,3.4146,3.5708,3.576,3.5117,3.6783,3.696,3.6358,3.6197,3.6208,3.6303,3.6321,3.6285,3.6083,3.521,3.3966,3.2795,3.2795,3.2335,3.18,0.0,0.0,0.0,3.2697,3.2886,3.3283,3.4783,3.5163,3.5387,3.6111,3.6284,3.6301,3.6301,3.6502,3.6766,3.6948,3.7206,3.7394,3.7394,3.756,3.7772,3.8068,3.8198,3.8423,3.8743,3.8892,3.8989,3.9073,3.9073,3.9073,3.9101,3.9101,3.9101,3.9101,3.9101,3.9101,3.9101,3.8892,3.8792,3.8773,3.8528,3.8252,3.7984,3.7984,3.7863,3.7577,3.7577,3.7577,3.7577,3.7577,3.8058,3.8772,3.8808,3.9736,4.1074,4.1092,4.1609,4.2287,0.0,0.0,0.0,0.0,0.0,0.0,3.0581,3.0587,3.0594,0.0,0.0,0.0,3.0594,3.0552,3.0532,3.0587,3.1081,3.1807,3.2814,3.3468,3.4213,3.5047,3.5105,3.5035,3.4889,3.4908,3.4908,3.4908,3.4908,3.4908,3.4908,3.4908,3.4908,3.4908,3.485,3.4772,3.4711,3.4367,3.4269,3.4418,3.5869,3.6279,3.6085,3.7103,3.7668,3.7809,3.7301,3.6762,3.6376,3.6964,3.5973,3.4449,3.4211,3.3676,3.3124,3.2858,3.2486,3.2126,3.1873,0.0,0.0,0.0,0.0,0.0,3.3438,3.4404,3.5249,3.5456,3.5921,3.6301,3.6301,3.6343,3.6444,3.6468,3.6731,3.6908,3.6908,3.7055,3.7285,3.7559,3.7737,3.7891,3.8011,3.8044,3.8176,3.8499,3.853,3.864,3.895,3.895,3.8979,3.9036,3.9036,3.8979,3.8892,3.8822,3.8713,3.8528,3.8252,3.8086,3.7984,3.7792,3.7685,3.7577,3.7577,3.7577,3.7577,3.7577,3.7719,3.7987,3.8576,3.9397,4.0307,4.0895,4.1609,4.2287,0.0,0.0,0.0,0.0,0.0,3.07,3.0704,3.0704,3.0704,0.0,0.0,0.0,3.0751,3.0701,3.07,3.07,3.143,3.2208,3.2986,3.3837,3.4608,3.5243,3.5266,3.5187,3.4982,3.4982,3.4945,3.4908,3.4908,3.4908,3.4908,3.4908,3.4908,3.4908,3.4908,3.4908,3.487,3.4649,3.452,3.46,3.5929,3.6214,3.5984,3.696,3.7381,3.7442,3.7363,3.7046,3.6802,3.7638,3.6549,3.4835,3.4835,3.4144,3.3243,3.3063,3.2684,3.2249,3.2055,3.1893,3.18,3.18,0.0,0.0,3.3248,3.4093,3.4904,3.5525,3.6008,3.6301,3.6301,3.6301,3.6301,3.6301,3.6444,3.6544,3.6544,3.6655,3.6821,3.7069,3.7266,3.7397,3.756,3.7631,3.7754,3.8044,3.8044,3.8143,3.8373,3.8405,3.8405,3.8468,3.8566,3.8603,3.851,3.8478,3.8382,3.8219,3.7949,3.781,3.7828,3.7685,3.7577,3.7577,3.7577,3.7577,3.7577,3.7577,3.7577,3.763,3.8112,3.8772,3.9557,4.0324,4.1109,4.1841,0.0,0.0,3.0693,3.068,3.07,3.0703,3.0679,3.0696,3.0696,0.0,3.0747,3.0786,3.0782,3.0794,3.0762,3.0708,3.1597,3.2444,3.3165,3.4089,3.4894,3.5483,3.5496,3.5369,3.5105,3.5105,3.5035,3.4908,3.4908,3.4908,3.4908,3.4908,3.4908,3.4908,3.4908,3.4908,3.4908,3.4908,3.4849,3.4886,3.588,3.5891,3.5395,3.6632,3.6739,3.6346,3.7012,3.7226,3.7307,3.8003,3.7436,3.6395,3.6211,3.4965,3.3508,3.3316,3.2834,3.2389,3.2284,3.202,3.18,3.18,3.18,0.0,3.3524,3.3904,3.4335,3.5645,3.599,3.6059,3.6059,3.6059,3.6059,3.6059,3.6111,3.6215,3.6284,3.6301,3.6402,3.6643,3.6753,3.6939,3.7264,3.7377,3.7488,3.7596,3.7631,3.7684,3.7684,3.7684,3.7666,3.7666,3.7911,3.8034,3.8034,3.7966,3.7915,3.788,3.7649,3.7558,3.7558,3.7558,3.7594,3.7577,3.7577,3.7577,3.7577,3.7577,3.7577,3.7577,3.7577,3.8094,3.8897,3.9557,4.0342,4.1199,0.0,3.0227,3.0684,3.0639,3.0669,3.0677,3.063,3.0622,3.0618,3.0618,3.0681,3.0724,3.0724,3.0718,3.0701,3.07,3.2131,3.3103,3.3262,3.4644,3.5503,3.5579,3.5526,3.5369,3.5105,3.5105,3.5035,3.4908,3.4908,3.4908,3.4908,3.4908,3.4908,3.4908,3.4908,3.4908,3.4908,3.4908,3.5287,3.5889,3.5736,3.5899,3.6305,3.6936,3.7462,3.7885,3.8077,3.7744,3.7143,3.6705,3.6808,3.6893,3.565,3.5246,3.4925,3.3378,3.3029,3.2984,3.2121,3.1856,3.18,3.18,3.18,0.0,3.2179,3.2697,3.3214,3.3507,3.4076,3.4525,3.4525,3.4525,3.4525,3.4525,3.5025,3.5611,3.6215,3.6301,3.6301,3.6343,3.6426,3.6451,3.6492,3.6516,3.6701,3.7038,3.7377,3.756,3.756,3.756,3.7542,3.7614,3.7667,3.765,3.7523,3.7523,3.7394,3.7185,3.7126,3.722,3.7372,3.7372,3.7447,3.7577,3.7577,3.7577,3.7577,3.7577,3.7577,3.7577,3.7577,3.8094,3.8826,3.8968,3.9914,4.1127,2.9312,2.9752,3.016,3.054,3.0624,3.0642,3.0607,3.0601,3.0607,3.0659,3.0684,3.07,3.0706,3.07,3.0704,3.0704,3.1893,3.2849,3.3278,3.4468,3.5307,3.563,3.5621,3.5519,3.5296,3.5296,3.5203,3.5,3.5,3.4963,3.4908,3.4908,3.5135,3.5533,3.5097,3.5135,3.5514,3.5078,3.5154,3.559,3.6066,3.6609,3.7219,3.7698,3.8054,3.8241,3.8289,3.8067,3.7699,3.7312,3.6955,3.6583,3.6211,3.5732,3.509,3.3952,3.3636,3.3406,3.2282,3.1839,3.1709,3.1709,3.1746,0.0,0.0,3.2628,3.3007,3.3421,3.3818,3.4093,3.4093,3.4093,3.4093,3.4093,3.4714,3.5197,3.5197,3.5835,3.6301,3.6301,3.6301,3.6301,3.6301,3.6301,3.6367,3.6597,3.6781,3.69,3.69,3.69,3.6939,3.696,3.7073,3.7129,3.7048,3.7147,3.7108,3.6987,3.6987,3.7066,3.7143,3.7143,3.7259,3.7447,3.7447,3.7521,3.7577,3.7577,3.7577,3.7577,3.7577,3.7844,3.8255,3.8665,3.9289,4.0057,2.896,2.9127,2.9433,3.0358,3.0418,3.0386,3.0537,3.0529,3.0529,3.0563,3.0889,3.1099,3.1099,3.1435,3.1665,3.1665,3.2474,3.3216,3.3747,3.4609,3.5357,3.5931,3.5818,3.5747,3.5765,3.5611,3.5397,3.5138,3.5122,3.5053,3.4926,3.4908,3.5287,3.5931,3.5382,3.5438,3.5912,3.5382,3.523,3.5476,3.6632,3.7186,3.7448,3.8003,3.8144,3.8056,3.8153,3.8241,3.8256,3.8125,3.723,3.6255,3.6632,3.603,3.5107,3.4364,3.4103,3.3807,3.2511,3.193,3.1691,3.1579,3.1671,3.1918,0.0,0.0,0.0,3.3507,3.3645,3.3645,3.3645,3.3645,3.3645,3.3645,3.4266,3.4542,3.3938,3.5025,3.587,3.587,3.6128,3.6232,3.6094,3.6094,3.6146,3.6284,3.6163,3.6146,3.6284,3.6301,3.6301,3.6301,3.6502,3.6602,3.6602,3.6788,3.6851,3.6851,3.6851,3.6891,3.6948,3.6948,3.7066,3.722,3.722,3.7372,3.754,3.754,3.7558,3.7577,3.7577,3.7577,3.7666,3.8326,3.8683,3.8986,2.7923,2.8125,2.8678,3.0021,2.9746,2.9602,3.0312,3.0266,3.0131,3.009,3.1533,3.255,3.255,3.411,3.5138,3.5138,3.5976,3.6228,3.5563,3.6335,3.6855,3.6931,3.6204,3.6098,3.6734,3.5987,3.5488,3.5285,3.5155,3.5088,3.507,3.4945,3.4946,3.5078,3.5742,3.5685,3.5097,3.5761,3.6462,3.7125,3.7294,3.6785,3.5988,3.6582,3.7109,3.754,3.802,3.8192,3.8099,3.7457,3.7108,3.6757,3.5483,3.5701,3.5972,3.3854,3.3972,3.4376,3.2546,3.2073,3.2037,3.1614,3.1559,3.1634,3.172,0.0,3.1826,3.2041,0.0,3.2059,3.2059,0.0,0.0,3.2059,3.2679,3.3128,3.3041,3.3783,3.4335,3.4335,3.549,3.6042,3.5387,3.5318,3.5594,3.6249,3.568,3.5611,3.6266,3.6301,3.6301,3.6301,3.6343,3.636,3.636,3.6385,3.6385,3.6385,3.6385,3.6485,3.6725,3.6725,3.6846,3.7009,3.7009,3.7143,3.7334,3.7334,3.7447,3.7577,3.7577,3.7577,3.7594,3.7684,3.8183,3.8843,2.8186,2.8363,2.8587,2.9217,2.9483,2.9557,2.9426,2.978,3.0056,3.0064,3.0739,3.1243,3.1243,3.1955,3.2891,3.397,3.4448,3.4962,3.5702,3.6072,3.6313,3.6347,3.6009,3.5938,3.6192,3.5853,3.559,3.5416,3.5355,3.5251,3.5105,3.5035,3.5229,3.5666,3.6026,3.6253,3.6367,3.6727,3.6822,3.6727,3.7201,3.6818,3.6166,3.7684,3.8219,3.8145,3.8368,3.8322,3.8138,3.786,3.7134,3.6409,3.6676,3.6209,3.5377,3.4645,3.4464,3.4123,3.2423,3.2279,3.2449,3.1623,3.1769,3.2051,3.1641,3.1538,3.1576,3.1614,0.0,0.0,0.0,0.0,0.0,0.0,3.24,3.2706,3.2334,3.3317,3.4093,3.4093,3.4645,3.5059,3.518,3.5576,3.5973,3.6284,3.6008,3.5973,3.6284,3.6301,3.6301,3.6301,3.6301,3.6301,3.6301,3.6301,3.6301,3.6301,3.6301,3.6343,3.6461,3.6461,3.6585,3.6846,3.6948,3.7066,3.7143,3.7372,3.7447,3.7447,3.754,3.7577,3.7577,3.7577,3.7809,3.8165,2.8534,2.8461,2.8408,2.8871,2.9266,2.9412,2.9039,2.9523,2.995,2.9953,3.0411,3.0719,3.0719,3.1603,3.2757,3.4173,3.4712,3.5488,3.6658,3.6539,3.6541,3.6866,3.6208,3.6028,3.6456,3.5981,3.5668,3.5543,3.5521,3.5402,3.5219,3.5171,3.5448,3.595,3.616,3.6577,3.7128,3.7316,3.7201,3.6936,3.7504,3.7542,3.737,3.8658,3.9021,3.8836,3.8676,3.8478,3.8252,3.7954,3.7087,3.629,3.7232,3.639,3.503,3.5141,3.4771,3.3996,3.2546,3.2546,3.2735,3.1682,3.1914,3.2226,3.1581,3.1462,3.1462,3.1479,3.1517,0.0,0.0,0.0,3.1555,3.1688,0.0,3.2286,3.1795,3.271,3.3416,3.3455,3.3645,3.4059,3.4818,3.537,3.5783,3.5973,3.6008,3.6094,3.6284,3.6301,3.6301,3.6301,3.6301,3.6301,3.6301,3.6301,3.6301,3.6301,3.6301,3.6301,3.6301,3.6301,3.6402,3.6602,3.6731,3.6851,3.6948,3.7203,3.7334,3.7297,3.7484,3.754,3.7577,3.7577,3.7577,3.7666,2.8615,2.7959,2.7888,2.9325,2.9053,2.8871,2.9565,2.9753,2.9755,2.9645,3.1201,3.2324,3.2324,3.5389,3.7562,3.7805,3.9326,4.0005,3.9417,3.8656,3.8618,3.9538,3.7207,3.6697,3.8375,3.6694,3.5756,3.5693,3.5554,3.5502,3.5483,3.534,3.53,3.5362,3.609,3.6403,3.6479,3.7109,3.7864,3.8624,3.8662,3.9115,3.9659,3.8639,3.8745,3.9383,3.8807,3.8585,3.8444,3.7398,3.7011,3.6816,3.6109,3.5838,3.562,3.4829,3.4594,3.4315,3.3091,3.288,3.2802,3.1896,3.1802,3.1819,3.1411,3.1295,3.1351,3.1462,3.1517,3.1517,3.1517,3.1517,3.1517,3.1517,3.1534,0.0,0.0,3.1668,3.174,3.1869,3.2507,3.3248,3.4042,3.4145,3.4456,3.518,3.5232,3.5542,3.6266,3.6301,3.6301,3.6301,3.6301,3.6301,3.6301,3.6301,3.6301,3.6301,3.6301,3.6301,3.6301,3.6301,3.6301,3.6301,3.6343,3.6444,3.6702,3.6742,3.6965,3.7297,3.7297,3.7447,3.7577,3.7577,3.7577,3.7577,2.8529,2.8425,2.8336,2.8336,2.8779,2.9232,2.9514,2.9608,2.9852,3.0377,3.1017,3.1827,3.2938,3.413,3.559,3.7431,3.8242,3.8834,3.9259,3.8632,3.8413,3.8825,3.6899,3.6392,3.7616,3.6469,3.5816,3.5693,3.564,3.5588,3.5502,3.5443,3.5388,3.532,3.6116,3.6738,3.7241,3.8061,3.8516,3.87,3.87,3.885,3.9134,3.9274,3.9402,3.9458,3.9279,3.86,3.7741,3.7394,3.6443,3.5457,3.5729,3.5077,3.4262,3.4534,3.4226,3.3677,3.2979,3.3024,3.3002,3.1944,3.1922,3.2003,3.137,3.1213,3.1269,3.1269,3.1308,3.1308,3.1368,3.1329,3.1363,3.1479,3.1423,3.1406,0.0,3.1559,3.1671,3.1783,3.2455,3.3007,3.3283,3.4214,3.4921,3.518,3.5645,3.6042,3.6284,3.6301,3.6301,3.6301,3.6301,3.6301,3.6301,3.6301,3.6301,3.6301,3.6301,3.6301,3.6301,3.6301,3.6301,3.6301,3.6502,3.6502,3.6444,3.6788,3.6886,3.6926,3.7066,3.7126,3.7259,3.7503,3.7577,3.7666,2.8308,2.8438,2.8427,2.8049,2.864,2.9203,2.923,2.9351,2.9749,3.0673,3.0806,3.135,3.278,3.3475,3.4689,3.6804,3.7605,3.8207,3.8708,3.8632,3.8507,3.8402,3.7311,3.7178,3.8137,3.6975,3.6313,3.6195,3.5873,3.567,3.5565,3.5565,3.5528,3.5449,3.5926,3.6719,3.7695,3.8213,3.8708,3.9134,3.9134,3.8944,3.8776,3.9286,3.918,3.8776,3.8963,3.8264,3.723,3.704,3.6175,3.5218,3.567,3.4896,3.3936,3.4461,3.4027,3.3334,3.3099,3.309,3.2967,3.2125,3.1981,3.1947,3.1331,3.119,3.119,3.119,3.119,3.123,3.1252,3.1213,3.123,3.1346,3.1329,3.1312,0.0,3.1521,3.1596,3.1709,3.2176,3.261,3.2869,3.38,3.4611,3.5145,3.5628,3.6025,3.6284,3.6301,3.6301,3.6301,3.6301,3.6301,3.6301,3.6301,3.6301,3.6301,3.6301,3.6301,3.6301,3.6301,3.6301,3.6301,3.6502,3.6444,3.6343,3.6632,3.6748,3.6702,3.6846,3.6948,3.7066,3.7354,3.7558,3.7666,2.7911,2.8045,2.8166,2.8428,2.8639,2.8779,2.879,2.8998,2.951,3.0528,3.0679,3.1115,3.2159,3.37,3.5063,3.6159,3.7637,3.8385,3.7982,3.8704,3.8948,3.8539,3.8441,3.8861,3.9863,3.8137,3.7172,3.7102,3.6156,3.5697,3.5704,3.5704,3.5704,3.5684,3.5572,3.6358,3.7795,3.7656,3.8479,3.9832,3.9832,3.9323,3.8586,3.8624,3.8054,3.7351,3.7943,3.7643,3.6855,3.6353,3.6156,3.6033,3.5768,3.5168,3.4552,3.4552,3.4009,3.3393,3.3393,3.3099,3.2731,3.2368,3.2003,3.162,3.1291,3.119,3.119,3.119,3.119,3.119,3.119,3.119,3.119,3.119,3.119,3.1213,3.1244,3.1355,3.1449,3.1528,3.1691,3.2076,3.2783,3.2921,3.3576,3.5025,3.518,3.5525,3.6266,3.6266,3.6266,3.6301,3.6301,3.6301,3.6301,3.6301,3.6301,3.6301,3.6301,3.6301,3.6301,3.6301,3.6301,3.6301,3.6301,3.6301,3.6301,3.6301,3.6444,3.6702,3.6702,3.6806,3.7027,3.722,3.741,3.7594,2.773,2.7771,2.7811,2.7897,2.8316,2.867,2.879,2.9373,3.0189,3.1201,3.1848,3.2868,3.4452,3.5016,3.5708,3.6776,3.7364,3.7985,3.8586,3.8389,3.8846,4.0196,3.9059,3.8844,3.9791,3.8144,3.7212,3.7102,3.6209,3.5757,3.5704,3.5704,3.5704,3.5704,3.5662,3.6446,3.7795,3.7761,3.8251,3.9001,3.9001,3.813,3.6898,3.7504,3.6822,3.5723,3.712,3.6955,3.6081,3.5946,3.5236,3.4403,3.432,3.4022,3.3719,3.3719,3.3556,3.3393,3.3393,3.3099,3.2731,3.2368,3.2003,3.162,3.1291,3.119,3.119,3.119,3.119,3.119,3.119,3.119,3.119,3.119,3.119,3.1026,3.0564,3.0496,3.0588,3.07,3.1308,3.1832,3.2059,3.311,3.3955,3.4335,3.4887,3.5525,3.6266,3.5783,3.5732,3.6284,3.6301,3.6301,3.6301,3.6301,3.6301,3.6301,3.6301,3.6301,3.6301,3.6301,3.6301,3.6301,3.6301,3.6301,3.6301,3.6301,3.6343,3.6402,3.6402,3.6544,3.6806,3.7143,3.7334,3.741,2.7777,2.776,2.7701,2.7701,2.8322,2.8927,2.9039,2.9282,2.9923,3.1287,3.1863,3.2693,3.4173,3.471,3.5366,3.6325,3.6607,3.6879,3.7217,3.7929,3.8579,3.917,3.9415,3.9794,4.0366,3.9098,3.8174,3.7673,3.681,3.6137,3.5704,3.5704,3.5704,3.5704,3.5704,3.6286,3.7337,3.7589,3.7926,3.8212,3.8171,3.7353,0.0,3.6689,3.6045,3.5022,3.5969,3.5908,3.539,3.5302,3.4759,3.4124,3.3868,3.3698,3.3549,3.3422,3.3393,3.3393,3.3393,3.3099,3.2763,3.2586,3.2231,3.1896,3.1731,3.1524,3.1428,3.1428,3.1291,3.119,3.119,3.119,3.119,3.119,3.119,3.0976,3.0251,3.0149,3.0068,2.9875,3.0617,3.1153,3.119,3.2951,3.4093,3.4093,3.4473,3.4887,3.5318,3.5249,3.5387,3.5801,3.6128,3.6301,3.6301,3.6301,3.6301,3.6301,3.6301,3.6301,3.6301,3.6301,3.6301,3.6301,3.6301,3.6301,3.6301,3.6301,3.6301,3.6301,3.6301,3.6301,3.636,3.6673,3.6952,3.7182,2.7882,2.7836,2.7701,2.7701,2.8547,2.9307,2.954,2.9278,2.9624,3.1195,3.1521,3.1928,3.2828,3.3697,3.4524,3.528,3.5553,3.556,3.5293,3.733,3.8151,3.719,3.9505,4.0855,4.0925,4.0248,3.9408,3.8405,3.742,3.6514,3.5706,3.5579,3.5588,3.5704,3.5704,3.6072,3.6713,3.7328,3.7527,3.7395,3.7299,3.6746,3.6026,3.6026,3.5552,3.4908,3.4908,3.4908,3.487,3.4689,3.4604,3.4517,3.3998,3.3834,3.3753,3.3481,3.3393,3.3393,3.3393,3.3129,3.2876,3.2795,3.2568,3.2334,3.2317,3.2039,3.1787,3.1787,3.1487,3.1269,3.1269,3.123,3.119,3.119,3.119,3.0937,3.0209,3.0108,2.9841,2.917,2.9875,0.0,3.0409,3.2569,3.3938,3.3938,3.3938,3.4024,3.4214,3.4749,3.5128,3.5335,3.5973,3.6301,3.6301,3.6301,3.6301,3.6301,3.6301,3.6301,3.6301,3.6301,3.6301,3.6301,3.6301,3.6301,3.6301,3.6301,3.6301,3.6301,3.6259,3.6045,3.581,3.5941,3.6308,3.6753,2.7719,2.773,2.7701,2.7701,2.8617,2.9601,3.0273,3.0955,3.156,3.2,3.2617,3.3156,3.3506,3.3688,3.4002,3.4474,3.454,3.5042,3.609,3.6583,3.7179,3.797,3.918,3.9875,3.9939,3.9852,3.9374,3.8486,3.6835,3.5918,3.5676,3.4952,3.5007,3.5704,3.5704,3.6003,3.6581,3.7294,3.7148,3.6444,3.6425,3.5893,3.5135,3.5135,3.5022,3.4908,3.4908,3.4908,3.4889,3.487,3.473,3.4539,3.4221,3.3972,3.3753,3.3481,3.3393,3.3393,3.3393,3.3364,3.3226,3.2876,3.2763,3.2634,3.2368,3.2248,3.2196,3.2196,3.1896,3.162,3.162,3.1389,3.119,3.119,3.119,3.0937,3.0209,3.0166,2.9898,2.9204,2.9875,3.0409,3.0482,3.207,3.3089,3.3029,3.3089,3.3662,3.4938,3.4542,3.4835,3.6059,3.6232,3.6301,3.6301,3.6301,3.6301,3.6301,3.6301,3.6301,3.6301,3.6301,3.6301,3.6301,3.6301,3.6301,3.6301,3.6301,3.6301,3.6259,3.6002,3.5871,3.5766,3.5453,3.5436,3.5571,2.7672,2.7701,2.7853,2.8411,2.9325,3.0302,3.1195,3.2133,3.2582,3.2252,3.2542,3.2817,3.2902,3.3469,3.3921,3.4124,3.434,3.4779,3.5569,3.6112,3.6696,3.7392,3.8384,3.8957,3.9026,3.9099,3.8708,3.7828,3.6918,3.6216,3.5693,3.5272,3.5298,3.5704,3.5639,3.5496,3.5355,3.6012,3.6024,3.5627,3.5553,3.5268,3.4908,3.4908,3.4908,3.4908,3.4908,3.4908,3.4908,3.4908,3.485,3.4691,3.4316,3.4124,3.3921,3.352,3.3393,3.3393,3.3393,3.3393,3.3364,3.3178,3.3099,3.3068,3.2912,3.2716,3.2568,3.2568,3.2265,3.2003,3.2003,3.1694,3.1449,3.1449,3.1329,3.0937,3.0209,3.0129,2.9878,2.9187,2.9517,2.9811,2.9829,3.102,3.2076,3.2792,3.2865,3.3404,3.4559,3.4283,3.4594,3.568,3.6094,3.6301,3.6301,3.6301,3.6301,3.6301,3.6301,3.6301,3.6301,3.6301,3.6301,3.6301,3.6301,3.6301,3.6301,3.6301,3.6216,3.6028,3.5871,3.556,3.5195,3.5008,3.4818,3.4706,2.7988,2.8006,2.8341,2.939,3.0349,3.1229,3.2004,3.2907,3.3273,3.2542,3.2508,3.2518,3.2518,3.3421,3.4023,3.4074,3.434,3.4649,3.4908,3.5677,3.6239,3.6471,3.7461,3.8047,3.8129,3.837,3.8079,3.7212,3.6785,3.6183,3.5453,3.5049,3.5055,3.538,3.527,3.4918,3.4428,3.4901,3.5088,3.5053,3.4945,3.4908,3.4908,3.4908,3.4908,3.4908,3.4908,3.4908,3.4889,3.4831,3.4793,3.4713,3.4279,3.4105,3.3954,3.3491,3.3334,3.3334,3.3334,3.3382,3.3364,3.3334,3.3364,3.3411,3.3364,3.3147,3.2925,3.2925,3.2651,3.2368,3.2317,3.2039,3.1823,3.1823,3.1524,3.1087,3.051,3.0404,3.0116,2.9408,2.9379,2.9414,2.9486,3.0312,3.1436,3.28,3.2904,3.3248,3.4042,3.4093,3.4421,3.518,3.5766,3.6059,3.6059,3.6215,3.6301,3.6301,3.6301,3.6301,3.6301,3.6301,3.6301,3.6301,3.6301,3.6301,3.6301,3.6216,3.6045,3.5766,3.565,3.5195,3.4691,3.4594,3.4349,3.4151,2.8888,2.9077,2.9425,3.053,3.1537,3.222,3.2488,3.3335,3.3797,3.3343,3.3439,3.3561,3.3561,3.3831,3.4074,3.4245,3.4293,3.4548,3.5047,3.5174,3.5388,3.5778,3.6585,3.7094,3.7219,3.7999,3.805,3.7285,3.5633,3.4793,3.4675,3.2954,3.2943,3.4327,3.4315,3.4573,3.5024,3.5066,3.5035,3.4927,3.4908,3.4908,3.4908,3.4908,3.4908,3.4908,3.4908,3.4908,3.4851,3.4551,3.4464,3.4401,3.4104,3.3821,3.3514,3.322,3.3117,3.3117,3.3117,3.3214,3.3292,3.3165,3.3274,3.3364,3.3322,3.3322,3.3334,3.3334,3.3037,3.2666,3.2351,3.2283,3.2231,3.2231,3.1896,3.1623,3.1554,3.1346,3.0921,3.019,3.0088,3.0179,3.0362,3.1011,3.1836,3.2852,3.2904,3.3248,3.4042,3.4093,3.4421,3.518,3.5266,3.5301,3.5301,3.5973,3.6301,3.6301,3.6301,3.6301,3.6301,3.6301,3.6301,3.6301,3.6301,3.6301,3.6301,3.5941,3.5827,3.5722,3.5055,3.4739,3.4659,3.43,3.4151,3.4101,2.9929,3.004,3.0435,3.1682,3.2235,3.2698,3.3349,3.3751,3.3947,3.378,3.3815,3.3868,3.3868,3.4074,3.4221,3.4293,3.452,3.4753,3.4963,3.5165,3.5364,3.5509,3.5949,3.6226,3.6317,3.6699,3.6774,3.6523,3.5224,3.4594,3.4589,3.3757,3.3691,3.4353,3.4699,3.4702,3.4458,3.4843,3.4945,3.4908,3.4908,3.4908,3.4908,3.4908,3.4908,3.4908,3.4908,3.4831,3.4689,3.4464,3.4401,3.4334,3.3854,3.3607,3.3447,3.319,3.3086,3.3086,3.3086,3.3135,3.3165,3.3117,3.3165,3.3226,3.3214,3.3196,3.3226,3.3322,3.3226,3.3117,3.2975,3.2749,3.2601,3.2601,3.2299,3.1967,3.1714,3.162,3.1367,3.0925,3.0479,3.0282,3.0482,3.1151,3.1754,3.2214,3.3093,3.3749,3.4059,3.4507,3.4887,3.518,3.5628,3.5852,3.5852,3.6146,3.6301,3.6301,3.6088,3.6002,3.6002,3.6002,3.6002,3.6002,3.5766,3.5633,3.5633,3.5498,3.5316,3.5102,3.4835,3.4546,3.43,3.4151,3.4101,3.4101,3.1024,3.1145,3.1601,3.2889,3.3087,3.334,3.4056,3.4173,3.4173,3.4173,3.4227,3.4227,3.4099,3.4321,3.4476,3.4476,3.4773,3.4981,3.5034,3.5277,3.5438,3.5496,3.5611,3.5741,3.5791,3.5877,3.5929,3.5974,3.5057,3.4583,3.4561,3.4186,3.4116,3.4299,3.4721,3.4676,3.4296,3.4717,3.4908,3.4908,3.4908,3.4908,3.4908,3.4908,3.4908,3.4889,3.4812,3.4691,3.4502,3.4218,3.4128,3.4031,3.3607,3.34,3.3273,3.3117,3.3024,3.3024,3.3024,3.3073,3.3073,3.3073,3.3055,3.3086,3.3073,3.3086,3.3135,3.3262,3.3352,3.3393,3.3393,3.3178,3.2988,3.2988,3.2684,3.2334,3.2056,3.186,3.162,3.1432,3.0891,3.0547,3.0717,3.1439,3.196,3.209,3.3559,3.4404,3.4404,3.4921,3.5197,3.5197,3.5714,3.5973,3.5973,3.6197,3.6301,3.6301,3.5958,3.5827,3.5783,3.5677,3.5633,3.5588,3.5316,3.5224,3.5178,3.5085,3.4913,3.4691,3.4546,3.4349,3.4101,3.4101,3.4101,3.4101,3.2092,3.2436,3.2951,3.4078,3.4274,3.4363,3.4561,3.4583,3.4583,3.4583,3.4771,3.4752,3.434,3.4651,3.4889,3.4889,3.5015,3.5178,3.5378,3.5391,3.5496,3.5704,3.5708,3.5741,3.5791,3.5877,3.5895,3.5896,3.5022,3.458,3.4478,3.3548,3.3427,3.4016,3.4016,3.4337,3.4889,3.4889,3.4908,3.4908,3.4908,3.4908,3.4908,3.4908,3.4908,3.487,3.4668,3.4524,3.4311,3.3715,3.3458,3.3419,3.3419,3.3172,3.2916,3.2916,3.2916,3.2916,3.2916,3.2948,3.2997,3.2916,3.2993,3.3086,3.3011,3.3073,3.3135,3.3262,3.3352,3.3393,3.3393,3.3411,3.3393,3.3393,3.3068,3.2795,3.2795,3.2162,3.1677,3.1694,3.1372,3.1196,3.1278,3.2071,3.265,3.2784,3.4295,3.518,3.518,3.5197,3.5197,3.5197,3.5197,3.5197,3.5197,3.5939,3.6301,3.6301,3.5958,3.5827,3.5783,3.5407,3.5224,3.5224,3.5224,3.5224,3.5178,3.4818,3.4691,3.4643,3.425,3.4101,3.4101,3.4101,3.4101,3.4101,3.3316,3.3566,3.3809,3.4394,3.4495,3.4583,3.4752,3.4792,3.4851,3.4944,3.4997,3.4978,3.4851,3.4961,3.5049,3.5049,3.5212,3.5331,3.5391,3.5521,3.5626,3.5708,3.5741,3.5811,3.5877,3.5927,3.5957,3.5893,3.5022,3.4536,3.442,3.4025,3.4269,3.5007,3.4833,3.4874,3.5035,3.4926,3.4908,3.4908,3.4908,3.4908,3.4908,3.4908,3.4812,3.4689,3.4524,3.4232,3.3858,3.3542,3.3291,3.3117,3.3068,3.2993,3.2916,3.2916,3.2916,3.2916,3.2916,3.2916,3.2916,3.2916,3.2948,3.2948,3.2948,3.2979,3.3042,3.3135,3.3244,3.3352,3.3411,3.3393,3.3393,3.3393,3.3286,3.3099,3.2844,3.2601,3.2248,3.175,3.162,3.1487,3.1334,3.2049,3.2588,3.2667,3.3648,3.4335,3.4438,3.5387,3.5714,3.5214,3.568,3.5956,3.5956,3.618,3.6174,3.5941,3.5588,3.527,3.5055,3.461,3.4626,3.4818,3.4578,3.4431,3.4431,3.4333,3.43,3.43,3.4151,3.4101,3.4101,3.4101,3.4101,3.4101,3.3185,3.3721,3.4078,3.43,3.4604,3.4832,3.4963,3.4981,3.5016,3.5098,3.5162,3.5224,3.5244,3.5301,3.5287,3.5224,3.5391,3.5514,3.5504,3.5629,3.5717,3.5741,3.5791,3.5853,3.5893,3.5937,3.5925,3.5857,3.5301,3.493,3.4809,3.4718,3.4924,3.534,3.5171,3.507,3.5018,3.4945,3.4908,3.4889,3.4831,3.4791,3.4791,3.4691,3.4564,3.4427,3.4232,3.3935,3.3578,3.3379,3.3129,3.2948,3.2916,3.2916,3.2916,3.2916,3.2916,3.2916,3.2916,3.2916,3.2916,3.2916,3.2916,3.2916,3.2916,3.2948,3.3011,3.3073,3.3135,3.3244,3.3352,3.3352,3.3382,3.3411,3.3393,3.3316,3.3068,3.2908,3.2601,3.2003,3.1787,3.1582,3.1274,3.1737,3.2185,3.2554,3.3368,3.4014,3.4467,3.5363,3.5776,3.5611,3.6059,3.6301,3.6301,3.6174,3.6002,3.5766,3.527,3.4818,3.4448,3.4201,3.425,3.4448,3.4201,3.4101,3.4101,3.4101,3.4101,3.4101,3.4101,3.4101,3.4101,3.4101,3.4101,3.4101,3.2147,3.3029,3.3837,3.391,3.4522,3.5037,3.5127,3.5127,3.5127,3.5146,3.5297,3.5444,3.551,3.563,3.564,3.5438,3.5612,3.5708,3.5702,3.571,3.5748,3.5797,3.5861,3.5899,3.5901,3.5894,3.5853,3.5786,3.5727,3.562,3.5502,3.5483,3.534,3.5105,3.5088,3.5018,3.4908,3.4889,3.4889,3.487,3.4647,3.4561,3.4539,3.4293,3.4197,3.4148,3.3868,3.3662,3.3429,3.319,3.2993,3.2916,3.2916,3.2916,3.2916,3.2916,3.2916,3.2916,3.2916,3.2916,3.2916,3.2916,3.2916,3.2916,3.2916,3.2948,3.2979,3.2979,3.3042,3.3135,3.3262,3.331,3.3322,3.3411,3.3393,3.3393,3.3393,3.3068,3.2716,3.2351,3.1967,3.1582,3.123,3.1252,3.1601,3.2372,3.3282,3.4174,3.4964,3.505,3.5435,3.6266,3.6301,3.6301,3.6259,3.5958,3.5766,3.5739,3.5008,3.4448,3.4101,3.4101,3.4101,3.4101,3.4101,3.4101,3.4101,3.4101,3.4101,3.4101,3.4101,3.4101,3.4101,3.4101,3.4101,3.4101,3.2338,3.2705,3.3123,3.3848,3.4102,3.4466,3.5277,3.5399,3.5437,3.5534,3.564,3.5679,3.5648,3.5728,3.5756,3.5702,3.5755,3.5775,3.5788,3.5788,3.5816,3.5861,3.5831,3.5859,3.5891,3.5857,3.578,3.5725,3.5708,3.562,3.5502,3.5402,3.5251,3.5105,3.4982,3.4926,3.4889,3.473,3.4668,3.4647,3.4386,3.4293,3.4293,3.4221,3.4074,3.3868,3.378,3.3484,3.319,3.3055,3.2979,3.2916,3.2916,3.2916,3.2916,3.2916,3.2916,3.2916,3.2916,3.2916,3.2916,3.2916,3.2916,3.2916,3.2916,3.2916,3.2948,3.2979,3.3011,3.3091,3.328,3.331,3.3322,3.3411,3.3393,3.3393,3.3393,3.3334,3.3006,3.2385,3.2214,3.1913,3.1269,3.123,3.1297,3.1484,3.2258,3.3087,3.4052,3.4616,3.5334,3.6284,3.6301,3.6174,3.5898,3.5827,3.5515,3.4961,3.448,3.4201,3.4101,3.4101,3.4101,3.4101,3.4101,3.4101,3.4101,3.4101,3.4101,3.4101,3.4101,3.4101,3.4101,3.4101,3.4101,3.4101,3.1507,3.1977,3.2482,3.2996,3.3692,3.4369,3.495,3.5374,3.5655,3.5752,3.5788,3.5811,3.578,3.5827,3.5853,3.589,3.5841,3.5802,3.5845,3.5825,3.5825,3.5898,3.5833,3.5815,3.5853,3.58,3.571,3.56,3.5623,3.5515,3.5311,3.5235,3.5138,3.5,3.4926,3.485,3.4751,3.4647,3.4517,3.4386,3.4124,3.4023,3.3998,3.3868,3.3753,3.3587,3.3577,3.3404,3.3183,3.3073,3.2866,3.2654,3.2639,3.2488,3.2335,3.2335,3.2621,3.2916,3.2916,3.2916,3.2916,3.2916,3.2916,3.2916,3.2916,3.2916,3.2916,3.2948,3.2979,3.3042,3.3183,3.3262,3.3322,3.3411,3.3256,3.3129,3.3129,3.3006,3.2669,3.2109,3.2039,3.1804,3.1269,3.119,3.119,3.119,3.1947,3.2791,3.3738,3.4572,3.5393,3.6284,3.6174,3.5985,3.5827,3.547,3.4991,3.4399,3.4201,3.4101,3.4101,3.4101,3.4101,3.4101,3.4101,3.4101,3.4101,3.4101,3.4101,3.4101,3.4101,3.4101,3.4101,3.4101,3.4101,3.4101,3.0477,3.1177,3.1856,3.1991,3.3273,3.434,3.4476,3.524,3.5786,3.5778,3.5791,3.5825,3.5867,3.589,3.5916,3.5956,3.5867,3.5828,3.5906,3.5859,3.5836,3.589,3.5827,3.578,3.578,3.5718,3.5611,3.5515,3.547,3.534,3.5105,3.5105,3.5035,3.4908,3.487,3.4771,3.4583,3.4517,3.434,3.4124,3.386,3.3753,3.3726,3.3481,3.3393,3.3393,3.3334,3.3274,3.3183,3.3024,3.2669,3.2317,3.2249,3.1985,3.1677,3.1677,3.2179,3.2737,3.2802,3.2834,3.2916,3.2916,3.2916,3.2916,3.2916,3.2916,3.2916,3.2916,3.2948,3.3011,3.3086,3.3214,3.3292,3.3382,3.3068,3.2795,3.2795,3.2502,3.2144,3.175,3.1677,3.1545,3.123,3.119,3.119,3.119,3.2004,3.2832,3.3738,3.4572,3.5393,3.6156,3.5958,3.5739,3.565,3.4961,3.4448,3.4101,3.4101,3.4101,3.4101,3.4101,3.4101,3.4101,3.4101,3.4101,3.4101,3.4101,3.4101,3.4101,3.4101,3.4101,3.4101,3.4101,3.4101,3.4101,3.0667,3.0794,3.1122,3.187,3.2782,3.3641,3.4392,3.519,3.572,3.5721,3.5751,3.5789,3.5749,3.5789,3.5825,3.5836,3.581,3.5828,3.5906,3.5884,3.5868,3.5827,3.5742,3.5718,3.5718,3.5579,3.5521,3.5515,3.5388,3.5251,3.5105,3.5105,3.5035,3.4889,3.473,3.4626,3.4561,3.4124,3.3895,3.3842,3.3577,3.3452,3.3452,3.3422,3.3393,3.3364,3.3037,3.2862,3.2752,3.2437,3.2179,3.1966,3.1966,3.1841,3.1677,3.1677,3.1787,3.1967,3.2318,3.2639,3.2916,3.2916,3.2916,3.2916,3.2916,3.2916,3.2916,3.2916,3.2916,3.2948,3.3086,3.3117,3.3196,3.3364,3.3068,3.2795,3.2795,3.2502,3.2144,3.175,3.1677,3.1545,3.123,3.119,3.119,3.119,3.1907,3.2693,3.3598,3.4346,3.5035,3.5677,3.5783,3.5515,3.4883,3.4448,3.4151,3.4101,3.4101,3.4101,3.4101,3.4101,3.4101,3.4101,3.4101,3.4101,3.4101,3.4101,3.4101,3.4101,3.4101,3.4101,3.4101,3.4101,3.4101,3.4101,3.0706,3.0701,3.0838,3.1233,3.2389,3.3385,3.3789,3.4932,3.5756,3.5754,3.5782,3.5783,3.5767,3.5788,3.578,3.5756,3.5756,3.5716,3.564,3.5736,3.5788,3.5755,3.5715,3.5659,3.5599,3.5464,3.536,3.5281,3.5219,3.5122,3.4982,3.4982,3.4889,3.473,3.4626,3.445,3.4148,3.3895,3.3726,3.3577,3.3452,3.3256,3.3068,3.3068,3.2957,3.2766,3.2619,3.2519,3.2453,3.2179,3.1913,3.1603,3.1507,3.1278,3.1044,3.1044,3.1338,3.175,3.1949,3.2266,3.2573,3.2573,3.2737,3.2916,3.2916,3.2916,3.2916,3.2916,3.2948,3.3024,3.3086,3.3196,3.3226,3.3099,3.2781,3.2468,3.2231,3.1932,3.1637,3.1449,3.1428,3.1351,3.123,3.119,3.119,3.119,3.1512,3.1979,3.2597,3.3278,3.3868,3.4313,3.4885,3.4961,3.4399,3.4201,3.4101,3.4101,3.4101,3.4,3.3899,3.405,3.4,3.3899,3.3899,3.3899,3.3848,3.3761,3.3745,3.3899,3.3899,3.3949,3.4101,3.4101,3.4101,3.4101,3.0699,3.0687,3.0672,3.0661,3.189,3.2967,3.3167,3.4443,3.5473,3.5667,3.5687,3.5687,3.5687,3.5687,3.5663,3.562,3.5611,3.5533,3.538,3.5519,3.5611,3.5611,3.5615,3.5572,3.5457,3.5311,3.5203,3.5105,3.507,3.5,3.4908,3.4851,3.4751,3.4583,3.4473,3.4197,3.3807,3.3726,3.3577,3.3393,3.3286,3.3068,3.2795,3.2699,3.2502,3.2283,3.2196,3.2179,3.2109,3.186,3.1565,3.1261,3.1083,3.0781,3.0526,3.0526,3.0925,3.1452,3.164,3.1913,3.2162,3.2162,3.2454,3.277,3.277,3.2834,3.2884,3.282,3.2898,3.293,3.2848,3.3055,3.3117,3.2699,3.2435,3.2179,3.175,3.1428,3.119,3.119,3.119,3.119,3.119,3.119,3.119,3.119,3.119,3.1335,3.1724,3.2413,3.2941,3.3307,3.4056,3.43,3.4,3.4,3.4,3.4,3.405,3.3949,3.3607,3.3899,3.3848,3.3607,3.3607,3.3607,3.3607,3.3398,3.3398,3.3607,3.3607,3.3745,3.4,3.4,3.405,3.4101,3.07,3.0647,3.0587,3.0532,3.1197,3.1984,3.2718,3.3626,3.4491,3.524,3.5336,3.5336,3.5336,3.5336,3.5321,3.534,3.534,3.5326,3.5311,3.5326,3.5326,3.5326,3.5326,3.5311,3.5296,3.5187,3.5105,3.5105,3.4963,3.4927,3.4908,3.471,3.4604,3.458,3.4074,3.386,3.378,3.352,3.3422,3.3364,3.2988,3.2844,3.2763,3.2453,3.2317,3.2248,3.1896,3.175,3.1694,3.1235,3.1015,3.0895,3.0773,3.0609,3.0526,3.0526,3.0551,3.074,3.149,3.1714,3.175,3.175,3.2056,3.2352,3.2352,3.2639,3.282,3.259,3.2523,3.2438,3.2144,3.2453,3.2619,3.2213,3.2231,3.2179,3.175,3.1428,3.119,3.119,3.119,3.119,3.119,3.119,3.119,3.119,3.119,3.1335,3.158,3.2266,3.2941,3.3617,3.3729,3.3745,3.3761,3.3761,3.3761,3.3745,3.4,3.3848,3.3346,3.3607,3.3607,3.3361,3.3361,3.3361,3.3361,3.3309,3.3293,3.3361,3.3361,3.3503,3.3761,3.3761,3.3899,3.4101,3.0474,3.0443,3.0422,3.0367,3.1025,3.1815,3.267,3.3532,3.4395,3.52,3.5315,3.5315,3.5315,3.5315,3.5285,3.5187,3.5171,3.5138,3.5053,3.5053,3.5122,3.5281,3.5219,3.5171,3.5171,3.5053,3.4908,3.4792,3.4751,3.4628,3.4458,3.4386,3.4269,3.4099,3.3895,3.3698,3.352,3.319,3.3019,3.2988,3.2651,3.2334,3.2092,3.1967,3.1804,3.16,3.1466,3.1389,3.1351,3.1095,3.0975,3.0952,3.0855,3.079,3.0733,3.0733,3.0651,3.0593,3.0982,3.1201,3.1338,3.1338,3.164,3.1949,3.1949,3.2056,3.2162,3.2109,3.2144,3.2162,3.2127,3.2283,3.2317,3.1914,3.1878,3.1787,3.1466,3.1291,3.119,3.119,3.119,3.119,3.119,3.119,3.119,3.119,3.119,3.1012,3.0489,3.1114,3.1752,3.2269,3.2861,3.3293,3.345,3.345,3.345,3.345,3.3555,3.3398,3.3058,3.3361,3.3309,3.3058,3.3058,3.3058,3.3058,3.2812,3.2866,3.3058,3.3058,3.3203,3.345,3.345,3.3607,3.3848,3.0175,3.0151,3.0166,3.0226,3.0652,3.1384,3.2497,3.3181,3.3964,3.5018,3.5171,3.5171,3.5171,3.5171,3.5122,3.4963,3.4945,3.487,3.4693,3.4672,3.4793,3.5069,3.4981,3.4908,3.4813,3.4733,3.4607,3.4473,3.4473,3.4363,3.4197,3.4124,3.3972,3.3788,3.3578,3.3379,3.3178,3.2813,3.2634,3.2601,3.2283,3.1967,3.1694,3.1582,3.1295,3.1015,3.1151,3.1112,3.0975,3.1015,3.1015,3.0975,3.0912,3.0773,3.0651,3.0773,3.0551,3.0342,3.0568,3.0757,3.0885,3.0885,3.1223,3.149,3.149,3.1603,3.1694,3.1711,3.1768,3.1841,3.1821,3.1985,3.1967,3.1545,3.1603,3.1582,3.1269,3.119,3.119,3.119,3.119,3.119,3.119,3.119,3.119,3.119,3.119,3.0898,3.0162,3.0495,3.0913,3.1366,3.2292,3.2812,3.3027,3.3134,3.315,3.315,3.3256,3.3096,3.2773,3.3043,3.3043,3.2718,3.2718,3.2718,3.2718,3.2523,3.2523,3.2718,3.2718,3.2935,3.315,3.315,3.3346,3.3607,2.9867,2.9826,2.9851,3.0045,2.9984,3.0457,3.2123,3.2389,3.3013,3.468,3.4889,3.4889,3.4889,3.4889,3.4812,3.4604,3.4602,3.4495,3.4221,3.4197,3.4316,3.4583,3.4602,3.4473,3.4197,3.4197,3.4197,3.4197,3.4197,3.4197,3.4197,3.3921,3.3788,3.3762,3.3075,3.2795,3.2763,3.2453,3.2283,3.2231,3.186,3.1677,3.164,3.1329,3.0918,3.0559,3.1015,3.0878,3.0559,3.0878,3.0975,3.0975,3.0912,3.0468,3.0113,3.0568,3.0284,2.9881,3.0384,3.0526,3.0526,3.0526,3.0821,3.1083,3.1083,3.1414,3.162,3.1372,3.1389,3.1351,3.0975,3.1334,3.1545,3.1095,3.1411,3.1582,3.1269,3.119,3.119,3.119,3.119,3.119,3.119,3.119,3.119,3.119,3.119,3.1074,3.0814,3.0566,3.0705,3.1351,3.2028,3.2382,3.2398,3.2718,3.2897,3.2897,3.315,3.2958,3.2398,3.2718,3.2718,3.2398,3.2398,3.2398,3.2398,3.2398,3.2398,3.2398,3.2398,3.2594,3.2897,3.2897,3.3058,3.3346,2.9495,2.9456,2.9475,2.9533,2.9513,3.0036,3.1643,3.1904,3.2524,3.4207,3.4413,3.4413,3.4413,3.4413,3.4367,3.4316,3.4316,3.4293,3.4197,3.4197,3.4148,3.4049,3.4221,3.4269,3.4197,3.4197,3.4099,3.3921,3.3921,3.3671,3.3207,3.3136,3.2983,3.2731,3.2535,3.2435,3.2435,3.2021,3.1679,3.1367,3.0993,3.0868,3.0828,3.0393,3.0535,3.0975,3.0781,3.0601,3.0518,3.0617,3.0452,3.014,3.0156,2.9941,2.9766,2.9984,3.007,3.0103,3.0231,3.0443,3.0609,3.051,3.0593,3.0658,3.0658,3.0781,3.0861,3.0878,3.0918,3.0935,3.0975,3.1078,3.1196,3.1151,3.1252,3.1329,3.123,3.119,3.119,3.119,3.119,3.119,3.119,3.119,3.1055,3.074,3.0097,2.9697,2.9605,2.9666,3.0027,3.0689,3.1351,3.1905,3.2398,3.2523,3.2523,3.2523,3.2633,3.2563,3.2398,3.2523,3.2523,3.2398,3.2398,3.2398,3.2398,3.2398,3.2398,3.2398,3.2398,3.2453,3.2523,3.2523,3.2757,3.3058,2.9166,2.9185,2.9206,2.9293,2.9293,2.9832,3.1448,3.1708,3.2302,3.3974,3.4197,3.4197,3.4197,3.4043,3.3993,3.4049,3.3947,3.3823,3.3652,3.3797,3.3743,3.3419,3.357,3.3725,3.3868,3.3868,3.3734,3.339,3.339,3.3136,3.2601,3.2601,3.2502,3.2283,3.1951,3.179,3.1754,3.1172,3.0778,3.0517,3.0276,3.0225,3.0182,2.9924,3.0054,3.0351,3.0267,3.0081,2.9951,3.0166,3.0054,2.9793,2.9793,2.9572,2.9364,2.9617,2.9677,2.9677,2.9886,3.0087,3.0215,3.013,3.0342,3.0609,3.0651,3.0651,3.0651,3.0692,3.0733,3.0831,3.0952,3.0975,3.1055,3.119,3.119,3.119,3.119,3.119,3.119,3.119,3.1055,3.0918,3.0918,3.0757,3.0535,3.0267,2.9528,2.9074,2.9074,2.9306,2.9735,3.0397,3.1043,3.1705,3.2382,3.2398,3.2398,3.2398,3.2398,3.2398,3.2398,3.2398,3.2398,3.2398,3.2398,3.2398,3.2398,3.2398,3.2287,3.212,3.212,3.2007,3.1823,3.1823,3.1951,3.2135,2.8887,2.8957,2.9026,2.9209,2.9286,2.986,3.1358,3.1654,3.2242,3.3833,3.4037,3.4037,3.4037,3.3695,3.3534,3.3662,3.3444,3.3147,3.2763,3.3099,3.3147,3.2763,3.2763,3.2925,3.3286,3.3304,3.3117,3.2763,3.2763,3.2568,3.2248,3.2196,3.2162,3.2092,3.1253,3.0886,3.0847,3.0107,2.9793,2.975,2.975,2.975,2.9705,2.9705,2.9438,2.9212,2.9617,2.9483,2.9166,2.9528,2.9661,2.9661,2.9661,2.9319,2.8951,2.9364,2.912,2.8842,2.9319,2.947,2.9515,2.9515,3.0044,3.0651,3.0733,3.0831,3.079,3.0692,3.079,3.0912,3.0855,3.0895,3.0975,3.1112,3.1095,3.1095,3.1151,3.1151,3.1112,3.1072,3.074,3.0477,3.0435,3.0011,2.975,2.975,2.9303,2.9044,2.9044,2.9211,2.9673,3.0397,3.0982,3.1659,3.2382,3.2342,3.2342,3.2398,3.2398,3.2398,3.2398,3.2342,3.2342,3.2342,3.2272,3.2272,3.2272,3.2272,3.2007,3.1625,3.1625,3.1379,3.1029,3.1029,3.1029,3.1014,2.8308,2.8525,2.8712,2.8743,2.9277,2.993,3.0666,3.1268,3.1882,3.2602,3.2695,3.2695,3.2695,3.2631,3.2598,3.2616,3.2586,3.2486,3.2401,3.2486,3.2486,3.2401,3.2419,3.2453,3.2537,3.2519,3.2486,3.2419,3.2419,3.2196,3.1823,3.1459,3.1155,3.0891,3.0318,3.0064,3.0064,2.9865,2.9572,2.9257,2.9257,2.9257,2.9212,2.8826,2.9106,2.9617,2.9348,2.9182,2.9044,2.8795,2.87,2.87,2.87,2.8621,2.8541,2.8621,2.8826,2.9028,2.9044,2.9319,2.9589,2.9589,2.9722,2.9853,2.9826,3.0103,3.0359,3.0316,3.0609,3.0814,3.0493,3.0435,3.0477,3.0617,3.0351,3.0225,3.0601,3.0642,3.0535,3.0156,3.0351,3.0351,2.9968,2.9528,2.9257,2.9257,2.8826,2.8525,2.8525,2.8583,2.9181,3.0381,3.0566,3.1197,3.2382,3.2064,3.2064,3.2398,3.2398,3.2398,3.2398,3.2007,3.1838,3.1838,3.148,3.1306,3.1306,3.1306,3.1248,3.1146,3.1146,3.1087,3.1029,3.1029,3.1029,3.1014,2.7926,2.8055,2.8156,2.8156,2.8826,2.9536,3.0189,3.0889,3.1603,3.2246,3.2317,3.2317,3.2317,3.2144,3.1967,3.1768,3.2109,3.2214,3.2039,3.2196,3.2196,3.2039,3.1986,3.1842,3.1456,3.1456,3.1642,3.1986,3.1808,3.1514,3.1145,3.0657,3.0344,3.014,2.9661,2.9483,2.9438,2.9227,2.9013,2.8795,2.8795,2.8795,2.8748,2.8493,2.87,2.9106,2.8826,2.8795,2.8748,2.8493,2.8411,2.8411,2.8411,2.8411,2.8411,2.8411,2.8573,2.8748,2.87,2.8842,2.9013,2.9013,2.9013,2.9152,2.9544,2.9766,2.9897,2.9913,3.007,3.014,2.9995,2.9968,3.0011,3.014,2.9968,2.9897,3.014,3.0182,3.0054,2.9837,2.9837,2.9661,2.9198,2.892,2.8795,2.8795,2.8525,2.8411,2.8411,2.8411,2.9027,3.0381,3.0428,3.0952,3.2048,3.1838,3.1724,3.1709,3.1709,3.1709,3.1709,3.1495,3.1379,3.1321,3.1087,3.1029,3.1029,3.1029,3.0851,3.0673,3.0673,3.0553,3.0312,3.0312,3.0312,3.0372,2.7624,2.7672,2.7736,2.7877,2.8526,2.9281,3.0068,3.0793,3.1479,3.2126,3.2162,3.2127,3.2109,3.1823,3.1487,3.123,3.1768,3.1967,3.1657,3.1842,3.1842,3.1528,3.1397,3.105,3.0377,3.0393,3.0707,3.1359,3.0999,3.064,3.0393,2.9924,2.9661,2.9661,2.9182,2.8997,2.8951,2.8573,2.8411,2.8411,2.8411,2.8411,2.8411,2.8411,2.8411,2.8411,2.8411,2.8411,2.8411,2.8411,2.8411,2.8411,2.8411,2.8411,2.8411,2.8411,2.8411,2.8411,2.8411,2.8411,2.8411,2.8411,2.8411,2.8621,2.9364,2.9528,2.9496,2.9528,2.9467,2.9467,2.9483,2.9483,2.9544,2.9661,2.9617,2.9572,2.9661,2.9661,2.9661,2.9572,2.9227,2.8826,2.8444,2.8411,2.8411,2.8411,2.8411,2.8411,2.8411,2.8411,2.9027,3.0381,3.0308,3.0738,3.1667,3.1552,3.1263,3.0911,3.0792,3.0851,3.1029,3.0911,3.0911,3.0911,3.0792,3.0792,3.0792,3.0792,3.0553,3.0205,3.0205,2.996,2.9602,2.9602,2.9602,2.9602,2.7276,2.7491,2.7894,2.8531,2.9316,3.0024,3.0543,3.1289,3.17,3.147,3.1432,3.1411,3.1368,3.1291,3.1269,3.119,3.1291,3.1329,3.1252,3.0925,3.0707,3.0666,3.0293,3.0011,2.9881,2.9881,2.9968,3.0038,2.9995,2.9951,2.9881,2.9393,2.9212,2.9166,2.87,2.8493,2.8493,2.846,2.8411,2.8411,2.8411,2.8411,2.8411,2.8411,2.8411,2.8411,2.8411,2.8411,2.8411,2.8411,2.8411,2.8411,2.8411,2.8411,2.8411,2.8411,2.8411,2.8411,2.8411,2.8411,2.8411,2.8411,2.8411,2.8444,2.8589,2.8873,2.9166,2.9166,2.9483,2.9617,2.9257,2.9182,2.9166,2.9166,2.8826,2.8748,2.9136,2.9212,2.9044,2.8621,2.8541,2.8493,2.8411,2.8411,2.8411,2.8411,2.8411,2.8411,2.8411,2.8411,2.9027,3.0381,2.9978,3.0398,3.1667,3.0911,3.0433,3.0372,2.996,3.019,3.097,3.0553,3.0372,3.0372,2.996,2.9789,2.9789,2.9789,2.9727,2.9665,2.9665,2.9665,2.9602,2.9602,2.9602,2.9602,2.6956,2.7363,2.7839,2.8166,2.9265,3.0177,3.0486,3.1119,3.1524,3.1406,3.1351,3.1274,3.119,3.0975,3.0797,3.0797,3.0576,3.041,3.041,3.0225,3.0097,3.0097,2.9924,2.9661,2.9393,2.9393,2.9273,2.9013,2.9273,2.9393,2.9393,2.892,2.87,2.87,2.8493,2.8411,2.8411,2.8411,2.8411,2.8396,2.8152,2.8201,2.8363,2.8152,2.8039,2.8039,2.8039,2.8039,2.8103,2.8299,2.8411,2.8411,2.8411,2.8411,2.8411,2.8411,2.8411,2.8411,2.8411,2.8411,2.8411,2.8411,2.8411,2.8411,2.8411,2.8573,2.87,2.87,2.8826,2.8858,2.8732,2.87,2.87,2.87,2.8541,2.8493,2.8653,2.87,2.8621,2.8396,2.8411,2.8411,2.8411,2.8411,2.8411,2.8411,2.8201,2.8152,2.8411,2.7925,2.8378,2.9947,2.9589,2.9885,3.0896,3.0493,3.0144,2.9898,2.9727,2.9851,3.019,3.0021,2.9898,2.9898,2.9665,2.9602,2.9602,2.9602,2.9602,2.9602,2.9602,2.9602,2.9602,2.9602,2.9602,2.9602]}]]